<?xml version="1.0" encoding="UTF-8" standalone="no" ?>
<gpx xmlns="http://www.topografix.com/GPX/1/1" xmlns:xsi="http://www.w3.org/2001/XMLSchema-instance" xsi:schemaLocation="http://www.topografix.com/GPX/1/1 http://www.topografix.com/GPX/1/1/gpx.xsd" version="1.1" creator="VisuGPX - https://www.visugpx.com">
  <metadata>
    <name>trace briollay </name>
    <desc><![CDATA[rando sympas a faire surtout quand il y a des crues ]]></desc>
  </metadata>
  <trk>
    <name><![CDATA[28-DEC-14 12:52:22]]></name>
    <trkseg>
      <trkpt lat="47.57014" lon="-0.50269">
        <ele>-27.74</ele>
        <time>2014-12-28T09:14:22Z</time>
      </trkpt>
      <trkpt lat="47.57006" lon="-0.50256">
        <ele>-23.41</ele>
        <time>2014-12-28T09:14:37Z</time>
      </trkpt>
      <trkpt lat="47.57006" lon="-0.50256">
        <ele>-19.57</ele>
        <time>2014-12-28T09:14:39Z</time>
      </trkpt>
      <trkpt lat="47.57004" lon="-0.50255">
        <ele>-15.72</ele>
        <time>2014-12-28T09:14:41Z</time>
      </trkpt>
      <trkpt lat="47.57003" lon="-0.50254">
        <ele>-12.36</ele>
        <time>2014-12-28T09:14:43Z</time>
      </trkpt>
      <trkpt lat="47.57001" lon="-0.50254">
        <ele>-9</ele>
        <time>2014-12-28T09:14:45Z</time>
      </trkpt>
      <trkpt lat="47.57" lon="-0.50253">
        <ele>-7.55</ele>
        <time>2014-12-28T09:14:47Z</time>
      </trkpt>
      <trkpt lat="47.57" lon="-0.50253">
        <ele>-4.19</ele>
        <time>2014-12-28T09:14:48Z</time>
      </trkpt>
      <trkpt lat="47.56999" lon="-0.50252">
        <ele>-0.34</ele>
        <time>2014-12-28T09:14:51Z</time>
      </trkpt>
      <trkpt lat="47.56998" lon="-0.50252">
        <ele>3.5</ele>
        <time>2014-12-28T09:14:54Z</time>
      </trkpt>
      <trkpt lat="47.56998" lon="-0.50252">
        <ele>6.87</ele>
        <time>2014-12-28T09:14:57Z</time>
      </trkpt>
      <trkpt lat="47.56998" lon="-0.50252">
        <ele>10.23</ele>
        <time>2014-12-28T09:15:01Z</time>
      </trkpt>
      <trkpt lat="47.56998" lon="-0.50252">
        <ele>13.6</ele>
        <time>2014-12-28T09:15:05Z</time>
      </trkpt>
      <trkpt lat="47.56998" lon="-0.50251">
        <ele>16.96</ele>
        <time>2014-12-28T09:15:10Z</time>
      </trkpt>
      <trkpt lat="47.56998" lon="-0.50251">
        <ele>20.32</ele>
        <time>2014-12-28T09:15:15Z</time>
      </trkpt>
      <trkpt lat="47.56998" lon="-0.50251">
        <ele>21.29</ele>
        <time>2014-12-28T09:15:17Z</time>
      </trkpt>
      <trkpt lat="47.56997" lon="-0.50251">
        <ele>22.73</ele>
        <time>2014-12-28T09:15:20Z</time>
      </trkpt>
      <trkpt lat="47.56997" lon="-0.50251">
        <ele>26.09</ele>
        <time>2014-12-28T09:15:26Z</time>
      </trkpt>
      <trkpt lat="47.56997" lon="-0.50251">
        <ele>26.09</ele>
        <time>2014-12-28T09:15:27Z</time>
      </trkpt>
      <trkpt lat="47.56998" lon="-0.50252">
        <ele>29.94</ele>
        <time>2014-12-28T09:15:36Z</time>
      </trkpt>
      <trkpt lat="47.56997" lon="-0.50255">
        <ele>31.38</ele>
        <time>2014-12-28T09:15:43Z</time>
      </trkpt>
      <trkpt lat="47.56995" lon="-0.50264">
        <ele>32.34</ele>
        <time>2014-12-28T09:15:48Z</time>
      </trkpt>
      <trkpt lat="47.56986" lon="-0.50299">
        <ele>34.26</ele>
        <time>2014-12-28T09:15:59Z</time>
      </trkpt>
      <trkpt lat="47.56953" lon="-0.50359">
        <ele>31.38</ele>
        <time>2014-12-28T09:16:10Z</time>
      </trkpt>
      <trkpt lat="47.56948" lon="-0.50364">
        <ele>31.38</ele>
        <time>2014-12-28T09:16:11Z</time>
      </trkpt>
      <trkpt lat="47.56943" lon="-0.50367">
        <ele>30.42</ele>
        <time>2014-12-28T09:16:12Z</time>
      </trkpt>
      <trkpt lat="47.56937" lon="-0.50369">
        <ele>29.94</ele>
        <time>2014-12-28T09:16:13Z</time>
      </trkpt>
      <trkpt lat="47.5693" lon="-0.50368">
        <ele>29.94</ele>
        <time>2014-12-28T09:16:14Z</time>
      </trkpt>
      <trkpt lat="47.56923" lon="-0.50365">
        <ele>29.94</ele>
        <time>2014-12-28T09:16:15Z</time>
      </trkpt>
      <trkpt lat="47.56917" lon="-0.50359">
        <ele>29.46</ele>
        <time>2014-12-28T09:16:16Z</time>
      </trkpt>
      <trkpt lat="47.5691" lon="-0.50352">
        <ele>28.5</ele>
        <time>2014-12-28T09:16:17Z</time>
      </trkpt>
      <trkpt lat="47.56882" lon="-0.50323">
        <ele>24.65</ele>
        <time>2014-12-28T09:16:21Z</time>
      </trkpt>
      <trkpt lat="47.56851" lon="-0.50302">
        <ele>21.77</ele>
        <time>2014-12-28T09:16:25Z</time>
      </trkpt>
      <trkpt lat="47.56843" lon="-0.503">
        <ele>21.77</ele>
        <time>2014-12-28T09:16:26Z</time>
      </trkpt>
      <trkpt lat="47.56835" lon="-0.503">
        <ele>21.29</ele>
        <time>2014-12-28T09:16:27Z</time>
      </trkpt>
      <trkpt lat="47.56827" lon="-0.50302">
        <ele>20.32</ele>
        <time>2014-12-28T09:16:28Z</time>
      </trkpt>
      <trkpt lat="47.56819" lon="-0.50306">
        <ele>20.81</ele>
        <time>2014-12-28T09:16:29Z</time>
      </trkpt>
      <trkpt lat="47.56812" lon="-0.50312">
        <ele>20.32</ele>
        <time>2014-12-28T09:16:30Z</time>
      </trkpt>
      <trkpt lat="47.56807" lon="-0.50321">
        <ele>19.84</ele>
        <time>2014-12-28T09:16:31Z</time>
      </trkpt>
      <trkpt lat="47.56802" lon="-0.50329">
        <ele>19.36</ele>
        <time>2014-12-28T09:16:32Z</time>
      </trkpt>
      <trkpt lat="47.56769" lon="-0.50384">
        <ele>19.84</ele>
        <time>2014-12-28T09:16:39Z</time>
      </trkpt>
      <trkpt lat="47.56724" lon="-0.50505">
        <ele>20.32</ele>
        <time>2014-12-28T09:16:55Z</time>
      </trkpt>
      <trkpt lat="47.56723" lon="-0.50512">
        <ele>20.81</ele>
        <time>2014-12-28T09:16:56Z</time>
      </trkpt>
      <trkpt lat="47.56714" lon="-0.50545">
        <ele>19.84</ele>
        <time>2014-12-28T09:17:03Z</time>
      </trkpt>
      <trkpt lat="47.56711" lon="-0.50556">
        <ele>19.84</ele>
        <time>2014-12-28T09:17:05Z</time>
      </trkpt>
      <trkpt lat="47.56708" lon="-0.50569">
        <ele>19.36</ele>
        <time>2014-12-28T09:17:07Z</time>
      </trkpt>
      <trkpt lat="47.56707" lon="-0.50576">
        <ele>19.84</ele>
        <time>2014-12-28T09:17:08Z</time>
      </trkpt>
      <trkpt lat="47.56707" lon="-0.50583">
        <ele>19.84</ele>
        <time>2014-12-28T09:17:09Z</time>
      </trkpt>
      <trkpt lat="47.56708" lon="-0.50597">
        <ele>19.36</ele>
        <time>2014-12-28T09:17:11Z</time>
      </trkpt>
      <trkpt lat="47.5671" lon="-0.50603">
        <ele>20.32</ele>
        <time>2014-12-28T09:17:12Z</time>
      </trkpt>
      <trkpt lat="47.56713" lon="-0.50609">
        <ele>20.32</ele>
        <time>2014-12-28T09:17:13Z</time>
      </trkpt>
      <trkpt lat="47.56719" lon="-0.5062">
        <ele>19.84</ele>
        <time>2014-12-28T09:17:15Z</time>
      </trkpt>
      <trkpt lat="47.56721" lon="-0.50626">
        <ele>18.88</ele>
        <time>2014-12-28T09:17:16Z</time>
      </trkpt>
      <trkpt lat="47.56737" lon="-0.50681">
        <ele>18.88</ele>
        <time>2014-12-28T09:17:24Z</time>
      </trkpt>
      <trkpt lat="47.56755" lon="-0.50732">
        <ele>17.92</ele>
        <time>2014-12-28T09:17:31Z</time>
      </trkpt>
      <trkpt lat="47.56758" lon="-0.50737">
        <ele>17.92</ele>
        <time>2014-12-28T09:17:32Z</time>
      </trkpt>
      <trkpt lat="47.56762" lon="-0.50739">
        <ele>17.44</ele>
        <time>2014-12-28T09:17:33Z</time>
      </trkpt>
      <trkpt lat="47.56765" lon="-0.50737">
        <ele>17.44</ele>
        <time>2014-12-28T09:17:34Z</time>
      </trkpt>
      <trkpt lat="47.56769" lon="-0.50733">
        <ele>17.44</ele>
        <time>2014-12-28T09:17:35Z</time>
      </trkpt>
      <trkpt lat="47.56772" lon="-0.50728">
        <ele>16.96</ele>
        <time>2014-12-28T09:17:36Z</time>
      </trkpt>
      <trkpt lat="47.56775" lon="-0.50722">
        <ele>17.92</ele>
        <time>2014-12-28T09:17:37Z</time>
      </trkpt>
      <trkpt lat="47.56779" lon="-0.50717">
        <ele>17.92</ele>
        <time>2014-12-28T09:17:38Z</time>
      </trkpt>
      <trkpt lat="47.56782" lon="-0.50712">
        <ele>17.92</ele>
        <time>2014-12-28T09:17:39Z</time>
      </trkpt>
      <trkpt lat="47.56789" lon="-0.50703">
        <ele>18.4</ele>
        <time>2014-12-28T09:17:41Z</time>
      </trkpt>
      <trkpt lat="47.56799" lon="-0.50693">
        <ele>17.92</ele>
        <time>2014-12-28T09:17:44Z</time>
      </trkpt>
      <trkpt lat="47.56804" lon="-0.50691">
        <ele>17.92</ele>
        <time>2014-12-28T09:17:45Z</time>
      </trkpt>
      <trkpt lat="47.56812" lon="-0.50691">
        <ele>17.92</ele>
        <time>2014-12-28T09:17:47Z</time>
      </trkpt>
      <trkpt lat="47.56815" lon="-0.50688">
        <ele>17.92</ele>
        <time>2014-12-28T09:17:48Z</time>
      </trkpt>
      <trkpt lat="47.56819" lon="-0.50684">
        <ele>17.92</ele>
        <time>2014-12-28T09:17:49Z</time>
      </trkpt>
      <trkpt lat="47.56822" lon="-0.5068">
        <ele>18.4</ele>
        <time>2014-12-28T09:17:50Z</time>
      </trkpt>
      <trkpt lat="47.56826" lon="-0.50676">
        <ele>17.92</ele>
        <time>2014-12-28T09:17:51Z</time>
      </trkpt>
      <trkpt lat="47.5683" lon="-0.50673">
        <ele>18.4</ele>
        <time>2014-12-28T09:17:52Z</time>
      </trkpt>
      <trkpt lat="47.56834" lon="-0.5067">
        <ele>17.92</ele>
        <time>2014-12-28T09:17:53Z</time>
      </trkpt>
      <trkpt lat="47.56838" lon="-0.50669">
        <ele>17.92</ele>
        <time>2014-12-28T09:17:54Z</time>
      </trkpt>
      <trkpt lat="47.56842" lon="-0.50668">
        <ele>17.44</ele>
        <time>2014-12-28T09:17:55Z</time>
      </trkpt>
      <trkpt lat="47.56859" lon="-0.50668">
        <ele>17.92</ele>
        <time>2014-12-28T09:17:59Z</time>
      </trkpt>
      <trkpt lat="47.56872" lon="-0.50664">
        <ele>17.44</ele>
        <time>2014-12-28T09:18:02Z</time>
      </trkpt>
      <trkpt lat="47.56881" lon="-0.50663">
        <ele>17.92</ele>
        <time>2014-12-28T09:18:04Z</time>
      </trkpt>
      <trkpt lat="47.56885" lon="-0.50663">
        <ele>17.92</ele>
        <time>2014-12-28T09:18:05Z</time>
      </trkpt>
      <trkpt lat="47.5689" lon="-0.50664">
        <ele>17.92</ele>
        <time>2014-12-28T09:18:06Z</time>
      </trkpt>
      <trkpt lat="47.56907" lon="-0.50669">
        <ele>17.92</ele>
        <time>2014-12-28T09:18:10Z</time>
      </trkpt>
      <trkpt lat="47.5692" lon="-0.50676">
        <ele>16.96</ele>
        <time>2014-12-28T09:18:13Z</time>
      </trkpt>
      <trkpt lat="47.56924" lon="-0.50675">
        <ele>17.44</ele>
        <time>2014-12-28T09:18:14Z</time>
      </trkpt>
      <trkpt lat="47.56928" lon="-0.50674">
        <ele>17.92</ele>
        <time>2014-12-28T09:18:15Z</time>
      </trkpt>
      <trkpt lat="47.56942" lon="-0.50664">
        <ele>17.44</ele>
        <time>2014-12-28T09:18:19Z</time>
      </trkpt>
      <trkpt lat="47.56944" lon="-0.50659">
        <ele>16.96</ele>
        <time>2014-12-28T09:18:20Z</time>
      </trkpt>
      <trkpt lat="47.56944" lon="-0.50653">
        <ele>16</ele>
        <time>2014-12-28T09:18:21Z</time>
      </trkpt>
      <trkpt lat="47.56942" lon="-0.50647">
        <ele>16.48</ele>
        <time>2014-12-28T09:18:22Z</time>
      </trkpt>
      <trkpt lat="47.56941" lon="-0.50642">
        <ele>15.52</ele>
        <time>2014-12-28T09:18:23Z</time>
      </trkpt>
      <trkpt lat="47.56939" lon="-0.50636">
        <ele>15.52</ele>
        <time>2014-12-28T09:18:24Z</time>
      </trkpt>
      <trkpt lat="47.56939" lon="-0.50631">
        <ele>15.52</ele>
        <time>2014-12-28T09:18:25Z</time>
      </trkpt>
      <trkpt lat="47.56945" lon="-0.50607">
        <ele>17.44</ele>
        <time>2014-12-28T09:18:30Z</time>
      </trkpt>
      <trkpt lat="47.56996" lon="-0.50582">
        <ele>17.44</ele>
        <time>2014-12-28T09:18:43Z</time>
      </trkpt>
      <trkpt lat="47.57" lon="-0.50582">
        <ele>17.92</ele>
        <time>2014-12-28T09:18:44Z</time>
      </trkpt>
      <trkpt lat="47.57004" lon="-0.50583">
        <ele>17.44</ele>
        <time>2014-12-28T09:18:45Z</time>
      </trkpt>
      <trkpt lat="47.57009" lon="-0.50584">
        <ele>17.44</ele>
        <time>2014-12-28T09:18:46Z</time>
      </trkpt>
      <trkpt lat="47.57013" lon="-0.50584">
        <ele>16.96</ele>
        <time>2014-12-28T09:18:47Z</time>
      </trkpt>
      <trkpt lat="47.57017" lon="-0.50583">
        <ele>16.48</ele>
        <time>2014-12-28T09:18:48Z</time>
      </trkpt>
      <trkpt lat="47.57021" lon="-0.50582">
        <ele>16.96</ele>
        <time>2014-12-28T09:18:49Z</time>
      </trkpt>
      <trkpt lat="47.57024" lon="-0.5058">
        <ele>16</ele>
        <time>2014-12-28T09:18:50Z</time>
      </trkpt>
      <trkpt lat="47.57036" lon="-0.50572">
        <ele>16</ele>
        <time>2014-12-28T09:18:53Z</time>
      </trkpt>
      <trkpt lat="47.57039" lon="-0.50569">
        <ele>16.48</ele>
        <time>2014-12-28T09:18:54Z</time>
      </trkpt>
      <trkpt lat="47.57042" lon="-0.50566">
        <ele>16</ele>
        <time>2014-12-28T09:18:55Z</time>
      </trkpt>
      <trkpt lat="47.57059" lon="-0.50556">
        <ele>16.96</ele>
        <time>2014-12-28T09:19:00Z</time>
      </trkpt>
      <trkpt lat="47.57076" lon="-0.5055">
        <ele>16</ele>
        <time>2014-12-28T09:19:04Z</time>
      </trkpt>
      <trkpt lat="47.57154" lon="-0.50506">
        <ele>16.48</ele>
        <time>2014-12-28T09:19:20Z</time>
      </trkpt>
      <trkpt lat="47.57235" lon="-0.50442">
        <ele>15.52</ele>
        <time>2014-12-28T09:19:37Z</time>
      </trkpt>
      <trkpt lat="47.57311" lon="-0.50379">
        <ele>16</ele>
        <time>2014-12-28T09:19:53Z</time>
      </trkpt>
      <trkpt lat="47.57392" lon="-0.50327">
        <ele>16</ele>
        <time>2014-12-28T09:20:10Z</time>
      </trkpt>
      <trkpt lat="47.5747" lon="-0.50285">
        <ele>16.48</ele>
        <time>2014-12-28T09:20:26Z</time>
      </trkpt>
      <trkpt lat="47.57549" lon="-0.50267">
        <ele>16</ele>
        <time>2014-12-28T09:20:41Z</time>
      </trkpt>
      <trkpt lat="47.57554" lon="-0.50266">
        <ele>16.48</ele>
        <time>2014-12-28T09:20:42Z</time>
      </trkpt>
      <trkpt lat="47.57559" lon="-0.50265">
        <ele>16.48</ele>
        <time>2014-12-28T09:20:43Z</time>
      </trkpt>
      <trkpt lat="47.57632" lon="-0.50244">
        <ele>16.48</ele>
        <time>2014-12-28T09:20:57Z</time>
      </trkpt>
      <trkpt lat="47.57725" lon="-0.50215">
        <ele>15.52</ele>
        <time>2014-12-28T09:21:14Z</time>
      </trkpt>
      <trkpt lat="47.57793" lon="-0.50185">
        <ele>15.52</ele>
        <time>2014-12-28T09:21:27Z</time>
      </trkpt>
      <trkpt lat="47.5781" lon="-0.50179">
        <ele>16</ele>
        <time>2014-12-28T09:21:30Z</time>
      </trkpt>
      <trkpt lat="47.57815" lon="-0.50176">
        <ele>15.52</ele>
        <time>2014-12-28T09:21:31Z</time>
      </trkpt>
      <trkpt lat="47.57843" lon="-0.50166">
        <ele>16</ele>
        <time>2014-12-28T09:21:36Z</time>
      </trkpt>
      <trkpt lat="47.57922" lon="-0.50127">
        <ele>15.52</ele>
        <time>2014-12-28T09:21:51Z</time>
      </trkpt>
      <trkpt lat="47.57964" lon="-0.50105">
        <ele>15.52</ele>
        <time>2014-12-28T09:21:59Z</time>
      </trkpt>
      <trkpt lat="47.57997" lon="-0.50091">
        <ele>15.04</ele>
        <time>2014-12-28T09:22:05Z</time>
      </trkpt>
      <trkpt lat="47.5804" lon="-0.50075">
        <ele>15.04</ele>
        <time>2014-12-28T09:22:13Z</time>
      </trkpt>
      <trkpt lat="47.58045" lon="-0.50073">
        <ele>15.52</ele>
        <time>2014-12-28T09:22:14Z</time>
      </trkpt>
      <trkpt lat="47.58121" lon="-0.50043">
        <ele>15.52</ele>
        <time>2014-12-28T09:22:29Z</time>
      </trkpt>
      <trkpt lat="47.58205" lon="-0.5001">
        <ele>15.52</ele>
        <time>2014-12-28T09:22:45Z</time>
      </trkpt>
      <trkpt lat="47.58288" lon="-0.49976">
        <ele>15.52</ele>
        <time>2014-12-28T09:23:01Z</time>
      </trkpt>
      <trkpt lat="47.58294" lon="-0.49974">
        <ele>15.52</ele>
        <time>2014-12-28T09:23:02Z</time>
      </trkpt>
      <trkpt lat="47.58299" lon="-0.49971">
        <ele>16</ele>
        <time>2014-12-28T09:23:03Z</time>
      </trkpt>
      <trkpt lat="47.58329" lon="-0.49955">
        <ele>16</ele>
        <time>2014-12-28T09:23:09Z</time>
      </trkpt>
      <trkpt lat="47.58405" lon="-0.49896">
        <ele>16.48</ele>
        <time>2014-12-28T09:23:25Z</time>
      </trkpt>
      <trkpt lat="47.5848" lon="-0.49825">
        <ele>16.48</ele>
        <time>2014-12-28T09:23:42Z</time>
      </trkpt>
      <trkpt lat="47.5856" lon="-0.49744">
        <ele>16.48</ele>
        <time>2014-12-28T09:23:59Z</time>
      </trkpt>
      <trkpt lat="47.58637" lon="-0.4969">
        <ele>16</ele>
        <time>2014-12-28T09:24:15Z</time>
      </trkpt>
      <trkpt lat="47.58645" lon="-0.49686">
        <ele>16</ele>
        <time>2014-12-28T09:24:17Z</time>
      </trkpt>
      <trkpt lat="47.58648" lon="-0.49687">
        <ele>15.52</ele>
        <time>2014-12-28T09:24:18Z</time>
      </trkpt>
      <trkpt lat="47.58652" lon="-0.49689">
        <ele>15.04</ele>
        <time>2014-12-28T09:24:19Z</time>
      </trkpt>
      <trkpt lat="47.58655" lon="-0.49692">
        <ele>15.04</ele>
        <time>2014-12-28T09:24:20Z</time>
      </trkpt>
      <trkpt lat="47.58657" lon="-0.49695">
        <ele>15.04</ele>
        <time>2014-12-28T09:24:21Z</time>
      </trkpt>
      <trkpt lat="47.5866" lon="-0.497">
        <ele>15.04</ele>
        <time>2014-12-28T09:24:22Z</time>
      </trkpt>
      <trkpt lat="47.58662" lon="-0.49704">
        <ele>15.04</ele>
        <time>2014-12-28T09:24:23Z</time>
      </trkpt>
      <trkpt lat="47.58665" lon="-0.49708">
        <ele>15.52</ele>
        <time>2014-12-28T09:24:24Z</time>
      </trkpt>
      <trkpt lat="47.58704" lon="-0.4977">
        <ele>15.04</ele>
        <time>2014-12-28T09:24:38Z</time>
      </trkpt>
      <trkpt lat="47.58731" lon="-0.49766">
        <ele>16</ele>
        <time>2014-12-28T09:24:46Z</time>
      </trkpt>
      <trkpt lat="47.58734" lon="-0.49762">
        <ele>16.48</ele>
        <time>2014-12-28T09:24:48Z</time>
      </trkpt>
      <trkpt lat="47.58735" lon="-0.4976">
        <ele>16.96</ele>
        <time>2014-12-28T09:24:49Z</time>
      </trkpt>
      <trkpt lat="47.58736" lon="-0.49756">
        <ele>16.48</ele>
        <time>2014-12-28T09:24:50Z</time>
      </trkpt>
      <trkpt lat="47.58737" lon="-0.49751">
        <ele>16</ele>
        <time>2014-12-28T09:24:51Z</time>
      </trkpt>
      <trkpt lat="47.58739" lon="-0.49747">
        <ele>16</ele>
        <time>2014-12-28T09:24:52Z</time>
      </trkpt>
      <trkpt lat="47.58741" lon="-0.49741">
        <ele>15.52</ele>
        <time>2014-12-28T09:24:53Z</time>
      </trkpt>
      <trkpt lat="47.58764" lon="-0.49679">
        <ele>15.04</ele>
        <time>2014-12-28T09:25:04Z</time>
      </trkpt>
      <trkpt lat="47.58773" lon="-0.49657">
        <ele>15.04</ele>
        <time>2014-12-28T09:25:08Z</time>
      </trkpt>
      <trkpt lat="47.58789" lon="-0.49622">
        <ele>15.04</ele>
        <time>2014-12-28T09:25:14Z</time>
      </trkpt>
      <trkpt lat="47.58818" lon="-0.49558">
        <ele>15.04</ele>
        <time>2014-12-28T09:25:25Z</time>
      </trkpt>
      <trkpt lat="47.58837" lon="-0.49518">
        <ele>15.04</ele>
        <time>2014-12-28T09:25:34Z</time>
      </trkpt>
      <trkpt lat="47.58848" lon="-0.49498">
        <ele>15.04</ele>
        <time>2014-12-28T09:25:38Z</time>
      </trkpt>
      <trkpt lat="47.58851" lon="-0.49493">
        <ele>15.04</ele>
        <time>2014-12-28T09:25:39Z</time>
      </trkpt>
      <trkpt lat="47.58887" lon="-0.49432">
        <ele>15.04</ele>
        <time>2014-12-28T09:25:52Z</time>
      </trkpt>
      <trkpt lat="47.5889" lon="-0.49427">
        <ele>15.52</ele>
        <time>2014-12-28T09:25:53Z</time>
      </trkpt>
      <trkpt lat="47.589" lon="-0.49412">
        <ele>14.56</ele>
        <time>2014-12-28T09:25:56Z</time>
      </trkpt>
      <trkpt lat="47.5897" lon="-0.49358">
        <ele>15.52</ele>
        <time>2014-12-28T09:26:12Z</time>
      </trkpt>
      <trkpt lat="47.58987" lon="-0.49349">
        <ele>16</ele>
        <time>2014-12-28T09:26:16Z</time>
      </trkpt>
      <trkpt lat="47.59049" lon="-0.49321">
        <ele>15.04</ele>
        <time>2014-12-28T09:26:29Z</time>
      </trkpt>
      <trkpt lat="47.59081" lon="-0.49309">
        <ele>15.52</ele>
        <time>2014-12-28T09:26:36Z</time>
      </trkpt>
      <trkpt lat="47.5911" lon="-0.49301">
        <ele>15.52</ele>
        <time>2014-12-28T09:26:42Z</time>
      </trkpt>
      <trkpt lat="47.59114" lon="-0.49298">
        <ele>15.52</ele>
        <time>2014-12-28T09:26:43Z</time>
      </trkpt>
      <trkpt lat="47.59118" lon="-0.49294">
        <ele>15.52</ele>
        <time>2014-12-28T09:26:44Z</time>
      </trkpt>
      <trkpt lat="47.59121" lon="-0.4929">
        <ele>15.52</ele>
        <time>2014-12-28T09:26:45Z</time>
      </trkpt>
      <trkpt lat="47.59123" lon="-0.49284">
        <ele>15.52</ele>
        <time>2014-12-28T09:26:46Z</time>
      </trkpt>
      <trkpt lat="47.59125" lon="-0.49278">
        <ele>15.52</ele>
        <time>2014-12-28T09:26:47Z</time>
      </trkpt>
      <trkpt lat="47.59126" lon="-0.49272">
        <ele>16</ele>
        <time>2014-12-28T09:26:48Z</time>
      </trkpt>
      <trkpt lat="47.59126" lon="-0.49266">
        <ele>16.48</ele>
        <time>2014-12-28T09:26:49Z</time>
      </trkpt>
      <trkpt lat="47.59126" lon="-0.49261">
        <ele>16.48</ele>
        <time>2014-12-28T09:26:50Z</time>
      </trkpt>
      <trkpt lat="47.59126" lon="-0.49255">
        <ele>16.48</ele>
        <time>2014-12-28T09:26:51Z</time>
      </trkpt>
      <trkpt lat="47.59125" lon="-0.4925">
        <ele>16.96</ele>
        <time>2014-12-28T09:26:52Z</time>
      </trkpt>
      <trkpt lat="47.59122" lon="-0.49225">
        <ele>18.88</ele>
        <time>2014-12-28T09:26:57Z</time>
      </trkpt>
      <trkpt lat="47.59115" lon="-0.49191">
        <ele>21.77</ele>
        <time>2014-12-28T09:27:07Z</time>
      </trkpt>
      <trkpt lat="47.59113" lon="-0.4919">
        <ele>22.25</ele>
        <time>2014-12-28T09:27:08Z</time>
      </trkpt>
      <trkpt lat="47.5911" lon="-0.4919">
        <ele>22.73</ele>
        <time>2014-12-28T09:27:09Z</time>
      </trkpt>
      <trkpt lat="47.59107" lon="-0.49191">
        <ele>22.73</ele>
        <time>2014-12-28T09:27:10Z</time>
      </trkpt>
      <trkpt lat="47.59104" lon="-0.49193">
        <ele>23.21</ele>
        <time>2014-12-28T09:27:11Z</time>
      </trkpt>
      <trkpt lat="47.59101" lon="-0.49195">
        <ele>23.21</ele>
        <time>2014-12-28T09:27:12Z</time>
      </trkpt>
      <trkpt lat="47.59098" lon="-0.49196">
        <ele>22.73</ele>
        <time>2014-12-28T09:27:13Z</time>
      </trkpt>
      <trkpt lat="47.59094" lon="-0.49197">
        <ele>23.21</ele>
        <time>2014-12-28T09:27:14Z</time>
      </trkpt>
      <trkpt lat="47.59091" lon="-0.49198">
        <ele>23.21</ele>
        <time>2014-12-28T09:27:15Z</time>
      </trkpt>
      <trkpt lat="47.59036" lon="-0.49214">
        <ele>26.09</ele>
        <time>2014-12-28T09:27:32Z</time>
      </trkpt>
      <trkpt lat="47.58979" lon="-0.49229">
        <ele>28.5</ele>
        <time>2014-12-28T09:27:49Z</time>
      </trkpt>
      <trkpt lat="47.5892" lon="-0.49251">
        <ele>28.98</ele>
        <time>2014-12-28T09:28:05Z</time>
      </trkpt>
      <trkpt lat="47.58917" lon="-0.49251">
        <ele>28.98</ele>
        <time>2014-12-28T09:28:06Z</time>
      </trkpt>
      <trkpt lat="47.58914" lon="-0.49249">
        <ele>28.98</ele>
        <time>2014-12-28T09:28:07Z</time>
      </trkpt>
      <trkpt lat="47.58911" lon="-0.49247">
        <ele>28.98</ele>
        <time>2014-12-28T09:28:08Z</time>
      </trkpt>
      <trkpt lat="47.58908" lon="-0.49246">
        <ele>29.46</ele>
        <time>2014-12-28T09:28:09Z</time>
      </trkpt>
      <trkpt lat="47.58905" lon="-0.49245">
        <ele>29.46</ele>
        <time>2014-12-28T09:28:10Z</time>
      </trkpt>
      <trkpt lat="47.58901" lon="-0.49246">
        <ele>29.94</ele>
        <time>2014-12-28T09:28:11Z</time>
      </trkpt>
      <trkpt lat="47.58838" lon="-0.49258">
        <ele>28.5</ele>
        <time>2014-12-28T09:28:26Z</time>
      </trkpt>
      <trkpt lat="47.58792" lon="-0.49259">
        <ele>31.86</ele>
        <time>2014-12-28T09:28:39Z</time>
      </trkpt>
      <trkpt lat="47.58763" lon="-0.49288">
        <ele>31.38</ele>
        <time>2014-12-28T09:28:50Z</time>
      </trkpt>
      <trkpt lat="47.58738" lon="-0.49304">
        <ele>32.34</ele>
        <time>2014-12-28T09:28:59Z</time>
      </trkpt>
      <trkpt lat="47.58729" lon="-0.49307">
        <ele>33.78</ele>
        <time>2014-12-28T09:29:02Z</time>
      </trkpt>
      <trkpt lat="47.5867" lon="-0.49329">
        <ele>36.19</ele>
        <time>2014-12-28T09:29:19Z</time>
      </trkpt>
      <trkpt lat="47.58592" lon="-0.49373">
        <ele>36.19</ele>
        <time>2014-12-28T09:29:38Z</time>
      </trkpt>
      <trkpt lat="47.58567" lon="-0.49388">
        <ele>36.67</ele>
        <time>2014-12-28T09:29:44Z</time>
      </trkpt>
      <trkpt lat="47.58562" lon="-0.49389">
        <ele>37.15</ele>
        <time>2014-12-28T09:29:45Z</time>
      </trkpt>
      <trkpt lat="47.58479" lon="-0.49387">
        <ele>35.71</ele>
        <time>2014-12-28T09:30:01Z</time>
      </trkpt>
      <trkpt lat="47.58383" lon="-0.49368">
        <ele>33.78</ele>
        <time>2014-12-28T09:30:18Z</time>
      </trkpt>
      <trkpt lat="47.5833" lon="-0.49365">
        <ele>31.38</ele>
        <time>2014-12-28T09:30:28Z</time>
      </trkpt>
      <trkpt lat="47.58325" lon="-0.49367">
        <ele>31.38</ele>
        <time>2014-12-28T09:30:29Z</time>
      </trkpt>
      <trkpt lat="47.5832" lon="-0.49369">
        <ele>31.38</ele>
        <time>2014-12-28T09:30:30Z</time>
      </trkpt>
      <trkpt lat="47.58315" lon="-0.4937">
        <ele>31.38</ele>
        <time>2014-12-28T09:30:31Z</time>
      </trkpt>
      <trkpt lat="47.58311" lon="-0.4937">
        <ele>30.9</ele>
        <time>2014-12-28T09:30:32Z</time>
      </trkpt>
      <trkpt lat="47.58306" lon="-0.4937">
        <ele>31.86</ele>
        <time>2014-12-28T09:30:33Z</time>
      </trkpt>
      <trkpt lat="47.58302" lon="-0.49371">
        <ele>30.9</ele>
        <time>2014-12-28T09:30:34Z</time>
      </trkpt>
      <trkpt lat="47.58297" lon="-0.49372">
        <ele>31.86</ele>
        <time>2014-12-28T09:30:35Z</time>
      </trkpt>
      <trkpt lat="47.58293" lon="-0.49374">
        <ele>32.34</ele>
        <time>2014-12-28T09:30:36Z</time>
      </trkpt>
      <trkpt lat="47.58289" lon="-0.49377">
        <ele>32.34</ele>
        <time>2014-12-28T09:30:37Z</time>
      </trkpt>
      <trkpt lat="47.58285" lon="-0.49379">
        <ele>32.34</ele>
        <time>2014-12-28T09:30:38Z</time>
      </trkpt>
      <trkpt lat="47.58276" lon="-0.49384">
        <ele>33.3</ele>
        <time>2014-12-28T09:30:40Z</time>
      </trkpt>
      <trkpt lat="47.58234" lon="-0.49409">
        <ele>36.19</ele>
        <time>2014-12-28T09:30:51Z</time>
      </trkpt>
      <trkpt lat="47.5823" lon="-0.49409">
        <ele>36.19</ele>
        <time>2014-12-28T09:30:52Z</time>
      </trkpt>
      <trkpt lat="47.58226" lon="-0.49406">
        <ele>36.19</ele>
        <time>2014-12-28T09:30:53Z</time>
      </trkpt>
      <trkpt lat="47.58223" lon="-0.49402">
        <ele>36.19</ele>
        <time>2014-12-28T09:30:54Z</time>
      </trkpt>
      <trkpt lat="47.58221" lon="-0.49397">
        <ele>36.67</ele>
        <time>2014-12-28T09:30:55Z</time>
      </trkpt>
      <trkpt lat="47.58219" lon="-0.49392">
        <ele>36.67</ele>
        <time>2014-12-28T09:30:56Z</time>
      </trkpt>
      <trkpt lat="47.58217" lon="-0.49387">
        <ele>37.15</ele>
        <time>2014-12-28T09:30:57Z</time>
      </trkpt>
      <trkpt lat="47.58215" lon="-0.49381">
        <ele>36.67</ele>
        <time>2014-12-28T09:30:58Z</time>
      </trkpt>
      <trkpt lat="47.58181" lon="-0.4927">
        <ele>39.07</ele>
        <time>2014-12-28T09:31:18Z</time>
      </trkpt>
      <trkpt lat="47.58155" lon="-0.49187">
        <ele>42.44</ele>
        <time>2014-12-28T09:31:34Z</time>
      </trkpt>
      <trkpt lat="47.58125" lon="-0.49143">
        <ele>45.32</ele>
        <time>2014-12-28T09:31:47Z</time>
      </trkpt>
      <trkpt lat="47.58087" lon="-0.49102">
        <ele>48.68</ele>
        <time>2014-12-28T09:32:01Z</time>
      </trkpt>
      <trkpt lat="47.58062" lon="-0.49076">
        <ele>51.57</ele>
        <time>2014-12-28T09:32:11Z</time>
      </trkpt>
      <trkpt lat="47.58029" lon="-0.49015">
        <ele>53.97</ele>
        <time>2014-12-28T09:32:28Z</time>
      </trkpt>
      <trkpt lat="47.58008" lon="-0.4896">
        <ele>54.93</ele>
        <time>2014-12-28T09:32:42Z</time>
      </trkpt>
      <trkpt lat="47.5801" lon="-0.48956">
        <ele>55.41</ele>
        <time>2014-12-28T09:32:43Z</time>
      </trkpt>
      <trkpt lat="47.58012" lon="-0.48952">
        <ele>55.41</ele>
        <time>2014-12-28T09:32:44Z</time>
      </trkpt>
      <trkpt lat="47.58014" lon="-0.48949">
        <ele>54.93</ele>
        <time>2014-12-28T09:32:45Z</time>
      </trkpt>
      <trkpt lat="47.58017" lon="-0.48945">
        <ele>55.41</ele>
        <time>2014-12-28T09:32:46Z</time>
      </trkpt>
      <trkpt lat="47.58071" lon="-0.48891">
        <ele>54.93</ele>
        <time>2014-12-28T09:33:02Z</time>
      </trkpt>
      <trkpt lat="47.58141" lon="-0.48857">
        <ele>55.41</ele>
        <time>2014-12-28T09:33:20Z</time>
      </trkpt>
      <trkpt lat="47.58179" lon="-0.48834">
        <ele>54.93</ele>
        <time>2014-12-28T09:33:29Z</time>
      </trkpt>
      <trkpt lat="47.58189" lon="-0.48824">
        <ele>54.45</ele>
        <time>2014-12-28T09:33:32Z</time>
      </trkpt>
      <trkpt lat="47.5819" lon="-0.48819">
        <ele>53.97</ele>
        <time>2014-12-28T09:33:33Z</time>
      </trkpt>
      <trkpt lat="47.58189" lon="-0.48814">
        <ele>54.45</ele>
        <time>2014-12-28T09:33:34Z</time>
      </trkpt>
      <trkpt lat="47.58187" lon="-0.48808">
        <ele>53.97</ele>
        <time>2014-12-28T09:33:35Z</time>
      </trkpt>
      <trkpt lat="47.58185" lon="-0.48802">
        <ele>53.97</ele>
        <time>2014-12-28T09:33:36Z</time>
      </trkpt>
      <trkpt lat="47.58184" lon="-0.48797">
        <ele>54.45</ele>
        <time>2014-12-28T09:33:37Z</time>
      </trkpt>
      <trkpt lat="47.58153" lon="-0.48691">
        <ele>53.97</ele>
        <time>2014-12-28T09:33:54Z</time>
      </trkpt>
      <trkpt lat="47.58132" lon="-0.48624">
        <ele>54.45</ele>
        <time>2014-12-28T09:34:04Z</time>
      </trkpt>
      <trkpt lat="47.58128" lon="-0.4862">
        <ele>53.97</ele>
        <time>2014-12-28T09:34:05Z</time>
      </trkpt>
      <trkpt lat="47.58124" lon="-0.48618">
        <ele>53.97</ele>
        <time>2014-12-28T09:34:06Z</time>
      </trkpt>
      <trkpt lat="47.58119" lon="-0.48618">
        <ele>53.97</ele>
        <time>2014-12-28T09:34:07Z</time>
      </trkpt>
      <trkpt lat="47.58115" lon="-0.4862">
        <ele>53.97</ele>
        <time>2014-12-28T09:34:08Z</time>
      </trkpt>
      <trkpt lat="47.58111" lon="-0.48623">
        <ele>53.97</ele>
        <time>2014-12-28T09:34:09Z</time>
      </trkpt>
      <trkpt lat="47.58043" lon="-0.48674">
        <ele>53.49</ele>
        <time>2014-12-28T09:34:25Z</time>
      </trkpt>
      <trkpt lat="47.58038" lon="-0.48705">
        <ele>53.49</ele>
        <time>2014-12-28T09:34:31Z</time>
      </trkpt>
      <trkpt lat="47.58028" lon="-0.48717">
        <ele>54.45</ele>
        <time>2014-12-28T09:34:34Z</time>
      </trkpt>
      <trkpt lat="47.5796" lon="-0.48785">
        <ele>54.93</ele>
        <time>2014-12-28T09:34:50Z</time>
      </trkpt>
      <trkpt lat="47.57957" lon="-0.48789">
        <ele>55.41</ele>
        <time>2014-12-28T09:34:51Z</time>
      </trkpt>
      <trkpt lat="47.57954" lon="-0.48793">
        <ele>54.93</ele>
        <time>2014-12-28T09:34:52Z</time>
      </trkpt>
      <trkpt lat="47.57951" lon="-0.48794">
        <ele>54.93</ele>
        <time>2014-12-28T09:34:53Z</time>
      </trkpt>
      <trkpt lat="47.57949" lon="-0.48793">
        <ele>54.93</ele>
        <time>2014-12-28T09:34:54Z</time>
      </trkpt>
      <trkpt lat="47.57947" lon="-0.4879">
        <ele>54.45</ele>
        <time>2014-12-28T09:34:55Z</time>
      </trkpt>
      <trkpt lat="47.57946" lon="-0.48785">
        <ele>54.45</ele>
        <time>2014-12-28T09:34:56Z</time>
      </trkpt>
      <trkpt lat="47.57924" lon="-0.48713">
        <ele>53.49</ele>
        <time>2014-12-28T09:35:08Z</time>
      </trkpt>
      <trkpt lat="47.57915" lon="-0.48689">
        <ele>52.05</ele>
        <time>2014-12-28T09:35:11Z</time>
      </trkpt>
      <trkpt lat="47.57891" lon="-0.48626">
        <ele>48.68</ele>
        <time>2014-12-28T09:35:18Z</time>
      </trkpt>
      <trkpt lat="47.57887" lon="-0.48615">
        <ele>48.2</ele>
        <time>2014-12-28T09:35:19Z</time>
      </trkpt>
      <trkpt lat="47.57879" lon="-0.48593">
        <ele>46.76</ele>
        <time>2014-12-28T09:35:21Z</time>
      </trkpt>
      <trkpt lat="47.57862" lon="-0.48538">
        <ele>43.88</ele>
        <time>2014-12-28T09:35:26Z</time>
      </trkpt>
      <trkpt lat="47.57857" lon="-0.48517">
        <ele>42.44</ele>
        <time>2014-12-28T09:35:29Z</time>
      </trkpt>
      <trkpt lat="47.57858" lon="-0.48507">
        <ele>41.47</ele>
        <time>2014-12-28T09:35:31Z</time>
      </trkpt>
      <trkpt lat="47.57859" lon="-0.48502">
        <ele>41.95</ele>
        <time>2014-12-28T09:35:32Z</time>
      </trkpt>
      <trkpt lat="47.57853" lon="-0.48443">
        <ele>41.47</ele>
        <time>2014-12-28T09:35:43Z</time>
      </trkpt>
      <trkpt lat="47.57849" lon="-0.48413">
        <ele>40.51</ele>
        <time>2014-12-28T09:35:47Z</time>
      </trkpt>
      <trkpt lat="47.5785" lon="-0.48405">
        <ele>40.03</ele>
        <time>2014-12-28T09:35:48Z</time>
      </trkpt>
      <trkpt lat="47.57851" lon="-0.48398">
        <ele>40.03</ele>
        <time>2014-12-28T09:35:49Z</time>
      </trkpt>
      <trkpt lat="47.57853" lon="-0.48391">
        <ele>39.55</ele>
        <time>2014-12-28T09:35:50Z</time>
      </trkpt>
      <trkpt lat="47.57857" lon="-0.48385">
        <ele>39.55</ele>
        <time>2014-12-28T09:35:51Z</time>
      </trkpt>
      <trkpt lat="47.5786" lon="-0.48379">
        <ele>39.55</ele>
        <time>2014-12-28T09:35:52Z</time>
      </trkpt>
      <trkpt lat="47.57895" lon="-0.48318">
        <ele>39.07</ele>
        <time>2014-12-28T09:36:02Z</time>
      </trkpt>
      <trkpt lat="47.579" lon="-0.48306">
        <ele>39.55</ele>
        <time>2014-12-28T09:36:04Z</time>
      </trkpt>
      <trkpt lat="47.57901" lon="-0.483">
        <ele>39.55</ele>
        <time>2014-12-28T09:36:05Z</time>
      </trkpt>
      <trkpt lat="47.57902" lon="-0.48293">
        <ele>40.03</ele>
        <time>2014-12-28T09:36:06Z</time>
      </trkpt>
      <trkpt lat="47.57903" lon="-0.48244">
        <ele>40.03</ele>
        <time>2014-12-28T09:36:14Z</time>
      </trkpt>
      <trkpt lat="47.57904" lon="-0.48238">
        <ele>40.03</ele>
        <time>2014-12-28T09:36:15Z</time>
      </trkpt>
      <trkpt lat="47.57908" lon="-0.48233">
        <ele>39.07</ele>
        <time>2014-12-28T09:36:16Z</time>
      </trkpt>
      <trkpt lat="47.57912" lon="-0.48229">
        <ele>39.07</ele>
        <time>2014-12-28T09:36:17Z</time>
      </trkpt>
      <trkpt lat="47.57917" lon="-0.48226">
        <ele>38.59</ele>
        <time>2014-12-28T09:36:18Z</time>
      </trkpt>
      <trkpt lat="47.57922" lon="-0.48224">
        <ele>38.59</ele>
        <time>2014-12-28T09:36:19Z</time>
      </trkpt>
      <trkpt lat="47.57963" lon="-0.48203">
        <ele>38.59</ele>
        <time>2014-12-28T09:36:27Z</time>
      </trkpt>
      <trkpt lat="47.57968" lon="-0.48199">
        <ele>38.59</ele>
        <time>2014-12-28T09:36:28Z</time>
      </trkpt>
      <trkpt lat="47.57972" lon="-0.48194">
        <ele>38.59</ele>
        <time>2014-12-28T09:36:29Z</time>
      </trkpt>
      <trkpt lat="47.57976" lon="-0.48188">
        <ele>38.59</ele>
        <time>2014-12-28T09:36:30Z</time>
      </trkpt>
      <trkpt lat="47.57979" lon="-0.48182">
        <ele>38.59</ele>
        <time>2014-12-28T09:36:31Z</time>
      </trkpt>
      <trkpt lat="47.57981" lon="-0.48174">
        <ele>39.07</ele>
        <time>2014-12-28T09:36:32Z</time>
      </trkpt>
      <trkpt lat="47.57982" lon="-0.48167">
        <ele>38.11</ele>
        <time>2014-12-28T09:36:33Z</time>
      </trkpt>
      <trkpt lat="47.57983" lon="-0.48159">
        <ele>38.59</ele>
        <time>2014-12-28T09:36:34Z</time>
      </trkpt>
      <trkpt lat="47.57983" lon="-0.4815">
        <ele>38.59</ele>
        <time>2014-12-28T09:36:35Z</time>
      </trkpt>
      <trkpt lat="47.57991" lon="-0.48073">
        <ele>39.07</ele>
        <time>2014-12-28T09:36:45Z</time>
      </trkpt>
      <trkpt lat="47.57971" lon="-0.47974">
        <ele>41.47</ele>
        <time>2014-12-28T09:37:00Z</time>
      </trkpt>
      <trkpt lat="47.57951" lon="-0.47898">
        <ele>44.84</ele>
        <time>2014-12-28T09:37:15Z</time>
      </trkpt>
      <trkpt lat="47.57946" lon="-0.47869">
        <ele>47.72</ele>
        <time>2014-12-28T09:37:22Z</time>
      </trkpt>
      <trkpt lat="47.57945" lon="-0.47831">
        <ele>51.09</ele>
        <time>2014-12-28T09:37:33Z</time>
      </trkpt>
      <trkpt lat="47.57943" lon="-0.47788">
        <ele>53.49</ele>
        <time>2014-12-28T09:37:44Z</time>
      </trkpt>
      <trkpt lat="47.57947" lon="-0.4773">
        <ele>53.49</ele>
        <time>2014-12-28T09:37:56Z</time>
      </trkpt>
      <trkpt lat="47.57949" lon="-0.47728">
        <ele>53.97</ele>
        <time>2014-12-28T09:37:57Z</time>
      </trkpt>
      <trkpt lat="47.57951" lon="-0.47727">
        <ele>53.49</ele>
        <time>2014-12-28T09:37:58Z</time>
      </trkpt>
      <trkpt lat="47.57953" lon="-0.47726">
        <ele>53.97</ele>
        <time>2014-12-28T09:37:59Z</time>
      </trkpt>
      <trkpt lat="47.57957" lon="-0.47726">
        <ele>53.49</ele>
        <time>2014-12-28T09:38:00Z</time>
      </trkpt>
      <trkpt lat="47.58005" lon="-0.4773">
        <ele>53.97</ele>
        <time>2014-12-28T09:38:13Z</time>
      </trkpt>
      <trkpt lat="47.58084" lon="-0.47719">
        <ele>52.05</ele>
        <time>2014-12-28T09:38:30Z</time>
      </trkpt>
      <trkpt lat="47.5811" lon="-0.47722">
        <ele>53.49</ele>
        <time>2014-12-28T09:38:36Z</time>
      </trkpt>
      <trkpt lat="47.58165" lon="-0.47734">
        <ele>54.45</ele>
        <time>2014-12-28T09:38:49Z</time>
      </trkpt>
      <trkpt lat="47.58169" lon="-0.47734">
        <ele>54.45</ele>
        <time>2014-12-28T09:38:50Z</time>
      </trkpt>
      <trkpt lat="47.58174" lon="-0.47734">
        <ele>54.93</ele>
        <time>2014-12-28T09:38:51Z</time>
      </trkpt>
      <trkpt lat="47.58232" lon="-0.47754">
        <ele>55.89</ele>
        <time>2014-12-28T09:39:06Z</time>
      </trkpt>
      <trkpt lat="47.58299" lon="-0.4778">
        <ele>54.93</ele>
        <time>2014-12-28T09:39:21Z</time>
      </trkpt>
      <trkpt lat="47.58309" lon="-0.47783">
        <ele>54.45</ele>
        <time>2014-12-28T09:39:23Z</time>
      </trkpt>
      <trkpt lat="47.58314" lon="-0.47783">
        <ele>54.45</ele>
        <time>2014-12-28T09:39:24Z</time>
      </trkpt>
      <trkpt lat="47.58319" lon="-0.47782">
        <ele>54.45</ele>
        <time>2014-12-28T09:39:25Z</time>
      </trkpt>
      <trkpt lat="47.58325" lon="-0.4778">
        <ele>54.45</ele>
        <time>2014-12-28T09:39:26Z</time>
      </trkpt>
      <trkpt lat="47.5833" lon="-0.47776">
        <ele>54.45</ele>
        <time>2014-12-28T09:39:27Z</time>
      </trkpt>
      <trkpt lat="47.58334" lon="-0.47773">
        <ele>54.45</ele>
        <time>2014-12-28T09:39:28Z</time>
      </trkpt>
      <trkpt lat="47.58339" lon="-0.47768">
        <ele>54.45</ele>
        <time>2014-12-28T09:39:29Z</time>
      </trkpt>
      <trkpt lat="47.58342" lon="-0.47763">
        <ele>54.45</ele>
        <time>2014-12-28T09:39:30Z</time>
      </trkpt>
      <trkpt lat="47.58345" lon="-0.47758">
        <ele>54.45</ele>
        <time>2014-12-28T09:39:31Z</time>
      </trkpt>
      <trkpt lat="47.58347" lon="-0.47751">
        <ele>53.97</ele>
        <time>2014-12-28T09:39:32Z</time>
      </trkpt>
      <trkpt lat="47.58349" lon="-0.47744">
        <ele>54.45</ele>
        <time>2014-12-28T09:39:33Z</time>
      </trkpt>
      <trkpt lat="47.5835" lon="-0.47738">
        <ele>54.93</ele>
        <time>2014-12-28T09:39:34Z</time>
      </trkpt>
      <trkpt lat="47.58351" lon="-0.47731">
        <ele>54.93</ele>
        <time>2014-12-28T09:39:35Z</time>
      </trkpt>
      <trkpt lat="47.58352" lon="-0.47725">
        <ele>54.93</ele>
        <time>2014-12-28T09:39:36Z</time>
      </trkpt>
      <trkpt lat="47.58364" lon="-0.47594">
        <ele>56.86</ele>
        <time>2014-12-28T09:39:56Z</time>
      </trkpt>
      <trkpt lat="47.58361" lon="-0.47462">
        <ele>57.34</ele>
        <time>2014-12-28T09:40:15Z</time>
      </trkpt>
      <trkpt lat="47.58334" lon="-0.47347">
        <ele>58.3</ele>
        <time>2014-12-28T09:40:32Z</time>
      </trkpt>
      <trkpt lat="47.58329" lon="-0.47328">
        <ele>58.78</ele>
        <time>2014-12-28T09:40:35Z</time>
      </trkpt>
      <trkpt lat="47.58318" lon="-0.47241">
        <ele>58.3</ele>
        <time>2014-12-28T09:40:47Z</time>
      </trkpt>
      <trkpt lat="47.58314" lon="-0.47187">
        <ele>58.3</ele>
        <time>2014-12-28T09:40:54Z</time>
      </trkpt>
      <trkpt lat="47.58312" lon="-0.47172">
        <ele>58.3</ele>
        <time>2014-12-28T09:40:56Z</time>
      </trkpt>
      <trkpt lat="47.58311" lon="-0.47165">
        <ele>57.82</ele>
        <time>2014-12-28T09:40:57Z</time>
      </trkpt>
      <trkpt lat="47.58312" lon="-0.47158">
        <ele>57.82</ele>
        <time>2014-12-28T09:40:58Z</time>
      </trkpt>
      <trkpt lat="47.58314" lon="-0.47151">
        <ele>58.3</ele>
        <time>2014-12-28T09:40:59Z</time>
      </trkpt>
      <trkpt lat="47.58317" lon="-0.47145">
        <ele>58.78</ele>
        <time>2014-12-28T09:41:00Z</time>
      </trkpt>
      <trkpt lat="47.5832" lon="-0.4714">
        <ele>58.78</ele>
        <time>2014-12-28T09:41:01Z</time>
      </trkpt>
      <trkpt lat="47.58324" lon="-0.47135">
        <ele>58.3</ele>
        <time>2014-12-28T09:41:02Z</time>
      </trkpt>
      <trkpt lat="47.58364" lon="-0.47088">
        <ele>58.3</ele>
        <time>2014-12-28T09:41:12Z</time>
      </trkpt>
      <trkpt lat="47.58368" lon="-0.47082">
        <ele>58.3</ele>
        <time>2014-12-28T09:41:13Z</time>
      </trkpt>
      <trkpt lat="47.58371" lon="-0.47076">
        <ele>58.3</ele>
        <time>2014-12-28T09:41:14Z</time>
      </trkpt>
      <trkpt lat="47.58373" lon="-0.47069">
        <ele>58.78</ele>
        <time>2014-12-28T09:41:15Z</time>
      </trkpt>
      <trkpt lat="47.58375" lon="-0.47062">
        <ele>58.78</ele>
        <time>2014-12-28T09:41:16Z</time>
      </trkpt>
      <trkpt lat="47.58377" lon="-0.47055">
        <ele>58.78</ele>
        <time>2014-12-28T09:41:17Z</time>
      </trkpt>
      <trkpt lat="47.58378" lon="-0.47048">
        <ele>58.3</ele>
        <time>2014-12-28T09:41:18Z</time>
      </trkpt>
      <trkpt lat="47.58388" lon="-0.46979">
        <ele>58.3</ele>
        <time>2014-12-28T09:41:27Z</time>
      </trkpt>
      <trkpt lat="47.5839" lon="-0.46971">
        <ele>58.3</ele>
        <time>2014-12-28T09:41:28Z</time>
      </trkpt>
      <trkpt lat="47.58392" lon="-0.46965">
        <ele>58.3</ele>
        <time>2014-12-28T09:41:29Z</time>
      </trkpt>
      <trkpt lat="47.58395" lon="-0.46959">
        <ele>58.3</ele>
        <time>2014-12-28T09:41:30Z</time>
      </trkpt>
      <trkpt lat="47.584" lon="-0.46955">
        <ele>58.3</ele>
        <time>2014-12-28T09:41:31Z</time>
      </trkpt>
      <trkpt lat="47.58404" lon="-0.46952">
        <ele>58.78</ele>
        <time>2014-12-28T09:41:32Z</time>
      </trkpt>
      <trkpt lat="47.58409" lon="-0.46949">
        <ele>58.3</ele>
        <time>2014-12-28T09:41:33Z</time>
      </trkpt>
      <trkpt lat="47.58413" lon="-0.46947">
        <ele>58.78</ele>
        <time>2014-12-28T09:41:34Z</time>
      </trkpt>
      <trkpt lat="47.58487" lon="-0.46909">
        <ele>59.74</ele>
        <time>2014-12-28T09:41:50Z</time>
      </trkpt>
      <trkpt lat="47.58504" lon="-0.46898">
        <ele>59.26</ele>
        <time>2014-12-28T09:41:54Z</time>
      </trkpt>
      <trkpt lat="47.58508" lon="-0.46896">
        <ele>59.26</ele>
        <time>2014-12-28T09:41:55Z</time>
      </trkpt>
      <trkpt lat="47.58567" lon="-0.46828">
        <ele>58.3</ele>
        <time>2014-12-28T09:42:11Z</time>
      </trkpt>
      <trkpt lat="47.58598" lon="-0.46794">
        <ele>58.3</ele>
        <time>2014-12-28T09:42:19Z</time>
      </trkpt>
      <trkpt lat="47.58603" lon="-0.46791">
        <ele>58.3</ele>
        <time>2014-12-28T09:42:20Z</time>
      </trkpt>
      <trkpt lat="47.58678" lon="-0.46761">
        <ele>59.74</ele>
        <time>2014-12-28T09:42:36Z</time>
      </trkpt>
      <trkpt lat="47.5869" lon="-0.46753">
        <ele>60.22</ele>
        <time>2014-12-28T09:42:39Z</time>
      </trkpt>
      <trkpt lat="47.58693" lon="-0.46749">
        <ele>60.22</ele>
        <time>2014-12-28T09:42:40Z</time>
      </trkpt>
      <trkpt lat="47.58693" lon="-0.46744">
        <ele>58.78</ele>
        <time>2014-12-28T09:42:41Z</time>
      </trkpt>
      <trkpt lat="47.58693" lon="-0.46738">
        <ele>58.78</ele>
        <time>2014-12-28T09:42:42Z</time>
      </trkpt>
      <trkpt lat="47.58692" lon="-0.46732">
        <ele>59.26</ele>
        <time>2014-12-28T09:42:43Z</time>
      </trkpt>
      <trkpt lat="47.58691" lon="-0.46726">
        <ele>59.26</ele>
        <time>2014-12-28T09:42:44Z</time>
      </trkpt>
      <trkpt lat="47.58683" lon="-0.46623">
        <ele>59.26</ele>
        <time>2014-12-28T09:43:00Z</time>
      </trkpt>
      <trkpt lat="47.58682" lon="-0.46603">
        <ele>59.74</ele>
        <time>2014-12-28T09:43:03Z</time>
      </trkpt>
      <trkpt lat="47.58678" lon="-0.46507">
        <ele>58.3</ele>
        <time>2014-12-28T09:43:18Z</time>
      </trkpt>
      <trkpt lat="47.58667" lon="-0.46428">
        <ele>58.78</ele>
        <time>2014-12-28T09:43:32Z</time>
      </trkpt>
      <trkpt lat="47.58667" lon="-0.46422">
        <ele>58.78</ele>
        <time>2014-12-28T09:43:33Z</time>
      </trkpt>
      <trkpt lat="47.58668" lon="-0.46417">
        <ele>58.78</ele>
        <time>2014-12-28T09:43:34Z</time>
      </trkpt>
      <trkpt lat="47.58669" lon="-0.46413">
        <ele>58.3</ele>
        <time>2014-12-28T09:43:35Z</time>
      </trkpt>
      <trkpt lat="47.58671" lon="-0.46408">
        <ele>58.3</ele>
        <time>2014-12-28T09:43:36Z</time>
      </trkpt>
      <trkpt lat="47.58673" lon="-0.46403">
        <ele>58.78</ele>
        <time>2014-12-28T09:43:37Z</time>
      </trkpt>
      <trkpt lat="47.58676" lon="-0.46399">
        <ele>58.78</ele>
        <time>2014-12-28T09:43:38Z</time>
      </trkpt>
      <trkpt lat="47.58711" lon="-0.46343">
        <ele>60.22</ele>
        <time>2014-12-28T09:43:51Z</time>
      </trkpt>
      <trkpt lat="47.58735" lon="-0.46308">
        <ele>57.82</ele>
        <time>2014-12-28T09:44:00Z</time>
      </trkpt>
      <trkpt lat="47.58737" lon="-0.46308">
        <ele>57.34</ele>
        <time>2014-12-28T09:44:01Z</time>
      </trkpt>
      <trkpt lat="47.58739" lon="-0.46309">
        <ele>57.34</ele>
        <time>2014-12-28T09:44:02Z</time>
      </trkpt>
      <trkpt lat="47.5874" lon="-0.46312">
        <ele>57.34</ele>
        <time>2014-12-28T09:44:03Z</time>
      </trkpt>
      <trkpt lat="47.58741" lon="-0.46314">
        <ele>56.86</ele>
        <time>2014-12-28T09:44:04Z</time>
      </trkpt>
      <trkpt lat="47.58742" lon="-0.46318">
        <ele>56.86</ele>
        <time>2014-12-28T09:44:05Z</time>
      </trkpt>
      <trkpt lat="47.58744" lon="-0.46321">
        <ele>57.34</ele>
        <time>2014-12-28T09:44:06Z</time>
      </trkpt>
      <trkpt lat="47.58775" lon="-0.46388">
        <ele>58.3</ele>
        <time>2014-12-28T09:44:21Z</time>
      </trkpt>
      <trkpt lat="47.58808" lon="-0.46445">
        <ele>58.3</ele>
        <time>2014-12-28T09:44:34Z</time>
      </trkpt>
      <trkpt lat="47.58845" lon="-0.46499">
        <ele>58.78</ele>
        <time>2014-12-28T09:44:47Z</time>
      </trkpt>
      <trkpt lat="47.58889" lon="-0.46565">
        <ele>59.26</ele>
        <time>2014-12-28T09:45:03Z</time>
      </trkpt>
      <trkpt lat="47.58929" lon="-0.4662">
        <ele>58.78</ele>
        <time>2014-12-28T09:45:18Z</time>
      </trkpt>
      <trkpt lat="47.58932" lon="-0.4662">
        <ele>58.78</ele>
        <time>2014-12-28T09:45:19Z</time>
      </trkpt>
      <trkpt lat="47.58935" lon="-0.46619">
        <ele>59.26</ele>
        <time>2014-12-28T09:45:20Z</time>
      </trkpt>
      <trkpt lat="47.58938" lon="-0.46616">
        <ele>59.74</ele>
        <time>2014-12-28T09:45:21Z</time>
      </trkpt>
      <trkpt lat="47.5894" lon="-0.46612">
        <ele>59.26</ele>
        <time>2014-12-28T09:45:22Z</time>
      </trkpt>
      <trkpt lat="47.58943" lon="-0.46608">
        <ele>59.74</ele>
        <time>2014-12-28T09:45:23Z</time>
      </trkpt>
      <trkpt lat="47.58946" lon="-0.46605">
        <ele>59.74</ele>
        <time>2014-12-28T09:45:24Z</time>
      </trkpt>
      <trkpt lat="47.59004" lon="-0.46535">
        <ele>58.3</ele>
        <time>2014-12-28T09:45:40Z</time>
      </trkpt>
      <trkpt lat="47.59073" lon="-0.46473">
        <ele>56.37</ele>
        <time>2014-12-28T09:45:55Z</time>
      </trkpt>
      <trkpt lat="47.59155" lon="-0.46433">
        <ele>57.34</ele>
        <time>2014-12-28T09:46:12Z</time>
      </trkpt>
      <trkpt lat="47.59158" lon="-0.4643">
        <ele>57.34</ele>
        <time>2014-12-28T09:46:13Z</time>
      </trkpt>
      <trkpt lat="47.59161" lon="-0.46427">
        <ele>57.34</ele>
        <time>2014-12-28T09:46:14Z</time>
      </trkpt>
      <trkpt lat="47.59164" lon="-0.46422">
        <ele>56.86</ele>
        <time>2014-12-28T09:46:15Z</time>
      </trkpt>
      <trkpt lat="47.59166" lon="-0.46416">
        <ele>56.86</ele>
        <time>2014-12-28T09:46:16Z</time>
      </trkpt>
      <trkpt lat="47.59168" lon="-0.46409">
        <ele>56.86</ele>
        <time>2014-12-28T09:46:17Z</time>
      </trkpt>
      <trkpt lat="47.59206" lon="-0.46294">
        <ele>55.41</ele>
        <time>2014-12-28T09:46:33Z</time>
      </trkpt>
      <trkpt lat="47.59217" lon="-0.46261">
        <ele>55.89</ele>
        <time>2014-12-28T09:46:38Z</time>
      </trkpt>
      <trkpt lat="47.59218" lon="-0.46253">
        <ele>55.89</ele>
        <time>2014-12-28T09:46:39Z</time>
      </trkpt>
      <trkpt lat="47.59218" lon="-0.46246">
        <ele>55.89</ele>
        <time>2014-12-28T09:46:40Z</time>
      </trkpt>
      <trkpt lat="47.59217" lon="-0.4623">
        <ele>55.89</ele>
        <time>2014-12-28T09:46:42Z</time>
      </trkpt>
      <trkpt lat="47.59213" lon="-0.46198">
        <ele>55.89</ele>
        <time>2014-12-28T09:46:46Z</time>
      </trkpt>
      <trkpt lat="47.59212" lon="-0.46189">
        <ele>55.89</ele>
        <time>2014-12-28T09:46:47Z</time>
      </trkpt>
      <trkpt lat="47.59212" lon="-0.46181">
        <ele>55.41</ele>
        <time>2014-12-28T09:46:48Z</time>
      </trkpt>
      <trkpt lat="47.59212" lon="-0.46173">
        <ele>55.89</ele>
        <time>2014-12-28T09:46:49Z</time>
      </trkpt>
      <trkpt lat="47.59213" lon="-0.46166">
        <ele>55.41</ele>
        <time>2014-12-28T09:46:50Z</time>
      </trkpt>
      <trkpt lat="47.59215" lon="-0.46151">
        <ele>56.37</ele>
        <time>2014-12-28T09:46:52Z</time>
      </trkpt>
      <trkpt lat="47.59225" lon="-0.46101">
        <ele>56.37</ele>
        <time>2014-12-28T09:46:59Z</time>
      </trkpt>
      <trkpt lat="47.5923" lon="-0.46078">
        <ele>55.89</ele>
        <time>2014-12-28T09:47:02Z</time>
      </trkpt>
      <trkpt lat="47.5925" lon="-0.4593">
        <ele>52.53</ele>
        <time>2014-12-28T09:47:18Z</time>
      </trkpt>
      <trkpt lat="47.59253" lon="-0.45911">
        <ele>52.05</ele>
        <time>2014-12-28T09:47:20Z</time>
      </trkpt>
      <trkpt lat="47.59262" lon="-0.45823">
        <ele>49.16</ele>
        <time>2014-12-28T09:47:28Z</time>
      </trkpt>
      <trkpt lat="47.59251" lon="-0.45721">
        <ele>46.76</ele>
        <time>2014-12-28T09:47:37Z</time>
      </trkpt>
      <trkpt lat="47.59247" lon="-0.45713">
        <ele>46.76</ele>
        <time>2014-12-28T09:47:38Z</time>
      </trkpt>
      <trkpt lat="47.59243" lon="-0.45705">
        <ele>47.24</ele>
        <time>2014-12-28T09:47:39Z</time>
      </trkpt>
      <trkpt lat="47.59212" lon="-0.45645">
        <ele>44.84</ele>
        <time>2014-12-28T09:47:49Z</time>
      </trkpt>
      <trkpt lat="47.59214" lon="-0.45639">
        <ele>44.84</ele>
        <time>2014-12-28T09:47:50Z</time>
      </trkpt>
      <trkpt lat="47.59216" lon="-0.45634">
        <ele>44.84</ele>
        <time>2014-12-28T09:47:51Z</time>
      </trkpt>
      <trkpt lat="47.59219" lon="-0.4563">
        <ele>45.32</ele>
        <time>2014-12-28T09:47:52Z</time>
      </trkpt>
      <trkpt lat="47.59222" lon="-0.45625">
        <ele>45.32</ele>
        <time>2014-12-28T09:47:53Z</time>
      </trkpt>
      <trkpt lat="47.59271" lon="-0.45552">
        <ele>48.68</ele>
        <time>2014-12-28T09:48:09Z</time>
      </trkpt>
      <trkpt lat="47.59324" lon="-0.45475">
        <ele>50.13</ele>
        <time>2014-12-28T09:48:24Z</time>
      </trkpt>
      <trkpt lat="47.59359" lon="-0.45432">
        <ele>50.13</ele>
        <time>2014-12-28T09:48:36Z</time>
      </trkpt>
      <trkpt lat="47.59372" lon="-0.45422">
        <ele>50.13</ele>
        <time>2014-12-28T09:48:39Z</time>
      </trkpt>
      <trkpt lat="47.59416" lon="-0.4537">
        <ele>48.2</ele>
        <time>2014-12-28T09:48:49Z</time>
      </trkpt>
      <trkpt lat="47.5942" lon="-0.45363">
        <ele>47.24</ele>
        <time>2014-12-28T09:48:50Z</time>
      </trkpt>
      <trkpt lat="47.59443" lon="-0.45328">
        <ele>43.4</ele>
        <time>2014-12-28T09:48:55Z</time>
      </trkpt>
      <trkpt lat="47.59467" lon="-0.45296">
        <ele>40.03</ele>
        <time>2014-12-28T09:48:59Z</time>
      </trkpt>
      <trkpt lat="47.59489" lon="-0.45268">
        <ele>36.67</ele>
        <time>2014-12-28T09:49:02Z</time>
      </trkpt>
      <trkpt lat="47.5952" lon="-0.45227">
        <ele>33.78</ele>
        <time>2014-12-28T09:49:06Z</time>
      </trkpt>
      <trkpt lat="47.59536" lon="-0.45205">
        <ele>32.34</ele>
        <time>2014-12-28T09:49:08Z</time>
      </trkpt>
      <trkpt lat="47.59573" lon="-0.45146">
        <ele>28.98</ele>
        <time>2014-12-28T09:49:13Z</time>
      </trkpt>
      <trkpt lat="47.59592" lon="-0.45111">
        <ele>27.53</ele>
        <time>2014-12-28T09:49:16Z</time>
      </trkpt>
      <trkpt lat="47.59646" lon="-0.45011">
        <ele>25.61</ele>
        <time>2014-12-28T09:49:26Z</time>
      </trkpt>
      <trkpt lat="47.59649" lon="-0.45001">
        <ele>25.13</ele>
        <time>2014-12-28T09:49:27Z</time>
      </trkpt>
      <trkpt lat="47.59651" lon="-0.4499">
        <ele>24.65</ele>
        <time>2014-12-28T09:49:28Z</time>
      </trkpt>
      <trkpt lat="47.59652" lon="-0.4498">
        <ele>25.13</ele>
        <time>2014-12-28T09:49:29Z</time>
      </trkpt>
      <trkpt lat="47.59652" lon="-0.44969">
        <ele>25.13</ele>
        <time>2014-12-28T09:49:30Z</time>
      </trkpt>
      <trkpt lat="47.59652" lon="-0.44959">
        <ele>25.13</ele>
        <time>2014-12-28T09:49:31Z</time>
      </trkpt>
      <trkpt lat="47.59658" lon="-0.44749">
        <ele>22.25</ele>
        <time>2014-12-28T09:49:52Z</time>
      </trkpt>
      <trkpt lat="47.59659" lon="-0.4469">
        <ele>23.21</ele>
        <time>2014-12-28T09:49:58Z</time>
      </trkpt>
      <trkpt lat="47.59661" lon="-0.44681">
        <ele>23.69</ele>
        <time>2014-12-28T09:49:59Z</time>
      </trkpt>
      <trkpt lat="47.59664" lon="-0.44673">
        <ele>23.21</ele>
        <time>2014-12-28T09:50:00Z</time>
      </trkpt>
      <trkpt lat="47.59667" lon="-0.44666">
        <ele>22.73</ele>
        <time>2014-12-28T09:50:01Z</time>
      </trkpt>
      <trkpt lat="47.59671" lon="-0.44659">
        <ele>23.21</ele>
        <time>2014-12-28T09:50:02Z</time>
      </trkpt>
      <trkpt lat="47.59675" lon="-0.44653">
        <ele>23.21</ele>
        <time>2014-12-28T09:50:03Z</time>
      </trkpt>
      <trkpt lat="47.59746" lon="-0.44537">
        <ele>23.69</ele>
        <time>2014-12-28T09:50:22Z</time>
      </trkpt>
      <trkpt lat="47.59802" lon="-0.44441">
        <ele>24.17</ele>
        <time>2014-12-28T09:50:37Z</time>
      </trkpt>
      <trkpt lat="47.59857" lon="-0.44345">
        <ele>24.17</ele>
        <time>2014-12-28T09:50:54Z</time>
      </trkpt>
      <trkpt lat="47.59899" lon="-0.44269">
        <ele>24.17</ele>
        <time>2014-12-28T09:51:09Z</time>
      </trkpt>
      <trkpt lat="47.59902" lon="-0.44258">
        <ele>23.69</ele>
        <time>2014-12-28T09:51:11Z</time>
      </trkpt>
      <trkpt lat="47.59901" lon="-0.44252">
        <ele>23.21</ele>
        <time>2014-12-28T09:51:12Z</time>
      </trkpt>
      <trkpt lat="47.599" lon="-0.44247">
        <ele>23.21</ele>
        <time>2014-12-28T09:51:13Z</time>
      </trkpt>
      <trkpt lat="47.59898" lon="-0.44243">
        <ele>22.73</ele>
        <time>2014-12-28T09:51:14Z</time>
      </trkpt>
      <trkpt lat="47.59895" lon="-0.4424">
        <ele>22.73</ele>
        <time>2014-12-28T09:51:15Z</time>
      </trkpt>
      <trkpt lat="47.59892" lon="-0.44237">
        <ele>23.21</ele>
        <time>2014-12-28T09:51:16Z</time>
      </trkpt>
      <trkpt lat="47.59877" lon="-0.44216">
        <ele>23.69</ele>
        <time>2014-12-28T09:51:21Z</time>
      </trkpt>
      <trkpt lat="47.59874" lon="-0.44211">
        <ele>23.21</ele>
        <time>2014-12-28T09:51:22Z</time>
      </trkpt>
      <trkpt lat="47.59821" lon="-0.44147">
        <ele>23.69</ele>
        <time>2014-12-28T09:51:35Z</time>
      </trkpt>
      <trkpt lat="47.59819" lon="-0.44141">
        <ele>23.69</ele>
        <time>2014-12-28T09:51:36Z</time>
      </trkpt>
      <trkpt lat="47.59817" lon="-0.44131">
        <ele>23.69</ele>
        <time>2014-12-28T09:51:38Z</time>
      </trkpt>
      <trkpt lat="47.59818" lon="-0.44127">
        <ele>23.21</ele>
        <time>2014-12-28T09:51:39Z</time>
      </trkpt>
      <trkpt lat="47.5982" lon="-0.44124">
        <ele>24.17</ele>
        <time>2014-12-28T09:51:40Z</time>
      </trkpt>
      <trkpt lat="47.5986" lon="-0.44058">
        <ele>23.69</ele>
        <time>2014-12-28T09:51:54Z</time>
      </trkpt>
      <trkpt lat="47.59909" lon="-0.43974">
        <ele>24.65</ele>
        <time>2014-12-28T09:52:10Z</time>
      </trkpt>
      <trkpt lat="47.59943" lon="-0.43916">
        <ele>24.65</ele>
        <time>2014-12-28T09:52:22Z</time>
      </trkpt>
      <trkpt lat="47.59986" lon="-0.4384">
        <ele>26.09</ele>
        <time>2014-12-28T09:52:38Z</time>
      </trkpt>
      <trkpt lat="47.6001" lon="-0.43801">
        <ele>26.57</ele>
        <time>2014-12-28T09:52:46Z</time>
      </trkpt>
      <trkpt lat="47.60013" lon="-0.43796">
        <ele>26.09</ele>
        <time>2014-12-28T09:52:47Z</time>
      </trkpt>
      <trkpt lat="47.60059" lon="-0.43715">
        <ele>26.57</ele>
        <time>2014-12-28T09:53:01Z</time>
      </trkpt>
      <trkpt lat="47.60114" lon="-0.43621">
        <ele>27.05</ele>
        <time>2014-12-28T09:53:19Z</time>
      </trkpt>
      <trkpt lat="47.60157" lon="-0.4355">
        <ele>28.98</ele>
        <time>2014-12-28T09:53:35Z</time>
      </trkpt>
      <trkpt lat="47.60206" lon="-0.43463">
        <ele>28.98</ele>
        <time>2014-12-28T09:53:54Z</time>
      </trkpt>
      <trkpt lat="47.60239" lon="-0.4341">
        <ele>29.46</ele>
        <time>2014-12-28T09:54:08Z</time>
      </trkpt>
      <trkpt lat="47.60279" lon="-0.43341">
        <ele>29.94</ele>
        <time>2014-12-28T09:54:26Z</time>
      </trkpt>
      <trkpt lat="47.60298" lon="-0.43307">
        <ele>30.9</ele>
        <time>2014-12-28T09:54:34Z</time>
      </trkpt>
      <trkpt lat="47.60344" lon="-0.4323">
        <ele>30.9</ele>
        <time>2014-12-28T09:54:51Z</time>
      </trkpt>
      <trkpt lat="47.6035" lon="-0.43223">
        <ele>31.38</ele>
        <time>2014-12-28T09:54:53Z</time>
      </trkpt>
      <trkpt lat="47.60354" lon="-0.43221">
        <ele>31.86</ele>
        <time>2014-12-28T09:54:54Z</time>
      </trkpt>
      <trkpt lat="47.60357" lon="-0.43222">
        <ele>31.86</ele>
        <time>2014-12-28T09:54:55Z</time>
      </trkpt>
      <trkpt lat="47.6036" lon="-0.43224">
        <ele>31.38</ele>
        <time>2014-12-28T09:54:56Z</time>
      </trkpt>
      <trkpt lat="47.60363" lon="-0.43228">
        <ele>31.86</ele>
        <time>2014-12-28T09:54:57Z</time>
      </trkpt>
      <trkpt lat="47.60367" lon="-0.43231">
        <ele>31.38</ele>
        <time>2014-12-28T09:54:58Z</time>
      </trkpt>
      <trkpt lat="47.60411" lon="-0.43278">
        <ele>31.86</ele>
        <time>2014-12-28T09:55:14Z</time>
      </trkpt>
      <trkpt lat="47.60411" lon="-0.4328">
        <ele>31.86</ele>
        <time>2014-12-28T09:55:17Z</time>
      </trkpt>
      <trkpt lat="47.60417" lon="-0.43331">
        <ele>31.86</ele>
        <time>2014-12-28T09:55:28Z</time>
      </trkpt>
      <trkpt lat="47.60414" lon="-0.43376">
        <ele>31.38</ele>
        <time>2014-12-28T09:55:40Z</time>
      </trkpt>
      <trkpt lat="47.60412" lon="-0.43376">
        <ele>30.9</ele>
        <time>2014-12-28T09:55:41Z</time>
      </trkpt>
      <trkpt lat="47.60411" lon="-0.43374">
        <ele>30.42</ele>
        <time>2014-12-28T09:55:42Z</time>
      </trkpt>
      <trkpt lat="47.60411" lon="-0.43372">
        <ele>31.38</ele>
        <time>2014-12-28T09:55:43Z</time>
      </trkpt>
      <trkpt lat="47.60412" lon="-0.4337">
        <ele>30.9</ele>
        <time>2014-12-28T09:55:44Z</time>
      </trkpt>
      <trkpt lat="47.60412" lon="-0.43368">
        <ele>31.38</ele>
        <time>2014-12-28T09:55:45Z</time>
      </trkpt>
      <trkpt lat="47.60413" lon="-0.43365">
        <ele>30.42</ele>
        <time>2014-12-28T09:55:46Z</time>
      </trkpt>
      <trkpt lat="47.60414" lon="-0.43361">
        <ele>31.86</ele>
        <time>2014-12-28T09:55:47Z</time>
      </trkpt>
      <trkpt lat="47.60418" lon="-0.43304">
        <ele>31.38</ele>
        <time>2014-12-28T09:55:56Z</time>
      </trkpt>
      <trkpt lat="47.60417" lon="-0.43298">
        <ele>30.9</ele>
        <time>2014-12-28T09:55:57Z</time>
      </trkpt>
      <trkpt lat="47.60415" lon="-0.43284">
        <ele>31.38</ele>
        <time>2014-12-28T09:55:59Z</time>
      </trkpt>
      <trkpt lat="47.60414" lon="-0.43278">
        <ele>31.38</ele>
        <time>2014-12-28T09:56:00Z</time>
      </trkpt>
      <trkpt lat="47.60416" lon="-0.43272">
        <ele>30.9</ele>
        <time>2014-12-28T09:56:01Z</time>
      </trkpt>
      <trkpt lat="47.60418" lon="-0.43267">
        <ele>30.9</ele>
        <time>2014-12-28T09:56:02Z</time>
      </trkpt>
      <trkpt lat="47.60421" lon="-0.43264">
        <ele>30.9</ele>
        <time>2014-12-28T09:56:03Z</time>
      </trkpt>
      <trkpt lat="47.60424" lon="-0.4326">
        <ele>31.38</ele>
        <time>2014-12-28T09:56:04Z</time>
      </trkpt>
      <trkpt lat="47.60427" lon="-0.43257">
        <ele>30.9</ele>
        <time>2014-12-28T09:56:05Z</time>
      </trkpt>
      <trkpt lat="47.6043" lon="-0.43253">
        <ele>30.9</ele>
        <time>2014-12-28T09:56:06Z</time>
      </trkpt>
      <trkpt lat="47.60442" lon="-0.43236">
        <ele>31.38</ele>
        <time>2014-12-28T09:56:10Z</time>
      </trkpt>
      <trkpt lat="47.6045" lon="-0.43222">
        <ele>30.9</ele>
        <time>2014-12-28T09:56:13Z</time>
      </trkpt>
      <trkpt lat="47.60451" lon="-0.43216">
        <ele>30.9</ele>
        <time>2014-12-28T09:56:14Z</time>
      </trkpt>
      <trkpt lat="47.60451" lon="-0.43209">
        <ele>30.9</ele>
        <time>2014-12-28T09:56:15Z</time>
      </trkpt>
      <trkpt lat="47.6045" lon="-0.43204">
        <ele>30.9</ele>
        <time>2014-12-28T09:56:16Z</time>
      </trkpt>
      <trkpt lat="47.60447" lon="-0.43201">
        <ele>30.9</ele>
        <time>2014-12-28T09:56:17Z</time>
      </trkpt>
      <trkpt lat="47.60444" lon="-0.43198">
        <ele>30.9</ele>
        <time>2014-12-28T09:56:18Z</time>
      </trkpt>
      <trkpt lat="47.60441" lon="-0.43194">
        <ele>31.38</ele>
        <time>2014-12-28T09:56:19Z</time>
      </trkpt>
      <trkpt lat="47.60437" lon="-0.4319">
        <ele>30.42</ele>
        <time>2014-12-28T09:56:20Z</time>
      </trkpt>
      <trkpt lat="47.60414" lon="-0.43171">
        <ele>30.9</ele>
        <time>2014-12-28T09:56:26Z</time>
      </trkpt>
      <trkpt lat="47.60373" lon="-0.43144">
        <ele>31.38</ele>
        <time>2014-12-28T09:56:36Z</time>
      </trkpt>
      <trkpt lat="47.60368" lon="-0.43144">
        <ele>31.38</ele>
        <time>2014-12-28T09:56:37Z</time>
      </trkpt>
      <trkpt lat="47.60364" lon="-0.43145">
        <ele>30.9</ele>
        <time>2014-12-28T09:56:38Z</time>
      </trkpt>
      <trkpt lat="47.60348" lon="-0.43147">
        <ele>30.9</ele>
        <time>2014-12-28T09:56:42Z</time>
      </trkpt>
      <trkpt lat="47.60344" lon="-0.43147">
        <ele>30.9</ele>
        <time>2014-12-28T09:56:43Z</time>
      </trkpt>
      <trkpt lat="47.6034" lon="-0.43148">
        <ele>30.9</ele>
        <time>2014-12-28T09:56:44Z</time>
      </trkpt>
      <trkpt lat="47.60337" lon="-0.43146">
        <ele>30.9</ele>
        <time>2014-12-28T09:56:45Z</time>
      </trkpt>
      <trkpt lat="47.60334" lon="-0.43143">
        <ele>30.9</ele>
        <time>2014-12-28T09:56:46Z</time>
      </trkpt>
      <trkpt lat="47.60332" lon="-0.43138">
        <ele>30.9</ele>
        <time>2014-12-28T09:56:47Z</time>
      </trkpt>
      <trkpt lat="47.6033" lon="-0.43133">
        <ele>30.9</ele>
        <time>2014-12-28T09:56:48Z</time>
      </trkpt>
      <trkpt lat="47.60329" lon="-0.43127">
        <ele>30.9</ele>
        <time>2014-12-28T09:56:49Z</time>
      </trkpt>
      <trkpt lat="47.60327" lon="-0.43122">
        <ele>30.9</ele>
        <time>2014-12-28T09:56:50Z</time>
      </trkpt>
      <trkpt lat="47.60309" lon="-0.43068">
        <ele>29.94</ele>
        <time>2014-12-28T09:57:00Z</time>
      </trkpt>
      <trkpt lat="47.6031" lon="-0.43063">
        <ele>30.42</ele>
        <time>2014-12-28T09:57:01Z</time>
      </trkpt>
      <trkpt lat="47.60312" lon="-0.43059">
        <ele>31.38</ele>
        <time>2014-12-28T09:57:02Z</time>
      </trkpt>
      <trkpt lat="47.60316" lon="-0.43057">
        <ele>31.38</ele>
        <time>2014-12-28T09:57:03Z</time>
      </trkpt>
      <trkpt lat="47.6032" lon="-0.43053">
        <ele>31.38</ele>
        <time>2014-12-28T09:57:04Z</time>
      </trkpt>
      <trkpt lat="47.60339" lon="-0.43037">
        <ele>31.86</ele>
        <time>2014-12-28T09:57:09Z</time>
      </trkpt>
      <trkpt lat="47.60356" lon="-0.43003">
        <ele>31.86</ele>
        <time>2014-12-28T09:57:16Z</time>
      </trkpt>
      <trkpt lat="47.60358" lon="-0.42997">
        <ele>31.86</ele>
        <time>2014-12-28T09:57:17Z</time>
      </trkpt>
      <trkpt lat="47.6037" lon="-0.42952">
        <ele>32.34</ele>
        <time>2014-12-28T09:57:25Z</time>
      </trkpt>
      <trkpt lat="47.60371" lon="-0.42945">
        <ele>32.34</ele>
        <time>2014-12-28T09:57:26Z</time>
      </trkpt>
      <trkpt lat="47.60371" lon="-0.42938">
        <ele>31.38</ele>
        <time>2014-12-28T09:57:27Z</time>
      </trkpt>
      <trkpt lat="47.60372" lon="-0.42931">
        <ele>31.38</ele>
        <time>2014-12-28T09:57:28Z</time>
      </trkpt>
      <trkpt lat="47.60372" lon="-0.42925">
        <ele>31.38</ele>
        <time>2014-12-28T09:57:29Z</time>
      </trkpt>
      <trkpt lat="47.60373" lon="-0.42919">
        <ele>31.38</ele>
        <time>2014-12-28T09:57:30Z</time>
      </trkpt>
      <trkpt lat="47.60374" lon="-0.42913">
        <ele>31.86</ele>
        <time>2014-12-28T09:57:31Z</time>
      </trkpt>
      <trkpt lat="47.60378" lon="-0.42903">
        <ele>32.34</ele>
        <time>2014-12-28T09:57:33Z</time>
      </trkpt>
      <trkpt lat="47.60387" lon="-0.42889">
        <ele>32.34</ele>
        <time>2014-12-28T09:57:36Z</time>
      </trkpt>
      <trkpt lat="47.60389" lon="-0.42884">
        <ele>31.86</ele>
        <time>2014-12-28T09:57:37Z</time>
      </trkpt>
      <trkpt lat="47.60392" lon="-0.42879">
        <ele>31.86</ele>
        <time>2014-12-28T09:57:38Z</time>
      </trkpt>
      <trkpt lat="47.60396" lon="-0.42876">
        <ele>31.38</ele>
        <time>2014-12-28T09:57:39Z</time>
      </trkpt>
      <trkpt lat="47.604" lon="-0.42875">
        <ele>31.38</ele>
        <time>2014-12-28T09:57:40Z</time>
      </trkpt>
      <trkpt lat="47.60404" lon="-0.42874">
        <ele>31.86</ele>
        <time>2014-12-28T09:57:41Z</time>
      </trkpt>
      <trkpt lat="47.60408" lon="-0.42874">
        <ele>32.34</ele>
        <time>2014-12-28T09:57:42Z</time>
      </trkpt>
      <trkpt lat="47.60412" lon="-0.42874">
        <ele>32.34</ele>
        <time>2014-12-28T09:57:43Z</time>
      </trkpt>
      <trkpt lat="47.60416" lon="-0.42872">
        <ele>32.34</ele>
        <time>2014-12-28T09:57:44Z</time>
      </trkpt>
      <trkpt lat="47.60452" lon="-0.42861">
        <ele>31.86</ele>
        <time>2014-12-28T09:57:53Z</time>
      </trkpt>
      <trkpt lat="47.60496" lon="-0.42835">
        <ele>31.38</ele>
        <time>2014-12-28T09:58:05Z</time>
      </trkpt>
      <trkpt lat="47.60542" lon="-0.42814">
        <ele>32.34</ele>
        <time>2014-12-28T09:58:16Z</time>
      </trkpt>
      <trkpt lat="47.60569" lon="-0.42792">
        <ele>31.86</ele>
        <time>2014-12-28T09:58:25Z</time>
      </trkpt>
      <trkpt lat="47.60585" lon="-0.42797">
        <ele>32.34</ele>
        <time>2014-12-28T09:58:31Z</time>
      </trkpt>
      <trkpt lat="47.60592" lon="-0.42771">
        <ele>32.34</ele>
        <time>2014-12-28T09:58:38Z</time>
      </trkpt>
      <trkpt lat="47.60592" lon="-0.42767">
        <ele>32.34</ele>
        <time>2014-12-28T09:58:39Z</time>
      </trkpt>
      <trkpt lat="47.60591" lon="-0.42763">
        <ele>32.34</ele>
        <time>2014-12-28T09:58:40Z</time>
      </trkpt>
      <trkpt lat="47.6059" lon="-0.42761">
        <ele>32.34</ele>
        <time>2014-12-28T09:58:41Z</time>
      </trkpt>
      <trkpt lat="47.60588" lon="-0.42761">
        <ele>31.86</ele>
        <time>2014-12-28T09:58:42Z</time>
      </trkpt>
      <trkpt lat="47.60586" lon="-0.42761">
        <ele>32.34</ele>
        <time>2014-12-28T09:58:52Z</time>
      </trkpt>
      <trkpt lat="47.60586" lon="-0.42759">
        <ele>32.34</ele>
        <time>2014-12-28T09:59:20Z</time>
      </trkpt>
      <trkpt lat="47.60587" lon="-0.4276">
        <ele>31.38</ele>
        <time>2014-12-28T09:59:42Z</time>
      </trkpt>
      <trkpt lat="47.60587" lon="-0.42759">
        <ele>32.34</ele>
        <time>2014-12-28T10:00:29Z</time>
      </trkpt>
      <trkpt lat="47.60586" lon="-0.42753">
        <ele>31.86</ele>
        <time>2014-12-28T10:01:10Z</time>
      </trkpt>
      <trkpt lat="47.60587" lon="-0.42759">
        <ele>32.82</ele>
        <time>2014-12-28T10:01:22Z</time>
      </trkpt>
      <trkpt lat="47.60586" lon="-0.42763">
        <ele>32.82</ele>
        <time>2014-12-28T10:01:33Z</time>
      </trkpt>
      <trkpt lat="47.60585" lon="-0.42764">
        <ele>32.82</ele>
        <time>2014-12-28T10:01:34Z</time>
      </trkpt>
      <trkpt lat="47.60584" lon="-0.42765">
        <ele>32.82</ele>
        <time>2014-12-28T10:01:35Z</time>
      </trkpt>
      <trkpt lat="47.60583" lon="-0.42766">
        <ele>32.82</ele>
        <time>2014-12-28T10:01:36Z</time>
      </trkpt>
      <trkpt lat="47.60581" lon="-0.42767">
        <ele>32.82</ele>
        <time>2014-12-28T10:01:37Z</time>
      </trkpt>
      <trkpt lat="47.60579" lon="-0.42769">
        <ele>32.82</ele>
        <time>2014-12-28T10:01:38Z</time>
      </trkpt>
      <trkpt lat="47.60577" lon="-0.42769">
        <ele>32.82</ele>
        <time>2014-12-28T10:01:39Z</time>
      </trkpt>
      <trkpt lat="47.60574" lon="-0.4277">
        <ele>32.82</ele>
        <time>2014-12-28T10:01:40Z</time>
      </trkpt>
      <trkpt lat="47.60541" lon="-0.42785">
        <ele>32.34</ele>
        <time>2014-12-28T10:01:51Z</time>
      </trkpt>
      <trkpt lat="47.60537" lon="-0.42787">
        <ele>32.34</ele>
        <time>2014-12-28T10:01:52Z</time>
      </trkpt>
      <trkpt lat="47.60533" lon="-0.4279">
        <ele>31.86</ele>
        <time>2014-12-28T10:01:53Z</time>
      </trkpt>
      <trkpt lat="47.60498" lon="-0.42809">
        <ele>32.34</ele>
        <time>2014-12-28T10:02:01Z</time>
      </trkpt>
      <trkpt lat="47.60493" lon="-0.42811">
        <ele>32.34</ele>
        <time>2014-12-28T10:02:02Z</time>
      </trkpt>
      <trkpt lat="47.60478" lon="-0.42816">
        <ele>31.86</ele>
        <time>2014-12-28T10:02:05Z</time>
      </trkpt>
      <trkpt lat="47.60395" lon="-0.42807">
        <ele>32.82</ele>
        <time>2014-12-28T10:02:22Z</time>
      </trkpt>
      <trkpt lat="47.60365" lon="-0.42801">
        <ele>32.34</ele>
        <time>2014-12-28T10:02:28Z</time>
      </trkpt>
      <trkpt lat="47.60287" lon="-0.42816">
        <ele>32.82</ele>
        <time>2014-12-28T10:02:44Z</time>
      </trkpt>
      <trkpt lat="47.60214" lon="-0.42868">
        <ele>32.82</ele>
        <time>2014-12-28T10:03:00Z</time>
      </trkpt>
      <trkpt lat="47.6021" lon="-0.42872">
        <ele>32.34</ele>
        <time>2014-12-28T10:03:01Z</time>
      </trkpt>
      <trkpt lat="47.60207" lon="-0.42876">
        <ele>32.34</ele>
        <time>2014-12-28T10:03:02Z</time>
      </trkpt>
      <trkpt lat="47.60203" lon="-0.42879">
        <ele>32.34</ele>
        <time>2014-12-28T10:03:03Z</time>
      </trkpt>
      <trkpt lat="47.60198" lon="-0.42881">
        <ele>32.34</ele>
        <time>2014-12-28T10:03:04Z</time>
      </trkpt>
      <trkpt lat="47.6019" lon="-0.42869">
        <ele>32.34</ele>
        <time>2014-12-28T10:03:07Z</time>
      </trkpt>
      <trkpt lat="47.60184" lon="-0.42847">
        <ele>32.34</ele>
        <time>2014-12-28T10:03:11Z</time>
      </trkpt>
      <trkpt lat="47.60183" lon="-0.42818">
        <ele>33.3</ele>
        <time>2014-12-28T10:03:16Z</time>
      </trkpt>
      <trkpt lat="47.60202" lon="-0.4275">
        <ele>33.78</ele>
        <time>2014-12-28T10:03:30Z</time>
      </trkpt>
      <trkpt lat="47.6021" lon="-0.42694">
        <ele>33.3</ele>
        <time>2014-12-28T10:03:41Z</time>
      </trkpt>
      <trkpt lat="47.60237" lon="-0.42629">
        <ele>34.26</ele>
        <time>2014-12-28T10:03:55Z</time>
      </trkpt>
      <trkpt lat="47.60257" lon="-0.42571">
        <ele>34.26</ele>
        <time>2014-12-28T10:04:08Z</time>
      </trkpt>
      <trkpt lat="47.60266" lon="-0.4249">
        <ele>34.26</ele>
        <time>2014-12-28T10:04:24Z</time>
      </trkpt>
      <trkpt lat="47.60255" lon="-0.42442">
        <ele>34.74</ele>
        <time>2014-12-28T10:04:35Z</time>
      </trkpt>
      <trkpt lat="47.60226" lon="-0.42404">
        <ele>35.71</ele>
        <time>2014-12-28T10:04:48Z</time>
      </trkpt>
      <trkpt lat="47.602" lon="-0.42401">
        <ele>36.67</ele>
        <time>2014-12-28T10:04:58Z</time>
      </trkpt>
      <trkpt lat="47.60196" lon="-0.42397">
        <ele>36.19</ele>
        <time>2014-12-28T10:05:00Z</time>
      </trkpt>
      <trkpt lat="47.60198" lon="-0.42384">
        <ele>36.67</ele>
        <time>2014-12-28T10:05:04Z</time>
      </trkpt>
      <trkpt lat="47.60192" lon="-0.42373">
        <ele>36.67</ele>
        <time>2014-12-28T10:05:08Z</time>
      </trkpt>
      <trkpt lat="47.60155" lon="-0.42344">
        <ele>36.19</ele>
        <time>2014-12-28T10:05:21Z</time>
      </trkpt>
      <trkpt lat="47.60116" lon="-0.42347">
        <ele>37.15</ele>
        <time>2014-12-28T10:05:35Z</time>
      </trkpt>
      <trkpt lat="47.60091" lon="-0.4236">
        <ele>37.63</ele>
        <time>2014-12-28T10:05:44Z</time>
      </trkpt>
      <trkpt lat="47.60045" lon="-0.42389">
        <ele>37.15</ele>
        <time>2014-12-28T10:05:59Z</time>
      </trkpt>
      <trkpt lat="47.60004" lon="-0.42421">
        <ele>37.15</ele>
        <time>2014-12-28T10:06:13Z</time>
      </trkpt>
      <trkpt lat="47.59984" lon="-0.42458">
        <ele>37.15</ele>
        <time>2014-12-28T10:06:23Z</time>
      </trkpt>
      <trkpt lat="47.59962" lon="-0.42546">
        <ele>36.67</ele>
        <time>2014-12-28T10:06:39Z</time>
      </trkpt>
      <trkpt lat="47.59931" lon="-0.42568">
        <ele>37.15</ele>
        <time>2014-12-28T10:06:48Z</time>
      </trkpt>
      <trkpt lat="47.59892" lon="-0.42589">
        <ele>37.15</ele>
        <time>2014-12-28T10:06:59Z</time>
      </trkpt>
      <trkpt lat="47.59888" lon="-0.42588">
        <ele>36.67</ele>
        <time>2014-12-28T10:07:00Z</time>
      </trkpt>
      <trkpt lat="47.5987" lon="-0.42592">
        <ele>36.67</ele>
        <time>2014-12-28T10:07:05Z</time>
      </trkpt>
      <trkpt lat="47.59868" lon="-0.42596">
        <ele>36.67</ele>
        <time>2014-12-28T10:07:06Z</time>
      </trkpt>
      <trkpt lat="47.59866" lon="-0.42602">
        <ele>37.15</ele>
        <time>2014-12-28T10:07:07Z</time>
      </trkpt>
      <trkpt lat="47.59864" lon="-0.42607">
        <ele>37.63</ele>
        <time>2014-12-28T10:07:08Z</time>
      </trkpt>
      <trkpt lat="47.59862" lon="-0.42613">
        <ele>37.15</ele>
        <time>2014-12-28T10:07:09Z</time>
      </trkpt>
      <trkpt lat="47.59842" lon="-0.42694">
        <ele>37.15</ele>
        <time>2014-12-28T10:07:23Z</time>
      </trkpt>
      <trkpt lat="47.59843" lon="-0.427">
        <ele>38.11</ele>
        <time>2014-12-28T10:07:24Z</time>
      </trkpt>
      <trkpt lat="47.59846" lon="-0.42725">
        <ele>38.11</ele>
        <time>2014-12-28T10:07:28Z</time>
      </trkpt>
      <trkpt lat="47.59846" lon="-0.42732">
        <ele>37.63</ele>
        <time>2014-12-28T10:07:29Z</time>
      </trkpt>
      <trkpt lat="47.59845" lon="-0.42738">
        <ele>37.63</ele>
        <time>2014-12-28T10:07:30Z</time>
      </trkpt>
      <trkpt lat="47.59843" lon="-0.42744">
        <ele>37.15</ele>
        <time>2014-12-28T10:07:31Z</time>
      </trkpt>
      <trkpt lat="47.5984" lon="-0.42749">
        <ele>37.63</ele>
        <time>2014-12-28T10:07:32Z</time>
      </trkpt>
      <trkpt lat="47.59831" lon="-0.42773">
        <ele>38.11</ele>
        <time>2014-12-28T10:07:36Z</time>
      </trkpt>
      <trkpt lat="47.59806" lon="-0.42904">
        <ele>37.63</ele>
        <time>2014-12-28T10:07:54Z</time>
      </trkpt>
      <trkpt lat="47.59804" lon="-0.42918">
        <ele>38.11</ele>
        <time>2014-12-28T10:07:56Z</time>
      </trkpt>
      <trkpt lat="47.59803" lon="-0.42925">
        <ele>37.63</ele>
        <time>2014-12-28T10:07:57Z</time>
      </trkpt>
      <trkpt lat="47.59803" lon="-0.42932">
        <ele>38.11</ele>
        <time>2014-12-28T10:07:58Z</time>
      </trkpt>
      <trkpt lat="47.59804" lon="-0.42938">
        <ele>37.63</ele>
        <time>2014-12-28T10:07:59Z</time>
      </trkpt>
      <trkpt lat="47.59804" lon="-0.42944">
        <ele>38.11</ele>
        <time>2014-12-28T10:08:00Z</time>
      </trkpt>
      <trkpt lat="47.59805" lon="-0.42948">
        <ele>38.11</ele>
        <time>2014-12-28T10:08:01Z</time>
      </trkpt>
      <trkpt lat="47.59805" lon="-0.42952">
        <ele>37.63</ele>
        <time>2014-12-28T10:08:02Z</time>
      </trkpt>
      <trkpt lat="47.59805" lon="-0.42954">
        <ele>37.63</ele>
        <time>2014-12-28T10:08:03Z</time>
      </trkpt>
      <trkpt lat="47.59807" lon="-0.42958">
        <ele>38.11</ele>
        <time>2014-12-28T10:08:13Z</time>
      </trkpt>
      <trkpt lat="47.59807" lon="-0.42959">
        <ele>37.63</ele>
        <time>2014-12-28T10:08:35Z</time>
      </trkpt>
      <trkpt lat="47.59807" lon="-0.42964">
        <ele>37.15</ele>
        <time>2014-12-28T10:08:38Z</time>
      </trkpt>
      <trkpt lat="47.59807" lon="-0.42966">
        <ele>37.63</ele>
        <time>2014-12-28T10:08:39Z</time>
      </trkpt>
      <trkpt lat="47.59806" lon="-0.42969">
        <ele>36.67</ele>
        <time>2014-12-28T10:08:40Z</time>
      </trkpt>
      <trkpt lat="47.59805" lon="-0.42971">
        <ele>36.67</ele>
        <time>2014-12-28T10:08:41Z</time>
      </trkpt>
      <trkpt lat="47.59803" lon="-0.42973">
        <ele>36.67</ele>
        <time>2014-12-28T10:08:42Z</time>
      </trkpt>
      <trkpt lat="47.59802" lon="-0.42974">
        <ele>37.15</ele>
        <time>2014-12-28T10:08:43Z</time>
      </trkpt>
      <trkpt lat="47.598" lon="-0.42975">
        <ele>37.63</ele>
        <time>2014-12-28T10:08:44Z</time>
      </trkpt>
      <trkpt lat="47.59798" lon="-0.42976">
        <ele>36.67</ele>
        <time>2014-12-28T10:08:45Z</time>
      </trkpt>
      <trkpt lat="47.59796" lon="-0.42975">
        <ele>37.63</ele>
        <time>2014-12-28T10:08:46Z</time>
      </trkpt>
      <trkpt lat="47.59763" lon="-0.42965">
        <ele>38.59</ele>
        <time>2014-12-28T10:08:58Z</time>
      </trkpt>
      <trkpt lat="47.59716" lon="-0.42954">
        <ele>39.55</ele>
        <time>2014-12-28T10:09:12Z</time>
      </trkpt>
      <trkpt lat="47.59681" lon="-0.42938">
        <ele>39.07</ele>
        <time>2014-12-28T10:09:25Z</time>
      </trkpt>
      <trkpt lat="47.59682" lon="-0.42938">
        <ele>39.07</ele>
        <time>2014-12-28T10:09:27Z</time>
      </trkpt>
      <trkpt lat="47.59684" lon="-0.42935">
        <ele>39.07</ele>
        <time>2014-12-28T10:09:29Z</time>
      </trkpt>
      <trkpt lat="47.59683" lon="-0.42933">
        <ele>39.55</ele>
        <time>2014-12-28T10:09:30Z</time>
      </trkpt>
      <trkpt lat="47.59682" lon="-0.42933">
        <ele>39.07</ele>
        <time>2014-12-28T10:09:31Z</time>
      </trkpt>
      <trkpt lat="47.59681" lon="-0.42932">
        <ele>39.55</ele>
        <time>2014-12-28T10:09:32Z</time>
      </trkpt>
      <trkpt lat="47.59681" lon="-0.42928">
        <ele>39.07</ele>
        <time>2014-12-28T10:09:38Z</time>
      </trkpt>
      <trkpt lat="47.59691" lon="-0.42922">
        <ele>39.07</ele>
        <time>2014-12-28T10:09:49Z</time>
      </trkpt>
      <trkpt lat="47.59692" lon="-0.4292">
        <ele>39.07</ele>
        <time>2014-12-28T10:09:50Z</time>
      </trkpt>
      <trkpt lat="47.59691" lon="-0.42917">
        <ele>39.07</ele>
        <time>2014-12-28T10:10:01Z</time>
      </trkpt>
      <trkpt lat="47.5971" lon="-0.4286">
        <ele>39.55</ele>
        <time>2014-12-28T10:10:13Z</time>
      </trkpt>
      <trkpt lat="47.59717" lon="-0.42835">
        <ele>39.55</ele>
        <time>2014-12-28T10:10:17Z</time>
      </trkpt>
      <trkpt lat="47.59728" lon="-0.42805">
        <ele>39.07</ele>
        <time>2014-12-28T10:10:22Z</time>
      </trkpt>
      <trkpt lat="47.59736" lon="-0.42776">
        <ele>39.07</ele>
        <time>2014-12-28T10:10:27Z</time>
      </trkpt>
      <trkpt lat="47.59739" lon="-0.42771">
        <ele>39.07</ele>
        <time>2014-12-28T10:10:28Z</time>
      </trkpt>
      <trkpt lat="47.59768" lon="-0.42675">
        <ele>39.07</ele>
        <time>2014-12-28T10:10:44Z</time>
      </trkpt>
      <trkpt lat="47.59772" lon="-0.42663">
        <ele>39.07</ele>
        <time>2014-12-28T10:10:46Z</time>
      </trkpt>
      <trkpt lat="47.59802" lon="-0.42567">
        <ele>38.59</ele>
        <time>2014-12-28T10:11:01Z</time>
      </trkpt>
      <trkpt lat="47.59828" lon="-0.42488">
        <ele>38.59</ele>
        <time>2014-12-28T10:11:14Z</time>
      </trkpt>
      <trkpt lat="47.59856" lon="-0.42395">
        <ele>38.11</ele>
        <time>2014-12-28T10:11:29Z</time>
      </trkpt>
      <trkpt lat="47.59879" lon="-0.42319">
        <ele>36.67</ele>
        <time>2014-12-28T10:11:42Z</time>
      </trkpt>
      <trkpt lat="47.59896" lon="-0.42264">
        <ele>37.15</ele>
        <time>2014-12-28T10:11:54Z</time>
      </trkpt>
      <trkpt lat="47.59916" lon="-0.42192">
        <ele>37.63</ele>
        <time>2014-12-28T10:12:08Z</time>
      </trkpt>
      <trkpt lat="47.5994" lon="-0.42132">
        <ele>37.63</ele>
        <time>2014-12-28T10:12:22Z</time>
      </trkpt>
      <trkpt lat="47.59942" lon="-0.4213">
        <ele>37.63</ele>
        <time>2014-12-28T10:12:23Z</time>
      </trkpt>
      <trkpt lat="47.59943" lon="-0.42127">
        <ele>37.63</ele>
        <time>2014-12-28T10:12:24Z</time>
      </trkpt>
      <trkpt lat="47.59943" lon="-0.42122">
        <ele>37.63</ele>
        <time>2014-12-28T10:12:25Z</time>
      </trkpt>
      <trkpt lat="47.59942" lon="-0.42118">
        <ele>38.11</ele>
        <time>2014-12-28T10:12:26Z</time>
      </trkpt>
      <trkpt lat="47.5994" lon="-0.42114">
        <ele>37.63</ele>
        <time>2014-12-28T10:12:27Z</time>
      </trkpt>
      <trkpt lat="47.5994" lon="-0.4211">
        <ele>37.63</ele>
        <time>2014-12-28T10:12:28Z</time>
      </trkpt>
      <trkpt lat="47.5994" lon="-0.42105">
        <ele>38.59</ele>
        <time>2014-12-28T10:12:29Z</time>
      </trkpt>
      <trkpt lat="47.59941" lon="-0.42099">
        <ele>38.59</ele>
        <time>2014-12-28T10:12:30Z</time>
      </trkpt>
      <trkpt lat="47.59942" lon="-0.42094">
        <ele>38.59</ele>
        <time>2014-12-28T10:12:31Z</time>
      </trkpt>
      <trkpt lat="47.59966" lon="-0.42031">
        <ele>38.59</ele>
        <time>2014-12-28T10:12:42Z</time>
      </trkpt>
      <trkpt lat="47.60003" lon="-0.41913">
        <ele>36.67</ele>
        <time>2014-12-28T10:13:00Z</time>
      </trkpt>
      <trkpt lat="47.60009" lon="-0.41891">
        <ele>35.71</ele>
        <time>2014-12-28T10:13:03Z</time>
      </trkpt>
      <trkpt lat="47.60025" lon="-0.41833">
        <ele>31.86</ele>
        <time>2014-12-28T10:13:11Z</time>
      </trkpt>
      <trkpt lat="47.60026" lon="-0.41827">
        <ele>31.86</ele>
        <time>2014-12-28T10:13:12Z</time>
      </trkpt>
      <trkpt lat="47.60026" lon="-0.41784">
        <ele>29.46</ele>
        <time>2014-12-28T10:13:21Z</time>
      </trkpt>
      <trkpt lat="47.60015" lon="-0.4177">
        <ele>28.98</ele>
        <time>2014-12-28T10:13:26Z</time>
      </trkpt>
      <trkpt lat="47.60016" lon="-0.41769">
        <ele>28.98</ele>
        <time>2014-12-28T10:13:27Z</time>
      </trkpt>
      <trkpt lat="47.60019" lon="-0.41772">
        <ele>29.46</ele>
        <time>2014-12-28T10:13:29Z</time>
      </trkpt>
      <trkpt lat="47.6002" lon="-0.41775">
        <ele>29.94</ele>
        <time>2014-12-28T10:13:30Z</time>
      </trkpt>
      <trkpt lat="47.60022" lon="-0.41779">
        <ele>29.46</ele>
        <time>2014-12-28T10:13:31Z</time>
      </trkpt>
      <trkpt lat="47.60023" lon="-0.41783">
        <ele>29.46</ele>
        <time>2014-12-28T10:13:32Z</time>
      </trkpt>
      <trkpt lat="47.6003" lon="-0.41796">
        <ele>29.46</ele>
        <time>2014-12-28T10:13:36Z</time>
      </trkpt>
      <trkpt lat="47.60032" lon="-0.41795">
        <ele>29.94</ele>
        <time>2014-12-28T10:13:37Z</time>
      </trkpt>
      <trkpt lat="47.60039" lon="-0.41776">
        <ele>29.46</ele>
        <time>2014-12-28T10:13:41Z</time>
      </trkpt>
      <trkpt lat="47.60045" lon="-0.41749">
        <ele>28.98</ele>
        <time>2014-12-28T10:13:45Z</time>
      </trkpt>
      <trkpt lat="47.60066" lon="-0.41671">
        <ele>25.61</ele>
        <time>2014-12-28T10:13:57Z</time>
      </trkpt>
      <trkpt lat="47.60083" lon="-0.41615">
        <ele>25.13</ele>
        <time>2014-12-28T10:14:06Z</time>
      </trkpt>
      <trkpt lat="47.60104" lon="-0.41535">
        <ele>24.17</ele>
        <time>2014-12-28T10:14:19Z</time>
      </trkpt>
      <trkpt lat="47.6012" lon="-0.41477">
        <ele>24.17</ele>
        <time>2014-12-28T10:14:30Z</time>
      </trkpt>
      <trkpt lat="47.60119" lon="-0.41471">
        <ele>24.17</ele>
        <time>2014-12-28T10:14:31Z</time>
      </trkpt>
      <trkpt lat="47.60118" lon="-0.41466">
        <ele>24.17</ele>
        <time>2014-12-28T10:14:32Z</time>
      </trkpt>
      <trkpt lat="47.60115" lon="-0.41461">
        <ele>24.17</ele>
        <time>2014-12-28T10:14:33Z</time>
      </trkpt>
      <trkpt lat="47.60112" lon="-0.41457">
        <ele>24.65</ele>
        <time>2014-12-28T10:14:34Z</time>
      </trkpt>
      <trkpt lat="47.60108" lon="-0.41455">
        <ele>24.65</ele>
        <time>2014-12-28T10:14:35Z</time>
      </trkpt>
      <trkpt lat="47.60105" lon="-0.41451">
        <ele>24.17</ele>
        <time>2014-12-28T10:14:36Z</time>
      </trkpt>
      <trkpt lat="47.60103" lon="-0.41447">
        <ele>24.65</ele>
        <time>2014-12-28T10:14:37Z</time>
      </trkpt>
      <trkpt lat="47.60101" lon="-0.41442">
        <ele>24.17</ele>
        <time>2014-12-28T10:14:38Z</time>
      </trkpt>
      <trkpt lat="47.60058" lon="-0.41387">
        <ele>23.69</ele>
        <time>2014-12-28T10:14:52Z</time>
      </trkpt>
      <trkpt lat="47.60054" lon="-0.41354">
        <ele>24.65</ele>
        <time>2014-12-28T10:15:01Z</time>
      </trkpt>
      <trkpt lat="47.60087" lon="-0.41298">
        <ele>25.13</ele>
        <time>2014-12-28T10:15:14Z</time>
      </trkpt>
      <trkpt lat="47.60133" lon="-0.41217">
        <ele>23.69</ele>
        <time>2014-12-28T10:15:29Z</time>
      </trkpt>
      <trkpt lat="47.60188" lon="-0.41125">
        <ele>25.13</ele>
        <time>2014-12-28T10:15:46Z</time>
      </trkpt>
      <trkpt lat="47.60253" lon="-0.41022">
        <ele>27.05</ele>
        <time>2014-12-28T10:16:06Z</time>
      </trkpt>
      <trkpt lat="47.60262" lon="-0.41007">
        <ele>24.65</ele>
        <time>2014-12-28T10:16:09Z</time>
      </trkpt>
      <trkpt lat="47.60321" lon="-0.40913">
        <ele>24.65</ele>
        <time>2014-12-28T10:16:27Z</time>
      </trkpt>
      <trkpt lat="47.6039" lon="-0.40801">
        <ele>25.13</ele>
        <time>2014-12-28T10:16:49Z</time>
      </trkpt>
      <trkpt lat="47.6046" lon="-0.40688">
        <ele>25.61</ele>
        <time>2014-12-28T10:17:10Z</time>
      </trkpt>
      <trkpt lat="47.60515" lon="-0.406">
        <ele>25.61</ele>
        <time>2014-12-28T10:17:28Z</time>
      </trkpt>
      <trkpt lat="47.6056" lon="-0.40528">
        <ele>26.57</ele>
        <time>2014-12-28T10:17:45Z</time>
      </trkpt>
      <trkpt lat="47.60559" lon="-0.40524">
        <ele>26.57</ele>
        <time>2014-12-28T10:17:46Z</time>
      </trkpt>
      <trkpt lat="47.60557" lon="-0.40521">
        <ele>26.57</ele>
        <time>2014-12-28T10:17:47Z</time>
      </trkpt>
      <trkpt lat="47.60554" lon="-0.40521">
        <ele>26.57</ele>
        <time>2014-12-28T10:17:48Z</time>
      </trkpt>
      <trkpt lat="47.6055" lon="-0.40521">
        <ele>26.09</ele>
        <time>2014-12-28T10:17:49Z</time>
      </trkpt>
      <trkpt lat="47.60523" lon="-0.4052">
        <ele>27.05</ele>
        <time>2014-12-28T10:17:56Z</time>
      </trkpt>
      <trkpt lat="47.6045" lon="-0.40506">
        <ele>27.05</ele>
        <time>2014-12-28T10:18:11Z</time>
      </trkpt>
      <trkpt lat="47.60365" lon="-0.40472">
        <ele>28.02</ele>
        <time>2014-12-28T10:18:28Z</time>
      </trkpt>
      <trkpt lat="47.60284" lon="-0.40437">
        <ele>26.09</ele>
        <time>2014-12-28T10:18:43Z</time>
      </trkpt>
      <trkpt lat="47.60192" lon="-0.40409">
        <ele>24.65</ele>
        <time>2014-12-28T10:18:57Z</time>
      </trkpt>
      <trkpt lat="47.60095" lon="-0.40363">
        <ele>24.17</ele>
        <time>2014-12-28T10:19:13Z</time>
      </trkpt>
      <trkpt lat="47.60055" lon="-0.40342">
        <ele>24.17</ele>
        <time>2014-12-28T10:19:20Z</time>
      </trkpt>
      <trkpt lat="47.6005" lon="-0.40338">
        <ele>24.17</ele>
        <time>2014-12-28T10:19:21Z</time>
      </trkpt>
      <trkpt lat="47.5996" lon="-0.40278">
        <ele>24.65</ele>
        <time>2014-12-28T10:19:38Z</time>
      </trkpt>
      <trkpt lat="47.599" lon="-0.40247">
        <ele>24.65</ele>
        <time>2014-12-28T10:19:49Z</time>
      </trkpt>
      <trkpt lat="47.59827" lon="-0.40179">
        <ele>23.21</ele>
        <time>2014-12-28T10:20:04Z</time>
      </trkpt>
      <trkpt lat="47.59817" lon="-0.4017">
        <ele>23.69</ele>
        <time>2014-12-28T10:20:06Z</time>
      </trkpt>
      <trkpt lat="47.5974" lon="-0.40108">
        <ele>25.61</ele>
        <time>2014-12-28T10:20:21Z</time>
      </trkpt>
      <trkpt lat="47.59671" lon="-0.40057">
        <ele>25.61</ele>
        <time>2014-12-28T10:20:35Z</time>
      </trkpt>
      <trkpt lat="47.59666" lon="-0.40054">
        <ele>25.13</ele>
        <time>2014-12-28T10:20:36Z</time>
      </trkpt>
      <trkpt lat="47.59661" lon="-0.40051">
        <ele>24.17</ele>
        <time>2014-12-28T10:20:37Z</time>
      </trkpt>
      <trkpt lat="47.59593" lon="-0.40014">
        <ele>24.65</ele>
        <time>2014-12-28T10:20:50Z</time>
      </trkpt>
      <trkpt lat="47.5955" lon="-0.39989">
        <ele>25.13</ele>
        <time>2014-12-28T10:20:58Z</time>
      </trkpt>
      <trkpt lat="47.59544" lon="-0.39986">
        <ele>26.09</ele>
        <time>2014-12-28T10:20:59Z</time>
      </trkpt>
      <trkpt lat="47.59503" lon="-0.39961">
        <ele>25.61</ele>
        <time>2014-12-28T10:21:07Z</time>
      </trkpt>
      <trkpt lat="47.59498" lon="-0.39956">
        <ele>25.13</ele>
        <time>2014-12-28T10:21:08Z</time>
      </trkpt>
      <trkpt lat="47.59456" lon="-0.39916">
        <ele>25.61</ele>
        <time>2014-12-28T10:21:17Z</time>
      </trkpt>
      <trkpt lat="47.59454" lon="-0.3991">
        <ele>25.61</ele>
        <time>2014-12-28T10:21:18Z</time>
      </trkpt>
      <trkpt lat="47.59452" lon="-0.39905">
        <ele>25.61</ele>
        <time>2014-12-28T10:21:19Z</time>
      </trkpt>
      <trkpt lat="47.59452" lon="-0.39898">
        <ele>25.13</ele>
        <time>2014-12-28T10:21:20Z</time>
      </trkpt>
      <trkpt lat="47.59453" lon="-0.39891">
        <ele>25.61</ele>
        <time>2014-12-28T10:21:21Z</time>
      </trkpt>
      <trkpt lat="47.59455" lon="-0.39884">
        <ele>26.09</ele>
        <time>2014-12-28T10:21:22Z</time>
      </trkpt>
      <trkpt lat="47.59458" lon="-0.39878">
        <ele>25.61</ele>
        <time>2014-12-28T10:21:23Z</time>
      </trkpt>
      <trkpt lat="47.59462" lon="-0.39864">
        <ele>25.61</ele>
        <time>2014-12-28T10:21:25Z</time>
      </trkpt>
      <trkpt lat="47.5949" lon="-0.39764">
        <ele>25.61</ele>
        <time>2014-12-28T10:21:38Z</time>
      </trkpt>
      <trkpt lat="47.59507" lon="-0.39712">
        <ele>27.05</ele>
        <time>2014-12-28T10:21:46Z</time>
      </trkpt>
      <trkpt lat="47.59511" lon="-0.39683">
        <ele>27.53</ele>
        <time>2014-12-28T10:21:50Z</time>
      </trkpt>
      <trkpt lat="47.59511" lon="-0.39677">
        <ele>27.53</ele>
        <time>2014-12-28T10:21:51Z</time>
      </trkpt>
      <trkpt lat="47.59512" lon="-0.39663">
        <ele>27.53</ele>
        <time>2014-12-28T10:21:53Z</time>
      </trkpt>
      <trkpt lat="47.59513" lon="-0.39643">
        <ele>27.53</ele>
        <time>2014-12-28T10:21:56Z</time>
      </trkpt>
      <trkpt lat="47.59512" lon="-0.39637">
        <ele>28.02</ele>
        <time>2014-12-28T10:21:57Z</time>
      </trkpt>
      <trkpt lat="47.59512" lon="-0.3961">
        <ele>28.5</ele>
        <time>2014-12-28T10:22:01Z</time>
      </trkpt>
      <trkpt lat="47.59513" lon="-0.39603">
        <ele>28.98</ele>
        <time>2014-12-28T10:22:02Z</time>
      </trkpt>
      <trkpt lat="47.5952" lon="-0.39527">
        <ele>28.5</ele>
        <time>2014-12-28T10:22:14Z</time>
      </trkpt>
      <trkpt lat="47.59526" lon="-0.39446">
        <ele>29.94</ele>
        <time>2014-12-28T10:22:26Z</time>
      </trkpt>
      <trkpt lat="47.59539" lon="-0.39386">
        <ele>30.42</ele>
        <time>2014-12-28T10:22:35Z</time>
      </trkpt>
      <trkpt lat="47.59541" lon="-0.39379">
        <ele>30.42</ele>
        <time>2014-12-28T10:22:36Z</time>
      </trkpt>
      <trkpt lat="47.59564" lon="-0.39303">
        <ele>31.38</ele>
        <time>2014-12-28T10:22:49Z</time>
      </trkpt>
      <trkpt lat="47.59587" lon="-0.39255">
        <ele>30.9</ele>
        <time>2014-12-28T10:23:01Z</time>
      </trkpt>
      <trkpt lat="47.59601" lon="-0.39219">
        <ele>30.9</ele>
        <time>2014-12-28T10:23:08Z</time>
      </trkpt>
      <trkpt lat="47.59602" lon="-0.39212">
        <ele>30.9</ele>
        <time>2014-12-28T10:23:09Z</time>
      </trkpt>
      <trkpt lat="47.59603" lon="-0.39198">
        <ele>31.38</ele>
        <time>2014-12-28T10:23:11Z</time>
      </trkpt>
      <trkpt lat="47.59602" lon="-0.39191">
        <ele>31.38</ele>
        <time>2014-12-28T10:23:12Z</time>
      </trkpt>
      <trkpt lat="47.596" lon="-0.3917">
        <ele>30.9</ele>
        <time>2014-12-28T10:23:15Z</time>
      </trkpt>
      <trkpt lat="47.59598" lon="-0.39142">
        <ele>30.9</ele>
        <time>2014-12-28T10:23:19Z</time>
      </trkpt>
      <trkpt lat="47.59596" lon="-0.39135">
        <ele>30.42</ele>
        <time>2014-12-28T10:23:20Z</time>
      </trkpt>
      <trkpt lat="47.59593" lon="-0.39128">
        <ele>30.42</ele>
        <time>2014-12-28T10:23:21Z</time>
      </trkpt>
      <trkpt lat="47.5959" lon="-0.39122">
        <ele>30.42</ele>
        <time>2014-12-28T10:23:22Z</time>
      </trkpt>
      <trkpt lat="47.59586" lon="-0.39117">
        <ele>30.42</ele>
        <time>2014-12-28T10:23:23Z</time>
      </trkpt>
      <trkpt lat="47.59582" lon="-0.39111">
        <ele>30.42</ele>
        <time>2014-12-28T10:23:24Z</time>
      </trkpt>
      <trkpt lat="47.59558" lon="-0.39078">
        <ele>28.98</ele>
        <time>2014-12-28T10:23:30Z</time>
      </trkpt>
      <trkpt lat="47.59555" lon="-0.39072">
        <ele>28.5</ele>
        <time>2014-12-28T10:23:31Z</time>
      </trkpt>
      <trkpt lat="47.59553" lon="-0.39064">
        <ele>28.98</ele>
        <time>2014-12-28T10:23:32Z</time>
      </trkpt>
      <trkpt lat="47.59553" lon="-0.39057">
        <ele>28.98</ele>
        <time>2014-12-28T10:23:33Z</time>
      </trkpt>
      <trkpt lat="47.59556" lon="-0.3905">
        <ele>28.98</ele>
        <time>2014-12-28T10:23:34Z</time>
      </trkpt>
      <trkpt lat="47.5956" lon="-0.39045">
        <ele>28.98</ele>
        <time>2014-12-28T10:23:35Z</time>
      </trkpt>
      <trkpt lat="47.59564" lon="-0.3904">
        <ele>28.98</ele>
        <time>2014-12-28T10:23:36Z</time>
      </trkpt>
      <trkpt lat="47.5961" lon="-0.38997">
        <ele>29.94</ele>
        <time>2014-12-28T10:23:47Z</time>
      </trkpt>
      <trkpt lat="47.59614" lon="-0.38994">
        <ele>29.94</ele>
        <time>2014-12-28T10:23:48Z</time>
      </trkpt>
      <trkpt lat="47.59673" lon="-0.38944">
        <ele>31.38</ele>
        <time>2014-12-28T10:24:03Z</time>
      </trkpt>
      <trkpt lat="47.59696" lon="-0.38922">
        <ele>31.86</ele>
        <time>2014-12-28T10:24:09Z</time>
      </trkpt>
      <trkpt lat="47.59747" lon="-0.38881">
        <ele>32.82</ele>
        <time>2014-12-28T10:24:22Z</time>
      </trkpt>
      <trkpt lat="47.59769" lon="-0.38863">
        <ele>33.3</ele>
        <time>2014-12-28T10:24:28Z</time>
      </trkpt>
      <trkpt lat="47.59774" lon="-0.3886">
        <ele>33.78</ele>
        <time>2014-12-28T10:24:29Z</time>
      </trkpt>
      <trkpt lat="47.59787" lon="-0.38852">
        <ele>33.78</ele>
        <time>2014-12-28T10:24:32Z</time>
      </trkpt>
      <trkpt lat="47.59791" lon="-0.38848">
        <ele>33.78</ele>
        <time>2014-12-28T10:24:33Z</time>
      </trkpt>
      <trkpt lat="47.59795" lon="-0.38845">
        <ele>33.3</ele>
        <time>2014-12-28T10:24:34Z</time>
      </trkpt>
      <trkpt lat="47.59799" lon="-0.38841">
        <ele>33.78</ele>
        <time>2014-12-28T10:24:35Z</time>
      </trkpt>
      <trkpt lat="47.59804" lon="-0.38838">
        <ele>33.78</ele>
        <time>2014-12-28T10:24:36Z</time>
      </trkpt>
      <trkpt lat="47.59852" lon="-0.38807">
        <ele>33.3</ele>
        <time>2014-12-28T10:24:47Z</time>
      </trkpt>
      <trkpt lat="47.59899" lon="-0.38775">
        <ele>32.34</ele>
        <time>2014-12-28T10:24:58Z</time>
      </trkpt>
      <trkpt lat="47.59903" lon="-0.38771">
        <ele>31.86</ele>
        <time>2014-12-28T10:24:59Z</time>
      </trkpt>
      <trkpt lat="47.59905" lon="-0.38765">
        <ele>31.38</ele>
        <time>2014-12-28T10:25:00Z</time>
      </trkpt>
      <trkpt lat="47.59905" lon="-0.38759">
        <ele>30.9</ele>
        <time>2014-12-28T10:25:01Z</time>
      </trkpt>
      <trkpt lat="47.59903" lon="-0.38754">
        <ele>31.38</ele>
        <time>2014-12-28T10:25:02Z</time>
      </trkpt>
      <trkpt lat="47.59898" lon="-0.38749">
        <ele>30.9</ele>
        <time>2014-12-28T10:25:03Z</time>
      </trkpt>
      <trkpt lat="47.59895" lon="-0.38744">
        <ele>30.9</ele>
        <time>2014-12-28T10:25:04Z</time>
      </trkpt>
      <trkpt lat="47.59892" lon="-0.38738">
        <ele>30.9</ele>
        <time>2014-12-28T10:25:05Z</time>
      </trkpt>
      <trkpt lat="47.59888" lon="-0.38731">
        <ele>30.9</ele>
        <time>2014-12-28T10:25:06Z</time>
      </trkpt>
      <trkpt lat="47.59869" lon="-0.38696">
        <ele>30.42</ele>
        <time>2014-12-28T10:25:12Z</time>
      </trkpt>
      <trkpt lat="47.59814" lon="-0.38607">
        <ele>29.46</ele>
        <time>2014-12-28T10:25:27Z</time>
      </trkpt>
      <trkpt lat="47.59738" lon="-0.38514">
        <ele>29.46</ele>
        <time>2014-12-28T10:25:45Z</time>
      </trkpt>
      <trkpt lat="47.59689" lon="-0.38384">
        <ele>29.46</ele>
        <time>2014-12-28T10:26:03Z</time>
      </trkpt>
      <trkpt lat="47.59684" lon="-0.3837">
        <ele>28.02</ele>
        <time>2014-12-28T10:26:05Z</time>
      </trkpt>
      <trkpt lat="47.5964" lon="-0.38267">
        <ele>28.02</ele>
        <time>2014-12-28T10:26:20Z</time>
      </trkpt>
      <trkpt lat="47.5963" lon="-0.38249">
        <ele>28.02</ele>
        <time>2014-12-28T10:26:23Z</time>
      </trkpt>
      <trkpt lat="47.59576" lon="-0.38144">
        <ele>28.98</ele>
        <time>2014-12-28T10:26:41Z</time>
      </trkpt>
      <trkpt lat="47.5952" lon="-0.38023">
        <ele>28.98</ele>
        <time>2014-12-28T10:27:00Z</time>
      </trkpt>
      <trkpt lat="47.59472" lon="-0.37919">
        <ele>27.05</ele>
        <time>2014-12-28T10:27:16Z</time>
      </trkpt>
      <trkpt lat="47.59436" lon="-0.37852">
        <ele>25.61</ele>
        <time>2014-12-28T10:27:30Z</time>
      </trkpt>
      <trkpt lat="47.59435" lon="-0.37855">
        <ele>25.13</ele>
        <time>2014-12-28T10:27:34Z</time>
      </trkpt>
      <trkpt lat="47.59433" lon="-0.37856">
        <ele>25.61</ele>
        <time>2014-12-28T10:27:35Z</time>
      </trkpt>
      <trkpt lat="47.59432" lon="-0.37855">
        <ele>25.61</ele>
        <time>2014-12-28T10:27:36Z</time>
      </trkpt>
      <trkpt lat="47.59429" lon="-0.37856">
        <ele>25.13</ele>
        <time>2014-12-28T10:27:41Z</time>
      </trkpt>
      <trkpt lat="47.59428" lon="-0.37857">
        <ele>26.09</ele>
        <time>2014-12-28T10:27:42Z</time>
      </trkpt>
      <trkpt lat="47.59427" lon="-0.37859">
        <ele>25.61</ele>
        <time>2014-12-28T10:27:43Z</time>
      </trkpt>
      <trkpt lat="47.59426" lon="-0.37861">
        <ele>25.61</ele>
        <time>2014-12-28T10:27:44Z</time>
      </trkpt>
      <trkpt lat="47.59426" lon="-0.37863">
        <ele>25.61</ele>
        <time>2014-12-28T10:27:45Z</time>
      </trkpt>
      <trkpt lat="47.59417" lon="-0.37885">
        <ele>25.13</ele>
        <time>2014-12-28T10:27:58Z</time>
      </trkpt>
      <trkpt lat="47.59397" lon="-0.3793">
        <ele>24.65</ele>
        <time>2014-12-28T10:28:12Z</time>
      </trkpt>
      <trkpt lat="47.59395" lon="-0.37934">
        <ele>28.02</ele>
        <time>2014-12-28T10:28:13Z</time>
      </trkpt>
      <trkpt lat="47.59369" lon="-0.37995">
        <ele>26.57</ele>
        <time>2014-12-28T10:28:25Z</time>
      </trkpt>
      <trkpt lat="47.59302" lon="-0.38072">
        <ele>26.57</ele>
        <time>2014-12-28T10:28:42Z</time>
      </trkpt>
      <trkpt lat="47.59244" lon="-0.38133">
        <ele>27.05</ele>
        <time>2014-12-28T10:28:56Z</time>
      </trkpt>
      <trkpt lat="47.59242" lon="-0.38137">
        <ele>26.57</ele>
        <time>2014-12-28T10:28:57Z</time>
      </trkpt>
      <trkpt lat="47.5924" lon="-0.3814">
        <ele>26.57</ele>
        <time>2014-12-28T10:28:58Z</time>
      </trkpt>
      <trkpt lat="47.59237" lon="-0.38147">
        <ele>27.53</ele>
        <time>2014-12-28T10:29:00Z</time>
      </trkpt>
      <trkpt lat="47.59235" lon="-0.38149">
        <ele>27.05</ele>
        <time>2014-12-28T10:29:01Z</time>
      </trkpt>
      <trkpt lat="47.59232" lon="-0.38149">
        <ele>27.05</ele>
        <time>2014-12-28T10:29:02Z</time>
      </trkpt>
      <trkpt lat="47.59228" lon="-0.3815">
        <ele>27.53</ele>
        <time>2014-12-28T10:29:03Z</time>
      </trkpt>
      <trkpt lat="47.59225" lon="-0.38151">
        <ele>27.53</ele>
        <time>2014-12-28T10:29:04Z</time>
      </trkpt>
      <trkpt lat="47.59222" lon="-0.38153">
        <ele>27.53</ele>
        <time>2014-12-28T10:29:05Z</time>
      </trkpt>
      <trkpt lat="47.59219" lon="-0.38156">
        <ele>27.53</ele>
        <time>2014-12-28T10:29:06Z</time>
      </trkpt>
      <trkpt lat="47.59162" lon="-0.38214">
        <ele>27.53</ele>
        <time>2014-12-28T10:29:21Z</time>
      </trkpt>
      <trkpt lat="47.59153" lon="-0.38223">
        <ele>27.53</ele>
        <time>2014-12-28T10:29:23Z</time>
      </trkpt>
      <trkpt lat="47.59149" lon="-0.38227">
        <ele>27.53</ele>
        <time>2014-12-28T10:29:24Z</time>
      </trkpt>
      <trkpt lat="47.59144" lon="-0.38232">
        <ele>27.53</ele>
        <time>2014-12-28T10:29:25Z</time>
      </trkpt>
      <trkpt lat="47.59083" lon="-0.38296">
        <ele>27.53</ele>
        <time>2014-12-28T10:29:39Z</time>
      </trkpt>
      <trkpt lat="47.59069" lon="-0.38311">
        <ele>27.53</ele>
        <time>2014-12-28T10:29:42Z</time>
      </trkpt>
      <trkpt lat="47.58997" lon="-0.38386">
        <ele>27.53</ele>
        <time>2014-12-28T10:29:57Z</time>
      </trkpt>
      <trkpt lat="47.58931" lon="-0.38459">
        <ele>27.05</ele>
        <time>2014-12-28T10:30:11Z</time>
      </trkpt>
      <trkpt lat="47.58928" lon="-0.38466">
        <ele>27.05</ele>
        <time>2014-12-28T10:30:12Z</time>
      </trkpt>
      <trkpt lat="47.58925" lon="-0.38473">
        <ele>26.57</ele>
        <time>2014-12-28T10:30:13Z</time>
      </trkpt>
      <trkpt lat="47.58902" lon="-0.38523">
        <ele>26.57</ele>
        <time>2014-12-28T10:30:23Z</time>
      </trkpt>
      <trkpt lat="47.58889" lon="-0.38517">
        <ele>27.05</ele>
        <time>2014-12-28T10:30:27Z</time>
      </trkpt>
      <trkpt lat="47.58885" lon="-0.38515">
        <ele>26.57</ele>
        <time>2014-12-28T10:30:28Z</time>
      </trkpt>
      <trkpt lat="47.58875" lon="-0.3851">
        <ele>27.05</ele>
        <time>2014-12-28T10:30:30Z</time>
      </trkpt>
      <trkpt lat="47.5887" lon="-0.38505">
        <ele>26.57</ele>
        <time>2014-12-28T10:30:31Z</time>
      </trkpt>
      <trkpt lat="47.58839" lon="-0.38471">
        <ele>27.05</ele>
        <time>2014-12-28T10:30:38Z</time>
      </trkpt>
      <trkpt lat="47.58835" lon="-0.3847">
        <ele>26.57</ele>
        <time>2014-12-28T10:30:39Z</time>
      </trkpt>
      <trkpt lat="47.58829" lon="-0.38472">
        <ele>26.09</ele>
        <time>2014-12-28T10:30:40Z</time>
      </trkpt>
      <trkpt lat="47.5882" lon="-0.3848">
        <ele>25.13</ele>
        <time>2014-12-28T10:30:42Z</time>
      </trkpt>
      <trkpt lat="47.58816" lon="-0.38484">
        <ele>24.65</ele>
        <time>2014-12-28T10:30:43Z</time>
      </trkpt>
      <trkpt lat="47.58805" lon="-0.38497">
        <ele>25.13</ele>
        <time>2014-12-28T10:30:46Z</time>
      </trkpt>
      <trkpt lat="47.58802" lon="-0.38502">
        <ele>24.65</ele>
        <time>2014-12-28T10:30:47Z</time>
      </trkpt>
      <trkpt lat="47.58795" lon="-0.38511">
        <ele>25.13</ele>
        <time>2014-12-28T10:30:49Z</time>
      </trkpt>
      <trkpt lat="47.58792" lon="-0.38515">
        <ele>25.13</ele>
        <time>2014-12-28T10:30:50Z</time>
      </trkpt>
      <trkpt lat="47.58789" lon="-0.3852">
        <ele>24.65</ele>
        <time>2014-12-28T10:30:51Z</time>
      </trkpt>
      <trkpt lat="47.58757" lon="-0.38569">
        <ele>24.17</ele>
        <time>2014-12-28T10:31:04Z</time>
      </trkpt>
      <trkpt lat="47.58728" lon="-0.38602">
        <ele>25.13</ele>
        <time>2014-12-28T10:31:13Z</time>
      </trkpt>
      <trkpt lat="47.58681" lon="-0.38639">
        <ele>24.65</ele>
        <time>2014-12-28T10:31:24Z</time>
      </trkpt>
      <trkpt lat="47.58658" lon="-0.38658">
        <ele>24.65</ele>
        <time>2014-12-28T10:31:29Z</time>
      </trkpt>
      <trkpt lat="47.58653" lon="-0.38661">
        <ele>24.17</ele>
        <time>2014-12-28T10:31:30Z</time>
      </trkpt>
      <trkpt lat="47.5862" lon="-0.38684">
        <ele>23.69</ele>
        <time>2014-12-28T10:31:37Z</time>
      </trkpt>
      <trkpt lat="47.58617" lon="-0.3869">
        <ele>24.65</ele>
        <time>2014-12-28T10:31:38Z</time>
      </trkpt>
      <trkpt lat="47.58616" lon="-0.38696">
        <ele>24.65</ele>
        <time>2014-12-28T10:31:39Z</time>
      </trkpt>
      <trkpt lat="47.58616" lon="-0.38702">
        <ele>24.65</ele>
        <time>2014-12-28T10:31:40Z</time>
      </trkpt>
      <trkpt lat="47.58617" lon="-0.38708">
        <ele>24.17</ele>
        <time>2014-12-28T10:31:41Z</time>
      </trkpt>
      <trkpt lat="47.58618" lon="-0.38714">
        <ele>24.17</ele>
        <time>2014-12-28T10:31:42Z</time>
      </trkpt>
      <trkpt lat="47.58632" lon="-0.38808">
        <ele>26.09</ele>
        <time>2014-12-28T10:31:56Z</time>
      </trkpt>
      <trkpt lat="47.58642" lon="-0.38912">
        <ele>26.09</ele>
        <time>2014-12-28T10:32:10Z</time>
      </trkpt>
      <trkpt lat="47.58642" lon="-0.3892">
        <ele>25.13</ele>
        <time>2014-12-28T10:32:11Z</time>
      </trkpt>
      <trkpt lat="47.58644" lon="-0.38952">
        <ele>25.13</ele>
        <time>2014-12-28T10:32:15Z</time>
      </trkpt>
      <trkpt lat="47.58644" lon="-0.38959">
        <ele>26.09</ele>
        <time>2014-12-28T10:32:16Z</time>
      </trkpt>
      <trkpt lat="47.58645" lon="-0.38966">
        <ele>25.61</ele>
        <time>2014-12-28T10:32:17Z</time>
      </trkpt>
      <trkpt lat="47.58646" lon="-0.38973">
        <ele>25.61</ele>
        <time>2014-12-28T10:32:18Z</time>
      </trkpt>
      <trkpt lat="47.58646" lon="-0.3898">
        <ele>25.61</ele>
        <time>2014-12-28T10:32:19Z</time>
      </trkpt>
      <trkpt lat="47.58651" lon="-0.39013">
        <ele>25.61</ele>
        <time>2014-12-28T10:32:24Z</time>
      </trkpt>
      <trkpt lat="47.58652" lon="-0.39019">
        <ele>25.13</ele>
        <time>2014-12-28T10:32:25Z</time>
      </trkpt>
      <trkpt lat="47.58652" lon="-0.39026">
        <ele>25.61</ele>
        <time>2014-12-28T10:32:26Z</time>
      </trkpt>
      <trkpt lat="47.58652" lon="-0.39032">
        <ele>25.61</ele>
        <time>2014-12-28T10:32:27Z</time>
      </trkpt>
      <trkpt lat="47.58653" lon="-0.39038">
        <ele>25.61</ele>
        <time>2014-12-28T10:32:28Z</time>
      </trkpt>
      <trkpt lat="47.58654" lon="-0.39045">
        <ele>25.61</ele>
        <time>2014-12-28T10:32:29Z</time>
      </trkpt>
      <trkpt lat="47.58655" lon="-0.39052">
        <ele>25.13</ele>
        <time>2014-12-28T10:32:30Z</time>
      </trkpt>
      <trkpt lat="47.58657" lon="-0.39065">
        <ele>25.61</ele>
        <time>2014-12-28T10:32:32Z</time>
      </trkpt>
      <trkpt lat="47.58658" lon="-0.39071">
        <ele>25.61</ele>
        <time>2014-12-28T10:32:33Z</time>
      </trkpt>
      <trkpt lat="47.58659" lon="-0.39084">
        <ele>25.61</ele>
        <time>2014-12-28T10:32:35Z</time>
      </trkpt>
      <trkpt lat="47.58663" lon="-0.39127">
        <ele>25.13</ele>
        <time>2014-12-28T10:32:42Z</time>
      </trkpt>
      <trkpt lat="47.58671" lon="-0.39195">
        <ele>25.61</ele>
        <time>2014-12-28T10:32:54Z</time>
      </trkpt>
      <trkpt lat="47.58663" lon="-0.3926">
        <ele>25.13</ele>
        <time>2014-12-28T10:33:05Z</time>
      </trkpt>
      <trkpt lat="47.58662" lon="-0.39266">
        <ele>25.61</ele>
        <time>2014-12-28T10:33:06Z</time>
      </trkpt>
      <trkpt lat="47.58658" lon="-0.39286">
        <ele>24.65</ele>
        <time>2014-12-28T10:33:09Z</time>
      </trkpt>
      <trkpt lat="47.58645" lon="-0.39378">
        <ele>24.65</ele>
        <time>2014-12-28T10:33:23Z</time>
      </trkpt>
      <trkpt lat="47.58637" lon="-0.39444">
        <ele>24.65</ele>
        <time>2014-12-28T10:33:34Z</time>
      </trkpt>
      <trkpt lat="47.58625" lon="-0.3952">
        <ele>24.17</ele>
        <time>2014-12-28T10:33:47Z</time>
      </trkpt>
      <trkpt lat="47.58622" lon="-0.39537">
        <ele>25.61</ele>
        <time>2014-12-28T10:33:57Z</time>
      </trkpt>
      <trkpt lat="47.58622" lon="-0.39537">
        <ele>22.25</ele>
        <time>2014-12-28T10:33:58Z</time>
      </trkpt>
      <trkpt lat="47.58622" lon="-0.39538">
        <ele>18.4</ele>
        <time>2014-12-28T10:33:59Z</time>
      </trkpt>
      <trkpt lat="47.58622" lon="-0.39538">
        <ele>31.38</ele>
        <time>2014-12-28T10:34:00Z</time>
      </trkpt>
      <trkpt lat="47.58623" lon="-0.39538">
        <ele>24.17</ele>
        <time>2014-12-28T10:34:01Z</time>
      </trkpt>
      <trkpt lat="47.58623" lon="-0.3954">
        <ele>23.69</ele>
        <time>2014-12-28T10:34:22Z</time>
      </trkpt>
      <trkpt lat="47.58621" lon="-0.3955">
        <ele>23.69</ele>
        <time>2014-12-28T10:34:41Z</time>
      </trkpt>
      <trkpt lat="47.58621" lon="-0.39553">
        <ele>24.17</ele>
        <time>2014-12-28T10:34:42Z</time>
      </trkpt>
      <trkpt lat="47.58613" lon="-0.39604">
        <ele>23.21</ele>
        <time>2014-12-28T10:34:53Z</time>
      </trkpt>
      <trkpt lat="47.58612" lon="-0.3961">
        <ele>23.21</ele>
        <time>2014-12-28T10:34:54Z</time>
      </trkpt>
      <trkpt lat="47.58595" lon="-0.39725">
        <ele>24.17</ele>
        <time>2014-12-28T10:35:11Z</time>
      </trkpt>
      <trkpt lat="47.58579" lon="-0.39839">
        <ele>24.17</ele>
        <time>2014-12-28T10:35:27Z</time>
      </trkpt>
      <trkpt lat="47.58573" lon="-0.39891">
        <ele>24.17</ele>
        <time>2014-12-28T10:35:35Z</time>
      </trkpt>
      <trkpt lat="47.58569" lon="-0.39911">
        <ele>23.69</ele>
        <time>2014-12-28T10:35:38Z</time>
      </trkpt>
      <trkpt lat="47.58567" lon="-0.39918">
        <ele>23.69</ele>
        <time>2014-12-28T10:35:39Z</time>
      </trkpt>
      <trkpt lat="47.58523" lon="-0.40035">
        <ele>21.77</ele>
        <time>2014-12-28T10:35:57Z</time>
      </trkpt>
      <trkpt lat="47.58483" lon="-0.40133">
        <ele>22.73</ele>
        <time>2014-12-28T10:36:15Z</time>
      </trkpt>
      <trkpt lat="47.5847" lon="-0.40164">
        <ele>23.21</ele>
        <time>2014-12-28T10:36:25Z</time>
      </trkpt>
      <trkpt lat="47.58472" lon="-0.40161">
        <ele>21.29</ele>
        <time>2014-12-28T10:36:34Z</time>
      </trkpt>
      <trkpt lat="47.58472" lon="-0.40161">
        <ele>25.13</ele>
        <time>2014-12-28T10:36:35Z</time>
      </trkpt>
      <trkpt lat="47.58472" lon="-0.40161">
        <ele>22.73</ele>
        <time>2014-12-28T10:36:36Z</time>
      </trkpt>
      <trkpt lat="47.58468" lon="-0.40165">
        <ele>22.25</ele>
        <time>2014-12-28T10:37:04Z</time>
      </trkpt>
      <trkpt lat="47.58465" lon="-0.40165">
        <ele>22.73</ele>
        <time>2014-12-28T10:37:05Z</time>
      </trkpt>
      <trkpt lat="47.58462" lon="-0.40164">
        <ele>22.73</ele>
        <time>2014-12-28T10:37:06Z</time>
      </trkpt>
      <trkpt lat="47.58459" lon="-0.40162">
        <ele>22.73</ele>
        <time>2014-12-28T10:37:07Z</time>
      </trkpt>
      <trkpt lat="47.58455" lon="-0.4016">
        <ele>22.25</ele>
        <time>2014-12-28T10:37:08Z</time>
      </trkpt>
      <trkpt lat="47.58385" lon="-0.40115">
        <ele>22.73</ele>
        <time>2014-12-28T10:37:25Z</time>
      </trkpt>
      <trkpt lat="47.58366" lon="-0.40106">
        <ele>22.25</ele>
        <time>2014-12-28T10:37:29Z</time>
      </trkpt>
      <trkpt lat="47.58361" lon="-0.40104">
        <ele>22.73</ele>
        <time>2014-12-28T10:37:30Z</time>
      </trkpt>
      <trkpt lat="47.58356" lon="-0.40103">
        <ele>22.25</ele>
        <time>2014-12-28T10:37:31Z</time>
      </trkpt>
      <trkpt lat="47.58278" lon="-0.40111">
        <ele>22.25</ele>
        <time>2014-12-28T10:37:45Z</time>
      </trkpt>
      <trkpt lat="47.5814" lon="-0.4013">
        <ele>22.25</ele>
        <time>2014-12-28T10:38:08Z</time>
      </trkpt>
      <trkpt lat="47.58104" lon="-0.40139">
        <ele>21.77</ele>
        <time>2014-12-28T10:38:14Z</time>
      </trkpt>
      <trkpt lat="47.58098" lon="-0.40142">
        <ele>22.25</ele>
        <time>2014-12-28T10:38:15Z</time>
      </trkpt>
      <trkpt lat="47.58049" lon="-0.40214">
        <ele>24.65</ele>
        <time>2014-12-28T10:38:27Z</time>
      </trkpt>
      <trkpt lat="47.57994" lon="-0.40334">
        <ele>28.02</ele>
        <time>2014-12-28T10:38:46Z</time>
      </trkpt>
      <trkpt lat="47.57955" lon="-0.40405">
        <ele>30.9</ele>
        <time>2014-12-28T10:39:02Z</time>
      </trkpt>
      <trkpt lat="47.57951" lon="-0.40413">
        <ele>31.86</ele>
        <time>2014-12-28T10:39:05Z</time>
      </trkpt>
      <trkpt lat="47.57951" lon="-0.40417">
        <ele>31.38</ele>
        <time>2014-12-28T10:39:06Z</time>
      </trkpt>
      <trkpt lat="47.57953" lon="-0.4042">
        <ele>31.86</ele>
        <time>2014-12-28T10:39:07Z</time>
      </trkpt>
      <trkpt lat="47.57954" lon="-0.40424">
        <ele>31.86</ele>
        <time>2014-12-28T10:39:08Z</time>
      </trkpt>
      <trkpt lat="47.57957" lon="-0.40426">
        <ele>31.86</ele>
        <time>2014-12-28T10:39:09Z</time>
      </trkpt>
      <trkpt lat="47.5796" lon="-0.40428">
        <ele>32.34</ele>
        <time>2014-12-28T10:39:10Z</time>
      </trkpt>
      <trkpt lat="47.57964" lon="-0.4043">
        <ele>32.82</ele>
        <time>2014-12-28T10:39:11Z</time>
      </trkpt>
      <trkpt lat="47.58017" lon="-0.40466">
        <ele>32.34</ele>
        <time>2014-12-28T10:39:27Z</time>
      </trkpt>
      <trkpt lat="47.58044" lon="-0.4049">
        <ele>31.38</ele>
        <time>2014-12-28T10:39:36Z</time>
      </trkpt>
      <trkpt lat="47.58044" lon="-0.40494">
        <ele>31.38</ele>
        <time>2014-12-28T10:39:37Z</time>
      </trkpt>
      <trkpt lat="47.58031" lon="-0.40526">
        <ele>34.26</ele>
        <time>2014-12-28T10:39:46Z</time>
      </trkpt>
      <trkpt lat="47.5802" lon="-0.40559">
        <ele>38.11</ele>
        <time>2014-12-28T10:39:56Z</time>
      </trkpt>
      <trkpt lat="47.5802" lon="-0.40571">
        <ele>39.07</ele>
        <time>2014-12-28T10:40:02Z</time>
      </trkpt>
      <trkpt lat="47.58023" lon="-0.40574">
        <ele>39.55</ele>
        <time>2014-12-28T10:40:04Z</time>
      </trkpt>
      <trkpt lat="47.58026" lon="-0.40574">
        <ele>39.55</ele>
        <time>2014-12-28T10:40:06Z</time>
      </trkpt>
      <trkpt lat="47.58029" lon="-0.40573">
        <ele>39.07</ele>
        <time>2014-12-28T10:40:07Z</time>
      </trkpt>
      <trkpt lat="47.58046" lon="-0.40569">
        <ele>35.71</ele>
        <time>2014-12-28T10:40:12Z</time>
      </trkpt>
      <trkpt lat="47.58076" lon="-0.40587">
        <ele>32.82</ele>
        <time>2014-12-28T10:40:21Z</time>
      </trkpt>
      <trkpt lat="47.58104" lon="-0.40602">
        <ele>31.86</ele>
        <time>2014-12-28T10:40:30Z</time>
      </trkpt>
      <trkpt lat="47.58116" lon="-0.40611">
        <ele>32.34</ele>
        <time>2014-12-28T10:40:38Z</time>
      </trkpt>
      <trkpt lat="47.58116" lon="-0.40611">
        <ele>31.86</ele>
        <time>2014-12-28T10:40:39Z</time>
      </trkpt>
      <trkpt lat="47.58108" lon="-0.40608">
        <ele>32.34</ele>
        <time>2014-12-28T10:40:44Z</time>
      </trkpt>
      <trkpt lat="47.58106" lon="-0.4061">
        <ele>32.34</ele>
        <time>2014-12-28T10:40:45Z</time>
      </trkpt>
      <trkpt lat="47.58104" lon="-0.40613">
        <ele>32.82</ele>
        <time>2014-12-28T10:40:47Z</time>
      </trkpt>
      <trkpt lat="47.58102" lon="-0.4062">
        <ele>33.78</ele>
        <time>2014-12-28T10:40:50Z</time>
      </trkpt>
      <trkpt lat="47.58097" lon="-0.40628">
        <ele>34.26</ele>
        <time>2014-12-28T10:40:54Z</time>
      </trkpt>
      <trkpt lat="47.58083" lon="-0.4066">
        <ele>38.11</ele>
        <time>2014-12-28T10:41:08Z</time>
      </trkpt>
      <trkpt lat="47.58074" lon="-0.40676">
        <ele>40.03</ele>
        <time>2014-12-28T10:41:23Z</time>
      </trkpt>
      <trkpt lat="47.58067" lon="-0.40694">
        <ele>40.99</ele>
        <time>2014-12-28T10:41:37Z</time>
      </trkpt>
      <trkpt lat="47.58061" lon="-0.40709">
        <ele>42.92</ele>
        <time>2014-12-28T10:41:52Z</time>
      </trkpt>
      <trkpt lat="47.58052" lon="-0.40721">
        <ele>43.4</ele>
        <time>2014-12-28T10:42:06Z</time>
      </trkpt>
      <trkpt lat="47.58045" lon="-0.40739">
        <ele>43.88</ele>
        <time>2014-12-28T10:42:18Z</time>
      </trkpt>
      <trkpt lat="47.58032" lon="-0.40769">
        <ele>45.32</ele>
        <time>2014-12-28T10:42:32Z</time>
      </trkpt>
      <trkpt lat="47.58015" lon="-0.40807">
        <ele>44.84</ele>
        <time>2014-12-28T10:42:47Z</time>
      </trkpt>
      <trkpt lat="47.58013" lon="-0.40811">
        <ele>44.84</ele>
        <time>2014-12-28T10:42:49Z</time>
      </trkpt>
      <trkpt lat="47.5801" lon="-0.40816">
        <ele>44.36</ele>
        <time>2014-12-28T10:42:52Z</time>
      </trkpt>
      <trkpt lat="47.58007" lon="-0.40821">
        <ele>44.36</ele>
        <time>2014-12-28T10:42:56Z</time>
      </trkpt>
      <trkpt lat="47.58006" lon="-0.40822">
        <ele>44.36</ele>
        <time>2014-12-28T10:42:57Z</time>
      </trkpt>
      <trkpt lat="47.58005" lon="-0.40823">
        <ele>43.88</ele>
        <time>2014-12-28T10:42:58Z</time>
      </trkpt>
      <trkpt lat="47.58004" lon="-0.40825">
        <ele>43.88</ele>
        <time>2014-12-28T10:42:59Z</time>
      </trkpt>
      <trkpt lat="47.58003" lon="-0.40827">
        <ele>43.88</ele>
        <time>2014-12-28T10:43:00Z</time>
      </trkpt>
      <trkpt lat="47.58001" lon="-0.40829">
        <ele>42.92</ele>
        <time>2014-12-28T10:43:01Z</time>
      </trkpt>
      <trkpt lat="47.58" lon="-0.40832">
        <ele>43.4</ele>
        <time>2014-12-28T10:43:02Z</time>
      </trkpt>
      <trkpt lat="47.57985" lon="-0.40871">
        <ele>41.95</ele>
        <time>2014-12-28T10:43:12Z</time>
      </trkpt>
      <trkpt lat="47.5797" lon="-0.40904">
        <ele>40.99</ele>
        <time>2014-12-28T10:43:19Z</time>
      </trkpt>
      <trkpt lat="47.57943" lon="-0.40961">
        <ele>41.47</ele>
        <time>2014-12-28T10:43:32Z</time>
      </trkpt>
      <trkpt lat="47.57921" lon="-0.41008">
        <ele>42.92</ele>
        <time>2014-12-28T10:43:44Z</time>
      </trkpt>
      <trkpt lat="47.57895" lon="-0.41065">
        <ele>44.36</ele>
        <time>2014-12-28T10:43:59Z</time>
      </trkpt>
      <trkpt lat="47.57867" lon="-0.41125">
        <ele>45.32</ele>
        <time>2014-12-28T10:44:14Z</time>
      </trkpt>
      <trkpt lat="47.57832" lon="-0.41198">
        <ele>45.8</ele>
        <time>2014-12-28T10:44:29Z</time>
      </trkpt>
      <trkpt lat="47.57809" lon="-0.41252">
        <ele>46.76</ele>
        <time>2014-12-28T10:44:42Z</time>
      </trkpt>
      <trkpt lat="47.57806" lon="-0.41267">
        <ele>46.28</ele>
        <time>2014-12-28T10:44:46Z</time>
      </trkpt>
      <trkpt lat="47.57807" lon="-0.4127">
        <ele>46.76</ele>
        <time>2014-12-28T10:44:47Z</time>
      </trkpt>
      <trkpt lat="47.57809" lon="-0.41272">
        <ele>46.76</ele>
        <time>2014-12-28T10:44:49Z</time>
      </trkpt>
      <trkpt lat="47.5784" lon="-0.4128">
        <ele>47.72</ele>
        <time>2014-12-28T10:45:02Z</time>
      </trkpt>
      <trkpt lat="47.57874" lon="-0.41287">
        <ele>48.68</ele>
        <time>2014-12-28T10:45:14Z</time>
      </trkpt>
      <trkpt lat="47.57904" lon="-0.41291">
        <ele>50.13</ele>
        <time>2014-12-28T10:45:27Z</time>
      </trkpt>
      <trkpt lat="47.57938" lon="-0.41297">
        <ele>51.57</ele>
        <time>2014-12-28T10:45:41Z</time>
      </trkpt>
      <trkpt lat="47.57971" lon="-0.41303">
        <ele>51.57</ele>
        <time>2014-12-28T10:45:54Z</time>
      </trkpt>
      <trkpt lat="47.58" lon="-0.41313">
        <ele>52.53</ele>
        <time>2014-12-28T10:46:07Z</time>
      </trkpt>
      <trkpt lat="47.58011" lon="-0.41312">
        <ele>52.05</ele>
        <time>2014-12-28T10:46:13Z</time>
      </trkpt>
      <trkpt lat="47.58013" lon="-0.41312">
        <ele>53.01</ele>
        <time>2014-12-28T10:46:14Z</time>
      </trkpt>
      <trkpt lat="47.58044" lon="-0.41319">
        <ele>53.01</ele>
        <time>2014-12-28T10:46:25Z</time>
      </trkpt>
      <trkpt lat="47.58079" lon="-0.41325">
        <ele>53.01</ele>
        <time>2014-12-28T10:46:38Z</time>
      </trkpt>
      <trkpt lat="47.58138" lon="-0.41334">
        <ele>53.01</ele>
        <time>2014-12-28T10:46:54Z</time>
      </trkpt>
      <trkpt lat="47.58179" lon="-0.41321">
        <ele>52.53</ele>
        <time>2014-12-28T10:47:05Z</time>
      </trkpt>
      <trkpt lat="47.58217" lon="-0.41314">
        <ele>52.05</ele>
        <time>2014-12-28T10:47:17Z</time>
      </trkpt>
      <trkpt lat="47.58225" lon="-0.41317">
        <ele>51.57</ele>
        <time>2014-12-28T10:47:27Z</time>
      </trkpt>
      <trkpt lat="47.58229" lon="-0.41315">
        <ele>52.53</ele>
        <time>2014-12-28T10:47:32Z</time>
      </trkpt>
      <trkpt lat="47.58229" lon="-0.41313">
        <ele>52.53</ele>
        <time>2014-12-28T10:47:33Z</time>
      </trkpt>
      <trkpt lat="47.5823" lon="-0.4131">
        <ele>53.01</ele>
        <time>2014-12-28T10:47:34Z</time>
      </trkpt>
      <trkpt lat="47.58231" lon="-0.41307">
        <ele>52.53</ele>
        <time>2014-12-28T10:47:35Z</time>
      </trkpt>
      <trkpt lat="47.58232" lon="-0.41303">
        <ele>52.05</ele>
        <time>2014-12-28T10:47:36Z</time>
      </trkpt>
      <trkpt lat="47.58232" lon="-0.41299">
        <ele>52.05</ele>
        <time>2014-12-28T10:47:37Z</time>
      </trkpt>
      <trkpt lat="47.58233" lon="-0.41296">
        <ele>52.05</ele>
        <time>2014-12-28T10:47:38Z</time>
      </trkpt>
      <trkpt lat="47.58233" lon="-0.41291">
        <ele>51.57</ele>
        <time>2014-12-28T10:47:39Z</time>
      </trkpt>
      <trkpt lat="47.58233" lon="-0.41287">
        <ele>51.09</ele>
        <time>2014-12-28T10:47:40Z</time>
      </trkpt>
      <trkpt lat="47.58234" lon="-0.41282">
        <ele>51.09</ele>
        <time>2014-12-28T10:47:41Z</time>
      </trkpt>
      <trkpt lat="47.58235" lon="-0.41278">
        <ele>50.61</ele>
        <time>2014-12-28T10:47:42Z</time>
      </trkpt>
      <trkpt lat="47.58235" lon="-0.41273">
        <ele>50.61</ele>
        <time>2014-12-28T10:47:43Z</time>
      </trkpt>
      <trkpt lat="47.58237" lon="-0.41269">
        <ele>51.09</ele>
        <time>2014-12-28T10:47:44Z</time>
      </trkpt>
      <trkpt lat="47.58238" lon="-0.41264">
        <ele>51.09</ele>
        <time>2014-12-28T10:47:45Z</time>
      </trkpt>
      <trkpt lat="47.58239" lon="-0.4126">
        <ele>51.57</ele>
        <time>2014-12-28T10:47:46Z</time>
      </trkpt>
      <trkpt lat="47.58245" lon="-0.41235">
        <ele>50.13</ele>
        <time>2014-12-28T10:47:56Z</time>
      </trkpt>
      <trkpt lat="47.58247" lon="-0.41233">
        <ele>49.16</ele>
        <time>2014-12-28T10:48:00Z</time>
      </trkpt>
      <trkpt lat="47.58247" lon="-0.41232">
        <ele>49.16</ele>
        <time>2014-12-28T10:48:01Z</time>
      </trkpt>
      <trkpt lat="47.58245" lon="-0.41225">
        <ele>50.13</ele>
        <time>2014-12-28T10:48:18Z</time>
      </trkpt>
      <trkpt lat="47.58246" lon="-0.41226">
        <ele>50.13</ele>
        <time>2014-12-28T10:48:49Z</time>
      </trkpt>
      <trkpt lat="47.58249" lon="-0.41224">
        <ele>50.13</ele>
        <time>2014-12-28T10:49:19Z</time>
      </trkpt>
      <trkpt lat="47.58248" lon="-0.41224">
        <ele>49.65</ele>
        <time>2014-12-28T10:49:39Z</time>
      </trkpt>
      <trkpt lat="47.58248" lon="-0.41222">
        <ele>49.16</ele>
        <time>2014-12-28T10:50:01Z</time>
      </trkpt>
      <trkpt lat="47.5825" lon="-0.41205">
        <ele>48.68</ele>
        <time>2014-12-28T10:50:16Z</time>
      </trkpt>
      <trkpt lat="47.5826" lon="-0.4117">
        <ele>46.76</ele>
        <time>2014-12-28T10:50:23Z</time>
      </trkpt>
      <trkpt lat="47.58272" lon="-0.41113">
        <ele>44.36</ele>
        <time>2014-12-28T10:50:31Z</time>
      </trkpt>
      <trkpt lat="47.58284" lon="-0.4106">
        <ele>41.95</ele>
        <time>2014-12-28T10:50:39Z</time>
      </trkpt>
      <trkpt lat="47.58288" lon="-0.41047">
        <ele>41.47</ele>
        <time>2014-12-28T10:50:41Z</time>
      </trkpt>
      <trkpt lat="47.58299" lon="-0.41022">
        <ele>40.03</ele>
        <time>2014-12-28T10:50:45Z</time>
      </trkpt>
      <trkpt lat="47.58313" lon="-0.40982">
        <ele>37.15</ele>
        <time>2014-12-28T10:50:51Z</time>
      </trkpt>
      <trkpt lat="47.58315" lon="-0.40977">
        <ele>36.67</ele>
        <time>2014-12-28T10:50:52Z</time>
      </trkpt>
      <trkpt lat="47.58329" lon="-0.40942">
        <ele>34.26</ele>
        <time>2014-12-28T10:50:58Z</time>
      </trkpt>
      <trkpt lat="47.58332" lon="-0.40936">
        <ele>34.26</ele>
        <time>2014-12-28T10:50:59Z</time>
      </trkpt>
      <trkpt lat="47.58337" lon="-0.40924">
        <ele>33.3</ele>
        <time>2014-12-28T10:51:01Z</time>
      </trkpt>
      <trkpt lat="47.58363" lon="-0.40861">
        <ele>32.34</ele>
        <time>2014-12-28T10:51:13Z</time>
      </trkpt>
      <trkpt lat="47.58386" lon="-0.40801">
        <ele>31.38</ele>
        <time>2014-12-28T10:51:25Z</time>
      </trkpt>
      <trkpt lat="47.58402" lon="-0.40758">
        <ele>30.42</ele>
        <time>2014-12-28T10:51:33Z</time>
      </trkpt>
      <trkpt lat="47.58428" lon="-0.4069">
        <ele>27.53</ele>
        <time>2014-12-28T10:51:48Z</time>
      </trkpt>
      <trkpt lat="47.58421" lon="-0.40653">
        <ele>27.05</ele>
        <time>2014-12-28T10:51:57Z</time>
      </trkpt>
      <trkpt lat="47.58376" lon="-0.40613">
        <ele>27.05</ele>
        <time>2014-12-28T10:52:13Z</time>
      </trkpt>
      <trkpt lat="47.58344" lon="-0.40595">
        <ele>27.05</ele>
        <time>2014-12-28T10:52:26Z</time>
      </trkpt>
      <trkpt lat="47.58344" lon="-0.40595">
        <ele>28.02</ele>
        <time>2014-12-28T10:52:36Z</time>
      </trkpt>
      <trkpt lat="47.58348" lon="-0.40597">
        <ele>27.53</ele>
        <time>2014-12-28T10:52:39Z</time>
      </trkpt>
      <trkpt lat="47.58368" lon="-0.40611">
        <ele>27.05</ele>
        <time>2014-12-28T10:52:50Z</time>
      </trkpt>
      <trkpt lat="47.58404" lon="-0.40636">
        <ele>27.05</ele>
        <time>2014-12-28T10:53:04Z</time>
      </trkpt>
      <trkpt lat="47.58429" lon="-0.40672">
        <ele>26.57</ele>
        <time>2014-12-28T10:53:18Z</time>
      </trkpt>
      <trkpt lat="47.58433" lon="-0.40674">
        <ele>27.05</ele>
        <time>2014-12-28T10:53:30Z</time>
      </trkpt>
      <trkpt lat="47.58433" lon="-0.40673">
        <ele>27.05</ele>
        <time>2014-12-28T10:53:32Z</time>
      </trkpt>
      <trkpt lat="47.58432" lon="-0.40671">
        <ele>26.09</ele>
        <time>2014-12-28T10:53:33Z</time>
      </trkpt>
      <trkpt lat="47.58426" lon="-0.40657">
        <ele>27.05</ele>
        <time>2014-12-28T10:53:46Z</time>
      </trkpt>
      <trkpt lat="47.58412" lon="-0.40637">
        <ele>27.53</ele>
        <time>2014-12-28T10:54:03Z</time>
      </trkpt>
      <trkpt lat="47.58413" lon="-0.40634">
        <ele>28.98</ele>
        <time>2014-12-28T10:54:15Z</time>
      </trkpt>
      <trkpt lat="47.58413" lon="-0.4063">
        <ele>26.09</ele>
        <time>2014-12-28T10:54:28Z</time>
      </trkpt>
      <trkpt lat="47.58414" lon="-0.4063">
        <ele>26.09</ele>
        <time>2014-12-28T10:54:38Z</time>
      </trkpt>
      <trkpt lat="47.58414" lon="-0.40632">
        <ele>27.53</ele>
        <time>2014-12-28T10:54:49Z</time>
      </trkpt>
      <trkpt lat="47.58418" lon="-0.40634">
        <ele>26.57</ele>
        <time>2014-12-28T10:55:05Z</time>
      </trkpt>
      <trkpt lat="47.58415" lon="-0.40633">
        <ele>28.02</ele>
        <time>2014-12-28T10:55:27Z</time>
      </trkpt>
      <trkpt lat="47.58416" lon="-0.40633">
        <ele>26.57</ele>
        <time>2014-12-28T10:55:44Z</time>
      </trkpt>
      <trkpt lat="47.58421" lon="-0.4064">
        <ele>20.81</ele>
        <time>2014-12-28T10:55:48Z</time>
      </trkpt>
      <trkpt lat="47.58423" lon="-0.40643">
        <ele>31.86</ele>
        <time>2014-12-28T10:55:49Z</time>
      </trkpt>
      <trkpt lat="47.58425" lon="-0.40645">
        <ele>26.57</ele>
        <time>2014-12-28T10:55:50Z</time>
      </trkpt>
      <trkpt lat="47.58446" lon="-0.40697">
        <ele>28.02</ele>
        <time>2014-12-28T10:56:03Z</time>
      </trkpt>
      <trkpt lat="47.58446" lon="-0.40775">
        <ele>29.94</ele>
        <time>2014-12-28T10:56:18Z</time>
      </trkpt>
      <trkpt lat="47.58445" lon="-0.40848">
        <ele>31.86</ele>
        <time>2014-12-28T10:56:33Z</time>
      </trkpt>
      <trkpt lat="47.58454" lon="-0.40894">
        <ele>34.74</ele>
        <time>2014-12-28T10:56:44Z</time>
      </trkpt>
      <trkpt lat="47.58477" lon="-0.40933">
        <ele>38.11</ele>
        <time>2014-12-28T10:56:58Z</time>
      </trkpt>
      <trkpt lat="47.58505" lon="-0.40961">
        <ele>40.99</ele>
        <time>2014-12-28T10:57:14Z</time>
      </trkpt>
      <trkpt lat="47.5851" lon="-0.40966">
        <ele>42.44</ele>
        <time>2014-12-28T10:57:17Z</time>
      </trkpt>
      <trkpt lat="47.58536" lon="-0.40993">
        <ele>44.84</ele>
        <time>2014-12-28T10:57:34Z</time>
      </trkpt>
      <trkpt lat="47.58555" lon="-0.41027">
        <ele>46.76</ele>
        <time>2014-12-28T10:57:49Z</time>
      </trkpt>
      <trkpt lat="47.58574" lon="-0.41074">
        <ele>49.16</ele>
        <time>2014-12-28T10:58:07Z</time>
      </trkpt>
      <trkpt lat="47.58587" lon="-0.41117">
        <ele>50.61</ele>
        <time>2014-12-28T10:58:22Z</time>
      </trkpt>
      <trkpt lat="47.58596" lon="-0.41167">
        <ele>52.05</ele>
        <time>2014-12-28T10:58:36Z</time>
      </trkpt>
      <trkpt lat="47.5861" lon="-0.41238">
        <ele>52.05</ele>
        <time>2014-12-28T10:58:53Z</time>
      </trkpt>
      <trkpt lat="47.58664" lon="-0.4126">
        <ele>52.05</ele>
        <time>2014-12-28T10:59:07Z</time>
      </trkpt>
      <trkpt lat="47.58679" lon="-0.41251">
        <ele>53.49</ele>
        <time>2014-12-28T10:59:11Z</time>
      </trkpt>
      <trkpt lat="47.58695" lon="-0.41242">
        <ele>53.01</ele>
        <time>2014-12-28T10:59:15Z</time>
      </trkpt>
      <trkpt lat="47.58699" lon="-0.41241">
        <ele>52.53</ele>
        <time>2014-12-28T10:59:16Z</time>
      </trkpt>
      <trkpt lat="47.5875" lon="-0.41225">
        <ele>53.49</ele>
        <time>2014-12-28T10:59:29Z</time>
      </trkpt>
      <trkpt lat="47.58754" lon="-0.41223">
        <ele>53.49</ele>
        <time>2014-12-28T10:59:30Z</time>
      </trkpt>
      <trkpt lat="47.58828" lon="-0.412">
        <ele>52.05</ele>
        <time>2014-12-28T10:59:47Z</time>
      </trkpt>
      <trkpt lat="47.58896" lon="-0.41178">
        <ele>51.09</ele>
        <time>2014-12-28T11:00:03Z</time>
      </trkpt>
      <trkpt lat="47.58932" lon="-0.41164">
        <ele>51.09</ele>
        <time>2014-12-28T11:00:13Z</time>
      </trkpt>
      <trkpt lat="47.58937" lon="-0.41162">
        <ele>50.61</ele>
        <time>2014-12-28T11:00:14Z</time>
      </trkpt>
      <trkpt lat="47.58941" lon="-0.41162">
        <ele>50.61</ele>
        <time>2014-12-28T11:00:15Z</time>
      </trkpt>
      <trkpt lat="47.58945" lon="-0.41161">
        <ele>50.61</ele>
        <time>2014-12-28T11:00:16Z</time>
      </trkpt>
      <trkpt lat="47.5895" lon="-0.4116">
        <ele>50.13</ele>
        <time>2014-12-28T11:00:17Z</time>
      </trkpt>
      <trkpt lat="47.58954" lon="-0.41158">
        <ele>50.13</ele>
        <time>2014-12-28T11:00:18Z</time>
      </trkpt>
      <trkpt lat="47.58959" lon="-0.41156">
        <ele>49.65</ele>
        <time>2014-12-28T11:00:19Z</time>
      </trkpt>
      <trkpt lat="47.58996" lon="-0.41145">
        <ele>47.24</ele>
        <time>2014-12-28T11:00:26Z</time>
      </trkpt>
      <trkpt lat="47.59045" lon="-0.41135">
        <ele>43.88</ele>
        <time>2014-12-28T11:00:33Z</time>
      </trkpt>
      <trkpt lat="47.59053" lon="-0.41134">
        <ele>43.88</ele>
        <time>2014-12-28T11:00:34Z</time>
      </trkpt>
      <trkpt lat="47.59079" lon="-0.41133">
        <ele>40.99</ele>
        <time>2014-12-28T11:00:37Z</time>
      </trkpt>
      <trkpt lat="47.59115" lon="-0.41133">
        <ele>38.59</ele>
        <time>2014-12-28T11:00:41Z</time>
      </trkpt>
      <trkpt lat="47.59206" lon="-0.41121">
        <ele>37.15</ele>
        <time>2014-12-28T11:00:53Z</time>
      </trkpt>
      <trkpt lat="47.59211" lon="-0.41119">
        <ele>37.15</ele>
        <time>2014-12-28T11:00:54Z</time>
      </trkpt>
      <trkpt lat="47.59217" lon="-0.41118">
        <ele>37.15</ele>
        <time>2014-12-28T11:00:55Z</time>
      </trkpt>
      <trkpt lat="47.59231" lon="-0.41113">
        <ele>36.19</ele>
        <time>2014-12-28T11:00:58Z</time>
      </trkpt>
      <trkpt lat="47.59236" lon="-0.4111">
        <ele>35.71</ele>
        <time>2014-12-28T11:00:59Z</time>
      </trkpt>
      <trkpt lat="47.59241" lon="-0.41106">
        <ele>36.19</ele>
        <time>2014-12-28T11:01:00Z</time>
      </trkpt>
      <trkpt lat="47.59245" lon="-0.41102">
        <ele>35.71</ele>
        <time>2014-12-28T11:01:01Z</time>
      </trkpt>
      <trkpt lat="47.59248" lon="-0.41097">
        <ele>34.26</ele>
        <time>2014-12-28T11:01:02Z</time>
      </trkpt>
      <trkpt lat="47.5925" lon="-0.41095">
        <ele>33.78</ele>
        <time>2014-12-28T11:01:03Z</time>
      </trkpt>
      <trkpt lat="47.59252" lon="-0.41095">
        <ele>32.82</ele>
        <time>2014-12-28T11:01:04Z</time>
      </trkpt>
      <trkpt lat="47.59254" lon="-0.41096">
        <ele>33.3</ele>
        <time>2014-12-28T11:01:05Z</time>
      </trkpt>
      <trkpt lat="47.59257" lon="-0.41098">
        <ele>33.3</ele>
        <time>2014-12-28T11:01:06Z</time>
      </trkpt>
      <trkpt lat="47.5926" lon="-0.411">
        <ele>33.3</ele>
        <time>2014-12-28T11:01:07Z</time>
      </trkpt>
      <trkpt lat="47.59263" lon="-0.41102">
        <ele>33.3</ele>
        <time>2014-12-28T11:01:08Z</time>
      </trkpt>
      <trkpt lat="47.59267" lon="-0.41103">
        <ele>33.78</ele>
        <time>2014-12-28T11:01:09Z</time>
      </trkpt>
      <trkpt lat="47.5927" lon="-0.41104">
        <ele>33.78</ele>
        <time>2014-12-28T11:01:10Z</time>
      </trkpt>
      <trkpt lat="47.59309" lon="-0.41125">
        <ele>33.78</ele>
        <time>2014-12-28T11:01:21Z</time>
      </trkpt>
      <trkpt lat="47.5933" lon="-0.4114">
        <ele>33.3</ele>
        <time>2014-12-28T11:01:26Z</time>
      </trkpt>
      <trkpt lat="47.59346" lon="-0.4115">
        <ele>32.34</ele>
        <time>2014-12-28T11:01:30Z</time>
      </trkpt>
      <trkpt lat="47.59349" lon="-0.41156">
        <ele>32.82</ele>
        <time>2014-12-28T11:01:31Z</time>
      </trkpt>
      <trkpt lat="47.59352" lon="-0.41163">
        <ele>31.86</ele>
        <time>2014-12-28T11:01:32Z</time>
      </trkpt>
      <trkpt lat="47.59355" lon="-0.41171">
        <ele>31.86</ele>
        <time>2014-12-28T11:01:33Z</time>
      </trkpt>
      <trkpt lat="47.59355" lon="-0.41177">
        <ele>31.86</ele>
        <time>2014-12-28T11:01:34Z</time>
      </trkpt>
      <trkpt lat="47.59355" lon="-0.41183">
        <ele>31.86</ele>
        <time>2014-12-28T11:01:35Z</time>
      </trkpt>
      <trkpt lat="47.59354" lon="-0.41188">
        <ele>32.82</ele>
        <time>2014-12-28T11:01:36Z</time>
      </trkpt>
      <trkpt lat="47.59352" lon="-0.41198">
        <ele>33.3</ele>
        <time>2014-12-28T11:01:38Z</time>
      </trkpt>
      <trkpt lat="47.5935" lon="-0.41218">
        <ele>35.23</ele>
        <time>2014-12-28T11:01:43Z</time>
      </trkpt>
      <trkpt lat="47.5935" lon="-0.4124">
        <ele>36.67</ele>
        <time>2014-12-28T11:01:50Z</time>
      </trkpt>
      <trkpt lat="47.5935" lon="-0.41244">
        <ele>37.15</ele>
        <time>2014-12-28T11:01:51Z</time>
      </trkpt>
      <trkpt lat="47.59349" lon="-0.41264">
        <ele>38.11</ele>
        <time>2014-12-28T11:01:57Z</time>
      </trkpt>
      <trkpt lat="47.59348" lon="-0.41267">
        <ele>39.07</ele>
        <time>2014-12-28T11:01:58Z</time>
      </trkpt>
      <trkpt lat="47.59348" lon="-0.4127">
        <ele>39.07</ele>
        <time>2014-12-28T11:01:59Z</time>
      </trkpt>
      <trkpt lat="47.59347" lon="-0.41272">
        <ele>38.59</ele>
        <time>2014-12-28T11:02:00Z</time>
      </trkpt>
      <trkpt lat="47.59347" lon="-0.41275">
        <ele>39.07</ele>
        <time>2014-12-28T11:02:01Z</time>
      </trkpt>
      <trkpt lat="47.59347" lon="-0.41277">
        <ele>39.55</ele>
        <time>2014-12-28T11:02:02Z</time>
      </trkpt>
      <trkpt lat="47.59347" lon="-0.4128">
        <ele>39.07</ele>
        <time>2014-12-28T11:02:03Z</time>
      </trkpt>
      <trkpt lat="47.59346" lon="-0.41283">
        <ele>39.55</ele>
        <time>2014-12-28T11:02:04Z</time>
      </trkpt>
      <trkpt lat="47.59344" lon="-0.41304">
        <ele>40.99</ele>
        <time>2014-12-28T11:02:13Z</time>
      </trkpt>
      <trkpt lat="47.59362" lon="-0.41326">
        <ele>39.55</ele>
        <time>2014-12-28T11:02:22Z</time>
      </trkpt>
      <trkpt lat="47.5938" lon="-0.41355">
        <ele>40.03</ele>
        <time>2014-12-28T11:02:30Z</time>
      </trkpt>
      <trkpt lat="47.59392" lon="-0.41365">
        <ele>39.55</ele>
        <time>2014-12-28T11:02:36Z</time>
      </trkpt>
      <trkpt lat="47.59407" lon="-0.41376">
        <ele>40.51</ele>
        <time>2014-12-28T11:02:43Z</time>
      </trkpt>
      <trkpt lat="47.59428" lon="-0.41391">
        <ele>42.44</ele>
        <time>2014-12-28T11:02:53Z</time>
      </trkpt>
      <trkpt lat="47.5944" lon="-0.41405">
        <ele>43.4</ele>
        <time>2014-12-28T11:03:01Z</time>
      </trkpt>
      <trkpt lat="47.59441" lon="-0.41409">
        <ele>43.4</ele>
        <time>2014-12-28T11:03:03Z</time>
      </trkpt>
      <trkpt lat="47.59448" lon="-0.41412">
        <ele>43.88</ele>
        <time>2014-12-28T11:03:07Z</time>
      </trkpt>
      <trkpt lat="47.59461" lon="-0.41429">
        <ele>44.84</ele>
        <time>2014-12-28T11:03:19Z</time>
      </trkpt>
      <trkpt lat="47.59487" lon="-0.41447">
        <ele>45.32</ele>
        <time>2014-12-28T11:03:29Z</time>
      </trkpt>
      <trkpt lat="47.59506" lon="-0.41471">
        <ele>45.32</ele>
        <time>2014-12-28T11:03:38Z</time>
      </trkpt>
      <trkpt lat="47.59504" lon="-0.41484">
        <ele>46.28</ele>
        <time>2014-12-28T11:03:43Z</time>
      </trkpt>
      <trkpt lat="47.59504" lon="-0.41531">
        <ele>49.16</ele>
        <time>2014-12-28T11:03:59Z</time>
      </trkpt>
      <trkpt lat="47.59506" lon="-0.41577">
        <ele>50.13</ele>
        <time>2014-12-28T11:04:13Z</time>
      </trkpt>
      <trkpt lat="47.59505" lon="-0.41593">
        <ele>49.65</ele>
        <time>2014-12-28T11:04:17Z</time>
      </trkpt>
      <trkpt lat="47.59504" lon="-0.41596">
        <ele>50.13</ele>
        <time>2014-12-28T11:04:18Z</time>
      </trkpt>
      <trkpt lat="47.59494" lon="-0.41623">
        <ele>50.61</ele>
        <time>2014-12-28T11:04:28Z</time>
      </trkpt>
      <trkpt lat="47.59492" lon="-0.41625">
        <ele>50.61</ele>
        <time>2014-12-28T11:04:29Z</time>
      </trkpt>
      <trkpt lat="47.5949" lon="-0.41627">
        <ele>51.09</ele>
        <time>2014-12-28T11:04:30Z</time>
      </trkpt>
      <trkpt lat="47.59459" lon="-0.41655">
        <ele>51.09</ele>
        <time>2014-12-28T11:04:43Z</time>
      </trkpt>
      <trkpt lat="47.5942" lon="-0.41689">
        <ele>51.57</ele>
        <time>2014-12-28T11:04:57Z</time>
      </trkpt>
      <trkpt lat="47.59374" lon="-0.41726">
        <ele>51.57</ele>
        <time>2014-12-28T11:05:10Z</time>
      </trkpt>
      <trkpt lat="47.59332" lon="-0.41762">
        <ele>51.09</ele>
        <time>2014-12-28T11:05:23Z</time>
      </trkpt>
      <trkpt lat="47.59317" lon="-0.41767">
        <ele>50.61</ele>
        <time>2014-12-28T11:05:27Z</time>
      </trkpt>
      <trkpt lat="47.59314" lon="-0.41764">
        <ele>50.61</ele>
        <time>2014-12-28T11:05:28Z</time>
      </trkpt>
      <trkpt lat="47.59312" lon="-0.41759">
        <ele>50.61</ele>
        <time>2014-12-28T11:05:29Z</time>
      </trkpt>
      <trkpt lat="47.59311" lon="-0.41754">
        <ele>50.61</ele>
        <time>2014-12-28T11:05:30Z</time>
      </trkpt>
      <trkpt lat="47.5931" lon="-0.41748">
        <ele>50.61</ele>
        <time>2014-12-28T11:05:31Z</time>
      </trkpt>
      <trkpt lat="47.59301" lon="-0.41675">
        <ele>52.05</ele>
        <time>2014-12-28T11:05:45Z</time>
      </trkpt>
      <trkpt lat="47.593" lon="-0.41653">
        <ele>53.01</ele>
        <time>2014-12-28T11:05:49Z</time>
      </trkpt>
      <trkpt lat="47.59299" lon="-0.41647">
        <ele>53.01</ele>
        <time>2014-12-28T11:05:50Z</time>
      </trkpt>
      <trkpt lat="47.59299" lon="-0.41642">
        <ele>52.53</ele>
        <time>2014-12-28T11:05:51Z</time>
      </trkpt>
      <trkpt lat="47.59293" lon="-0.41563">
        <ele>52.53</ele>
        <time>2014-12-28T11:06:04Z</time>
      </trkpt>
      <trkpt lat="47.59299" lon="-0.41482">
        <ele>52.05</ele>
        <time>2014-12-28T11:06:18Z</time>
      </trkpt>
      <trkpt lat="47.59307" lon="-0.41421">
        <ele>52.05</ele>
        <time>2014-12-28T11:06:27Z</time>
      </trkpt>
      <trkpt lat="47.59307" lon="-0.41414">
        <ele>52.05</ele>
        <time>2014-12-28T11:06:28Z</time>
      </trkpt>
      <trkpt lat="47.59306" lon="-0.41394">
        <ele>51.09</ele>
        <time>2014-12-28T11:06:31Z</time>
      </trkpt>
      <trkpt lat="47.59291" lon="-0.41332">
        <ele>49.16</ele>
        <time>2014-12-28T11:06:42Z</time>
      </trkpt>
      <trkpt lat="47.59266" lon="-0.4128">
        <ele>45.8</ele>
        <time>2014-12-28T11:06:49Z</time>
      </trkpt>
      <trkpt lat="47.59249" lon="-0.41243">
        <ele>43.4</ele>
        <time>2014-12-28T11:06:53Z</time>
      </trkpt>
      <trkpt lat="47.5922" lon="-0.41177">
        <ele>39.55</ele>
        <time>2014-12-28T11:07:00Z</time>
      </trkpt>
      <trkpt lat="47.59216" lon="-0.41168">
        <ele>40.03</ele>
        <time>2014-12-28T11:07:01Z</time>
      </trkpt>
      <trkpt lat="47.59201" lon="-0.41136">
        <ele>37.15</ele>
        <time>2014-12-28T11:07:05Z</time>
      </trkpt>
      <trkpt lat="47.59199" lon="-0.4113">
        <ele>37.15</ele>
        <time>2014-12-28T11:07:06Z</time>
      </trkpt>
      <trkpt lat="47.59191" lon="-0.41118">
        <ele>35.23</ele>
        <time>2014-12-28T11:07:09Z</time>
      </trkpt>
      <trkpt lat="47.59188" lon="-0.41118">
        <ele>35.71</ele>
        <time>2014-12-28T11:07:10Z</time>
      </trkpt>
      <trkpt lat="47.59183" lon="-0.41119">
        <ele>35.23</ele>
        <time>2014-12-28T11:07:11Z</time>
      </trkpt>
      <trkpt lat="47.59167" lon="-0.41126">
        <ele>35.71</ele>
        <time>2014-12-28T11:07:15Z</time>
      </trkpt>
      <trkpt lat="47.59163" lon="-0.41127">
        <ele>35.71</ele>
        <time>2014-12-28T11:07:16Z</time>
      </trkpt>
      <trkpt lat="47.59094" lon="-0.41135">
        <ele>37.63</ele>
        <time>2014-12-28T11:07:33Z</time>
      </trkpt>
      <trkpt lat="47.59086" lon="-0.41136">
        <ele>39.07</ele>
        <time>2014-12-28T11:07:35Z</time>
      </trkpt>
      <trkpt lat="47.59069" lon="-0.41137">
        <ele>40.51</ele>
        <time>2014-12-28T11:07:40Z</time>
      </trkpt>
      <trkpt lat="47.59042" lon="-0.4114">
        <ele>42.92</ele>
        <time>2014-12-28T11:07:49Z</time>
      </trkpt>
      <trkpt lat="47.59006" lon="-0.41146">
        <ele>46.28</ele>
        <time>2014-12-28T11:08:02Z</time>
      </trkpt>
      <trkpt lat="47.58975" lon="-0.41154">
        <ele>48.68</ele>
        <time>2014-12-28T11:08:18Z</time>
      </trkpt>
      <trkpt lat="47.58967" lon="-0.41161">
        <ele>50.13</ele>
        <time>2014-12-28T11:08:23Z</time>
      </trkpt>
      <trkpt lat="47.58973" lon="-0.41202">
        <ele>51.09</ele>
        <time>2014-12-28T11:08:36Z</time>
      </trkpt>
      <trkpt lat="47.58988" lon="-0.41257">
        <ele>52.53</ele>
        <time>2014-12-28T11:08:51Z</time>
      </trkpt>
      <trkpt lat="47.59003" lon="-0.41314">
        <ele>53.49</ele>
        <time>2014-12-28T11:09:06Z</time>
      </trkpt>
      <trkpt lat="47.59021" lon="-0.41389">
        <ele>54.45</ele>
        <time>2014-12-28T11:09:22Z</time>
      </trkpt>
      <trkpt lat="47.59047" lon="-0.41466">
        <ele>54.45</ele>
        <time>2014-12-28T11:09:37Z</time>
      </trkpt>
      <trkpt lat="47.59057" lon="-0.41498">
        <ele>53.49</ele>
        <time>2014-12-28T11:09:48Z</time>
      </trkpt>
      <trkpt lat="47.59056" lon="-0.41497">
        <ele>53.49</ele>
        <time>2014-12-28T11:09:49Z</time>
      </trkpt>
      <trkpt lat="47.59055" lon="-0.41496">
        <ele>53.01</ele>
        <time>2014-12-28T11:09:50Z</time>
      </trkpt>
      <trkpt lat="47.59054" lon="-0.41494">
        <ele>53.49</ele>
        <time>2014-12-28T11:09:51Z</time>
      </trkpt>
      <trkpt lat="47.59053" lon="-0.41491">
        <ele>53.49</ele>
        <time>2014-12-28T11:09:52Z</time>
      </trkpt>
      <trkpt lat="47.59052" lon="-0.41487">
        <ele>53.49</ele>
        <time>2014-12-28T11:09:53Z</time>
      </trkpt>
      <trkpt lat="47.59051" lon="-0.41482">
        <ele>53.97</ele>
        <time>2014-12-28T11:09:54Z</time>
      </trkpt>
      <trkpt lat="47.59048" lon="-0.41473">
        <ele>53.01</ele>
        <time>2014-12-28T11:09:56Z</time>
      </trkpt>
      <trkpt lat="47.59008" lon="-0.41467">
        <ele>53.97</ele>
        <time>2014-12-28T11:10:06Z</time>
      </trkpt>
      <trkpt lat="47.58979" lon="-0.41463">
        <ele>53.97</ele>
        <time>2014-12-28T11:10:13Z</time>
      </trkpt>
      <trkpt lat="47.58916" lon="-0.41452">
        <ele>53.01</ele>
        <time>2014-12-28T11:10:28Z</time>
      </trkpt>
      <trkpt lat="47.589" lon="-0.41452">
        <ele>53.49</ele>
        <time>2014-12-28T11:10:32Z</time>
      </trkpt>
      <trkpt lat="47.58897" lon="-0.41437">
        <ele>53.49</ele>
        <time>2014-12-28T11:10:36Z</time>
      </trkpt>
      <trkpt lat="47.58904" lon="-0.4135">
        <ele>53.97</ele>
        <time>2014-12-28T11:10:50Z</time>
      </trkpt>
      <trkpt lat="47.5889" lon="-0.41295">
        <ele>53.97</ele>
        <time>2014-12-28T11:11:00Z</time>
      </trkpt>
      <trkpt lat="47.58878" lon="-0.41292">
        <ele>53.97</ele>
        <time>2014-12-28T11:11:03Z</time>
      </trkpt>
      <trkpt lat="47.58865" lon="-0.41286">
        <ele>53.97</ele>
        <time>2014-12-28T11:11:06Z</time>
      </trkpt>
      <trkpt lat="47.58803" lon="-0.41265">
        <ele>53.01</ele>
        <time>2014-12-28T11:11:21Z</time>
      </trkpt>
      <trkpt lat="47.58743" lon="-0.41272">
        <ele>53.97</ele>
        <time>2014-12-28T11:11:36Z</time>
      </trkpt>
      <trkpt lat="47.58706" lon="-0.41269">
        <ele>53.49</ele>
        <time>2014-12-28T11:11:46Z</time>
      </trkpt>
      <trkpt lat="47.58705" lon="-0.41272">
        <ele>53.01</ele>
        <time>2014-12-28T11:11:47Z</time>
      </trkpt>
      <trkpt lat="47.58705" lon="-0.41276">
        <ele>53.49</ele>
        <time>2014-12-28T11:11:48Z</time>
      </trkpt>
      <trkpt lat="47.58705" lon="-0.41281">
        <ele>53.49</ele>
        <time>2014-12-28T11:11:49Z</time>
      </trkpt>
      <trkpt lat="47.58705" lon="-0.41286">
        <ele>53.97</ele>
        <time>2014-12-28T11:11:50Z</time>
      </trkpt>
      <trkpt lat="47.58706" lon="-0.41292">
        <ele>53.97</ele>
        <time>2014-12-28T11:11:51Z</time>
      </trkpt>
      <trkpt lat="47.58707" lon="-0.41297">
        <ele>53.97</ele>
        <time>2014-12-28T11:11:52Z</time>
      </trkpt>
      <trkpt lat="47.58707" lon="-0.41303">
        <ele>54.45</ele>
        <time>2014-12-28T11:11:53Z</time>
      </trkpt>
      <trkpt lat="47.58707" lon="-0.4131">
        <ele>54.45</ele>
        <time>2014-12-28T11:11:54Z</time>
      </trkpt>
      <trkpt lat="47.58707" lon="-0.41316">
        <ele>54.45</ele>
        <time>2014-12-28T11:11:55Z</time>
      </trkpt>
      <trkpt lat="47.58707" lon="-0.41322">
        <ele>54.45</ele>
        <time>2014-12-28T11:11:56Z</time>
      </trkpt>
      <trkpt lat="47.58708" lon="-0.41328">
        <ele>53.97</ele>
        <time>2014-12-28T11:11:57Z</time>
      </trkpt>
      <trkpt lat="47.5872" lon="-0.41418">
        <ele>54.45</ele>
        <time>2014-12-28T11:12:11Z</time>
      </trkpt>
      <trkpt lat="47.58731" lon="-0.41528">
        <ele>54.45</ele>
        <time>2014-12-28T11:12:28Z</time>
      </trkpt>
      <trkpt lat="47.58734" lon="-0.41604">
        <ele>53.97</ele>
        <time>2014-12-28T11:12:39Z</time>
      </trkpt>
      <trkpt lat="47.58733" lon="-0.41611">
        <ele>53.97</ele>
        <time>2014-12-28T11:12:40Z</time>
      </trkpt>
      <trkpt lat="47.58732" lon="-0.4163">
        <ele>54.45</ele>
        <time>2014-12-28T11:12:43Z</time>
      </trkpt>
      <trkpt lat="47.58734" lon="-0.41635">
        <ele>53.49</ele>
        <time>2014-12-28T11:12:44Z</time>
      </trkpt>
      <trkpt lat="47.58745" lon="-0.41642">
        <ele>53.01</ele>
        <time>2014-12-28T11:12:47Z</time>
      </trkpt>
      <trkpt lat="47.58757" lon="-0.41644">
        <ele>53.49</ele>
        <time>2014-12-28T11:12:50Z</time>
      </trkpt>
      <trkpt lat="47.58816" lon="-0.41647">
        <ele>52.05</ele>
        <time>2014-12-28T11:13:03Z</time>
      </trkpt>
      <trkpt lat="47.58849" lon="-0.41646">
        <ele>52.05</ele>
        <time>2014-12-28T11:13:10Z</time>
      </trkpt>
      <trkpt lat="47.58854" lon="-0.41647">
        <ele>51.57</ele>
        <time>2014-12-28T11:13:11Z</time>
      </trkpt>
      <trkpt lat="47.5888" lon="-0.41654">
        <ele>51.09</ele>
        <time>2014-12-28T11:13:16Z</time>
      </trkpt>
      <trkpt lat="47.58935" lon="-0.4166">
        <ele>50.13</ele>
        <time>2014-12-28T11:13:27Z</time>
      </trkpt>
      <trkpt lat="47.58979" lon="-0.41661">
        <ele>47.72</ele>
        <time>2014-12-28T11:13:35Z</time>
      </trkpt>
      <trkpt lat="47.58984" lon="-0.41661">
        <ele>48.2</ele>
        <time>2014-12-28T11:13:36Z</time>
      </trkpt>
      <trkpt lat="47.59044" lon="-0.41663">
        <ele>48.2</ele>
        <time>2014-12-28T11:13:49Z</time>
      </trkpt>
      <trkpt lat="47.59097" lon="-0.41666">
        <ele>49.65</ele>
        <time>2014-12-28T11:14:01Z</time>
      </trkpt>
      <trkpt lat="47.59102" lon="-0.4167">
        <ele>49.65</ele>
        <time>2014-12-28T11:14:03Z</time>
      </trkpt>
      <trkpt lat="47.59104" lon="-0.41674">
        <ele>49.16</ele>
        <time>2014-12-28T11:14:04Z</time>
      </trkpt>
      <trkpt lat="47.59105" lon="-0.41678">
        <ele>48.68</ele>
        <time>2014-12-28T11:14:05Z</time>
      </trkpt>
      <trkpt lat="47.59105" lon="-0.41683">
        <ele>48.2</ele>
        <time>2014-12-28T11:14:06Z</time>
      </trkpt>
      <trkpt lat="47.59106" lon="-0.41687">
        <ele>48.2</ele>
        <time>2014-12-28T11:14:07Z</time>
      </trkpt>
      <trkpt lat="47.59108" lon="-0.41692">
        <ele>47.24</ele>
        <time>2014-12-28T11:14:08Z</time>
      </trkpt>
      <trkpt lat="47.59109" lon="-0.41697">
        <ele>47.72</ele>
        <time>2014-12-28T11:14:09Z</time>
      </trkpt>
      <trkpt lat="47.5911" lon="-0.41702">
        <ele>48.2</ele>
        <time>2014-12-28T11:14:10Z</time>
      </trkpt>
      <trkpt lat="47.59111" lon="-0.41708">
        <ele>48.2</ele>
        <time>2014-12-28T11:14:11Z</time>
      </trkpt>
      <trkpt lat="47.59126" lon="-0.41761">
        <ele>46.76</ele>
        <time>2014-12-28T11:14:18Z</time>
      </trkpt>
      <trkpt lat="47.59154" lon="-0.41874">
        <ele>44.36</ele>
        <time>2014-12-28T11:14:31Z</time>
      </trkpt>
      <trkpt lat="47.59177" lon="-0.41959">
        <ele>44.36</ele>
        <time>2014-12-28T11:14:42Z</time>
      </trkpt>
      <trkpt lat="47.59211" lon="-0.42079">
        <ele>46.28</ele>
        <time>2014-12-28T11:15:00Z</time>
      </trkpt>
      <trkpt lat="47.59223" lon="-0.42116">
        <ele>46.28</ele>
        <time>2014-12-28T11:15:07Z</time>
      </trkpt>
      <trkpt lat="47.59225" lon="-0.42122">
        <ele>46.28</ele>
        <time>2014-12-28T11:15:08Z</time>
      </trkpt>
      <trkpt lat="47.59226" lon="-0.42128">
        <ele>46.28</ele>
        <time>2014-12-28T11:15:09Z</time>
      </trkpt>
      <trkpt lat="47.59227" lon="-0.42134">
        <ele>45.8</ele>
        <time>2014-12-28T11:15:10Z</time>
      </trkpt>
      <trkpt lat="47.59228" lon="-0.42139">
        <ele>45.8</ele>
        <time>2014-12-28T11:15:11Z</time>
      </trkpt>
      <trkpt lat="47.59229" lon="-0.42145">
        <ele>45.8</ele>
        <time>2014-12-28T11:15:12Z</time>
      </trkpt>
      <trkpt lat="47.59229" lon="-0.42151">
        <ele>45.32</ele>
        <time>2014-12-28T11:15:13Z</time>
      </trkpt>
      <trkpt lat="47.5923" lon="-0.42191">
        <ele>44.84</ele>
        <time>2014-12-28T11:15:22Z</time>
      </trkpt>
      <trkpt lat="47.59225" lon="-0.42266">
        <ele>45.8</ele>
        <time>2014-12-28T11:15:36Z</time>
      </trkpt>
      <trkpt lat="47.59235" lon="-0.42348">
        <ele>46.28</ele>
        <time>2014-12-28T11:15:51Z</time>
      </trkpt>
      <trkpt lat="47.59242" lon="-0.42365">
        <ele>46.28</ele>
        <time>2014-12-28T11:15:54Z</time>
      </trkpt>
      <trkpt lat="47.59248" lon="-0.42384">
        <ele>45.32</ele>
        <time>2014-12-28T11:15:57Z</time>
      </trkpt>
      <trkpt lat="47.59252" lon="-0.42399">
        <ele>44.84</ele>
        <time>2014-12-28T11:15:59Z</time>
      </trkpt>
      <trkpt lat="47.59265" lon="-0.42434">
        <ele>43.4</ele>
        <time>2014-12-28T11:16:04Z</time>
      </trkpt>
      <trkpt lat="47.5927" lon="-0.42449">
        <ele>42.44</ele>
        <time>2014-12-28T11:16:06Z</time>
      </trkpt>
      <trkpt lat="47.59276" lon="-0.42463">
        <ele>42.92</ele>
        <time>2014-12-28T11:16:08Z</time>
      </trkpt>
      <trkpt lat="47.59278" lon="-0.42469">
        <ele>42.44</ele>
        <time>2014-12-28T11:16:09Z</time>
      </trkpt>
      <trkpt lat="47.593" lon="-0.4252">
        <ele>42.92</ele>
        <time>2014-12-28T11:16:17Z</time>
      </trkpt>
      <trkpt lat="47.59312" lon="-0.42546">
        <ele>43.4</ele>
        <time>2014-12-28T11:16:21Z</time>
      </trkpt>
      <trkpt lat="47.59354" lon="-0.42633">
        <ele>44.36</ele>
        <time>2014-12-28T11:16:36Z</time>
      </trkpt>
      <trkpt lat="47.59366" lon="-0.42658">
        <ele>43.88</ele>
        <time>2014-12-28T11:16:40Z</time>
      </trkpt>
      <trkpt lat="47.59369" lon="-0.42665">
        <ele>43.4</ele>
        <time>2014-12-28T11:16:41Z</time>
      </trkpt>
      <trkpt lat="47.59372" lon="-0.42671">
        <ele>43.88</ele>
        <time>2014-12-28T11:16:42Z</time>
      </trkpt>
      <trkpt lat="47.59375" lon="-0.42678">
        <ele>44.36</ele>
        <time>2014-12-28T11:16:43Z</time>
      </trkpt>
      <trkpt lat="47.59377" lon="-0.42684">
        <ele>44.36</ele>
        <time>2014-12-28T11:16:44Z</time>
      </trkpt>
      <trkpt lat="47.59393" lon="-0.42723">
        <ele>43.88</ele>
        <time>2014-12-28T11:16:50Z</time>
      </trkpt>
      <trkpt lat="47.59396" lon="-0.42729">
        <ele>43.88</ele>
        <time>2014-12-28T11:16:51Z</time>
      </trkpt>
      <trkpt lat="47.59398" lon="-0.42735">
        <ele>43.88</ele>
        <time>2014-12-28T11:16:52Z</time>
      </trkpt>
      <trkpt lat="47.59455" lon="-0.42822">
        <ele>44.36</ele>
        <time>2014-12-28T11:17:09Z</time>
      </trkpt>
      <trkpt lat="47.59523" lon="-0.42857">
        <ele>41.47</ele>
        <time>2014-12-28T11:17:22Z</time>
      </trkpt>
      <trkpt lat="47.59561" lon="-0.42875">
        <ele>39.07</ele>
        <time>2014-12-28T11:17:28Z</time>
      </trkpt>
      <trkpt lat="47.59637" lon="-0.42915">
        <ele>39.55</ele>
        <time>2014-12-28T11:17:42Z</time>
      </trkpt>
      <trkpt lat="47.59711" lon="-0.42946">
        <ele>39.07</ele>
        <time>2014-12-28T11:17:57Z</time>
      </trkpt>
      <trkpt lat="47.59779" lon="-0.42965">
        <ele>38.59</ele>
        <time>2014-12-28T11:18:11Z</time>
      </trkpt>
      <trkpt lat="47.59825" lon="-0.4298">
        <ele>37.15</ele>
        <time>2014-12-28T11:18:22Z</time>
      </trkpt>
      <trkpt lat="47.59827" lon="-0.42984">
        <ele>37.15</ele>
        <time>2014-12-28T11:18:23Z</time>
      </trkpt>
      <trkpt lat="47.59828" lon="-0.4299">
        <ele>36.19</ele>
        <time>2014-12-28T11:18:24Z</time>
      </trkpt>
      <trkpt lat="47.59828" lon="-0.42995">
        <ele>35.71</ele>
        <time>2014-12-28T11:18:25Z</time>
      </trkpt>
      <trkpt lat="47.59828" lon="-0.43">
        <ele>36.19</ele>
        <time>2014-12-28T11:18:26Z</time>
      </trkpt>
      <trkpt lat="47.59826" lon="-0.43005">
        <ele>36.19</ele>
        <time>2014-12-28T11:18:27Z</time>
      </trkpt>
      <trkpt lat="47.59825" lon="-0.43011">
        <ele>36.67</ele>
        <time>2014-12-28T11:18:28Z</time>
      </trkpt>
      <trkpt lat="47.59797" lon="-0.43113">
        <ele>37.63</ele>
        <time>2014-12-28T11:18:44Z</time>
      </trkpt>
      <trkpt lat="47.59774" lon="-0.43187">
        <ele>36.19</ele>
        <time>2014-12-28T11:18:54Z</time>
      </trkpt>
      <trkpt lat="47.59732" lon="-0.43311">
        <ele>34.26</ele>
        <time>2014-12-28T11:19:12Z</time>
      </trkpt>
      <trkpt lat="47.59686" lon="-0.43412">
        <ele>31.38</ele>
        <time>2014-12-28T11:19:25Z</time>
      </trkpt>
      <trkpt lat="47.5967" lon="-0.43439">
        <ele>29.94</ele>
        <time>2014-12-28T11:19:28Z</time>
      </trkpt>
      <trkpt lat="47.59636" lon="-0.43508">
        <ele>26.57</ele>
        <time>2014-12-28T11:19:35Z</time>
      </trkpt>
      <trkpt lat="47.59631" lon="-0.43518">
        <ele>26.57</ele>
        <time>2014-12-28T11:19:36Z</time>
      </trkpt>
      <trkpt lat="47.5956" lon="-0.43661">
        <ele>25.13</ele>
        <time>2014-12-28T11:19:51Z</time>
      </trkpt>
      <trkpt lat="47.59484" lon="-0.438">
        <ele>25.13</ele>
        <time>2014-12-28T11:20:08Z</time>
      </trkpt>
      <trkpt lat="47.59394" lon="-0.43959">
        <ele>24.17</ele>
        <time>2014-12-28T11:20:28Z</time>
      </trkpt>
      <trkpt lat="47.5932" lon="-0.44093">
        <ele>23.21</ele>
        <time>2014-12-28T11:20:45Z</time>
      </trkpt>
      <trkpt lat="47.59301" lon="-0.4412">
        <ele>24.17</ele>
        <time>2014-12-28T11:20:49Z</time>
      </trkpt>
      <trkpt lat="47.59202" lon="-0.44216">
        <ele>22.73</ele>
        <time>2014-12-28T11:21:07Z</time>
      </trkpt>
      <trkpt lat="47.59156" lon="-0.4425">
        <ele>23.21</ele>
        <time>2014-12-28T11:21:15Z</time>
      </trkpt>
      <trkpt lat="47.59066" lon="-0.44265">
        <ele>23.21</ele>
        <time>2014-12-28T11:21:30Z</time>
      </trkpt>
      <trkpt lat="47.58963" lon="-0.4428">
        <ele>24.17</ele>
        <time>2014-12-28T11:21:48Z</time>
      </trkpt>
      <trkpt lat="47.58926" lon="-0.44285">
        <ele>25.13</ele>
        <time>2014-12-28T11:21:57Z</time>
      </trkpt>
      <trkpt lat="47.58921" lon="-0.44286">
        <ele>25.13</ele>
        <time>2014-12-28T11:21:58Z</time>
      </trkpt>
      <trkpt lat="47.58853" lon="-0.44298">
        <ele>27.53</ele>
        <time>2014-12-28T11:22:13Z</time>
      </trkpt>
      <trkpt lat="47.5879" lon="-0.44308">
        <ele>28.02</ele>
        <time>2014-12-28T11:22:27Z</time>
      </trkpt>
      <trkpt lat="47.58786" lon="-0.44311">
        <ele>27.05</ele>
        <time>2014-12-28T11:22:28Z</time>
      </trkpt>
      <trkpt lat="47.58782" lon="-0.44316">
        <ele>27.53</ele>
        <time>2014-12-28T11:22:29Z</time>
      </trkpt>
      <trkpt lat="47.5878" lon="-0.44322">
        <ele>27.53</ele>
        <time>2014-12-28T11:22:30Z</time>
      </trkpt>
      <trkpt lat="47.58779" lon="-0.44329">
        <ele>27.53</ele>
        <time>2014-12-28T11:22:31Z</time>
      </trkpt>
      <trkpt lat="47.58779" lon="-0.44335">
        <ele>28.02</ele>
        <time>2014-12-28T11:22:32Z</time>
      </trkpt>
      <trkpt lat="47.5878" lon="-0.44342">
        <ele>28.02</ele>
        <time>2014-12-28T11:22:33Z</time>
      </trkpt>
      <trkpt lat="47.58781" lon="-0.44348">
        <ele>28.02</ele>
        <time>2014-12-28T11:22:34Z</time>
      </trkpt>
      <trkpt lat="47.58784" lon="-0.44366">
        <ele>27.53</ele>
        <time>2014-12-28T11:22:37Z</time>
      </trkpt>
      <trkpt lat="47.58787" lon="-0.44398">
        <ele>29.46</ele>
        <time>2014-12-28T11:22:42Z</time>
      </trkpt>
      <trkpt lat="47.58788" lon="-0.44404">
        <ele>28.98</ele>
        <time>2014-12-28T11:22:43Z</time>
      </trkpt>
      <trkpt lat="47.58797" lon="-0.44473">
        <ele>29.94</ele>
        <time>2014-12-28T11:22:54Z</time>
      </trkpt>
      <trkpt lat="47.58809" lon="-0.4459">
        <ele>31.86</ele>
        <time>2014-12-28T11:23:12Z</time>
      </trkpt>
      <trkpt lat="47.58825" lon="-0.44723">
        <ele>31.38</ele>
        <time>2014-12-28T11:23:29Z</time>
      </trkpt>
      <trkpt lat="47.58841" lon="-0.4486">
        <ele>30.9</ele>
        <time>2014-12-28T11:23:48Z</time>
      </trkpt>
      <trkpt lat="47.58853" lon="-0.44958">
        <ele>32.34</ele>
        <time>2014-12-28T11:24:03Z</time>
      </trkpt>
      <trkpt lat="47.58868" lon="-0.45063">
        <ele>33.3</ele>
        <time>2014-12-28T11:24:18Z</time>
      </trkpt>
      <trkpt lat="47.58869" lon="-0.45083">
        <ele>33.3</ele>
        <time>2014-12-28T11:24:21Z</time>
      </trkpt>
      <trkpt lat="47.58869" lon="-0.4509">
        <ele>33.3</ele>
        <time>2014-12-28T11:24:22Z</time>
      </trkpt>
      <trkpt lat="47.58867" lon="-0.45104">
        <ele>33.3</ele>
        <time>2014-12-28T11:24:24Z</time>
      </trkpt>
      <trkpt lat="47.58865" lon="-0.4511">
        <ele>33.78</ele>
        <time>2014-12-28T11:24:25Z</time>
      </trkpt>
      <trkpt lat="47.58863" lon="-0.45115">
        <ele>33.78</ele>
        <time>2014-12-28T11:24:26Z</time>
      </trkpt>
      <trkpt lat="47.5886" lon="-0.4512">
        <ele>33.3</ele>
        <time>2014-12-28T11:24:27Z</time>
      </trkpt>
      <trkpt lat="47.58856" lon="-0.45124">
        <ele>33.78</ele>
        <time>2014-12-28T11:24:28Z</time>
      </trkpt>
      <trkpt lat="47.58853" lon="-0.45128">
        <ele>33.78</ele>
        <time>2014-12-28T11:24:29Z</time>
      </trkpt>
      <trkpt lat="47.58777" lon="-0.45213">
        <ele>34.74</ele>
        <time>2014-12-28T11:24:50Z</time>
      </trkpt>
      <trkpt lat="47.58734" lon="-0.45263">
        <ele>36.19</ele>
        <time>2014-12-28T11:25:02Z</time>
      </trkpt>
      <trkpt lat="47.58731" lon="-0.45268">
        <ele>35.71</ele>
        <time>2014-12-28T11:25:03Z</time>
      </trkpt>
      <trkpt lat="47.58664" lon="-0.45349">
        <ele>39.07</ele>
        <time>2014-12-28T11:25:24Z</time>
      </trkpt>
      <trkpt lat="47.58636" lon="-0.45405">
        <ele>40.51</ele>
        <time>2014-12-28T11:25:35Z</time>
      </trkpt>
      <trkpt lat="47.58633" lon="-0.4541">
        <ele>40.51</ele>
        <time>2014-12-28T11:25:36Z</time>
      </trkpt>
      <trkpt lat="47.5863" lon="-0.45415">
        <ele>40.51</ele>
        <time>2014-12-28T11:25:37Z</time>
      </trkpt>
      <trkpt lat="47.58586" lon="-0.45504">
        <ele>40.99</ele>
        <time>2014-12-28T11:25:54Z</time>
      </trkpt>
      <trkpt lat="47.58571" lon="-0.45536">
        <ele>41.95</ele>
        <time>2014-12-28T11:26:00Z</time>
      </trkpt>
      <trkpt lat="47.5856" lon="-0.45562">
        <ele>41.95</ele>
        <time>2014-12-28T11:26:05Z</time>
      </trkpt>
      <trkpt lat="47.58557" lon="-0.45567">
        <ele>41.95</ele>
        <time>2014-12-28T11:26:06Z</time>
      </trkpt>
      <trkpt lat="47.58517" lon="-0.45607">
        <ele>42.92</ele>
        <time>2014-12-28T11:26:20Z</time>
      </trkpt>
      <trkpt lat="47.58476" lon="-0.45591">
        <ele>44.84</ele>
        <time>2014-12-28T11:26:30Z</time>
      </trkpt>
      <trkpt lat="47.5846" lon="-0.45593">
        <ele>45.8</ele>
        <time>2014-12-28T11:26:34Z</time>
      </trkpt>
      <trkpt lat="47.58439" lon="-0.45597">
        <ele>47.24</ele>
        <time>2014-12-28T11:26:39Z</time>
      </trkpt>
      <trkpt lat="47.58405" lon="-0.45586">
        <ele>48.68</ele>
        <time>2014-12-28T11:26:51Z</time>
      </trkpt>
      <trkpt lat="47.58417" lon="-0.45507">
        <ele>49.65</ele>
        <time>2014-12-28T11:27:07Z</time>
      </trkpt>
      <trkpt lat="47.58433" lon="-0.45397">
        <ele>49.65</ele>
        <time>2014-12-28T11:27:26Z</time>
      </trkpt>
      <trkpt lat="47.58445" lon="-0.4531">
        <ele>48.2</ele>
        <time>2014-12-28T11:27:40Z</time>
      </trkpt>
      <trkpt lat="47.58443" lon="-0.45256">
        <ele>49.16</ele>
        <time>2014-12-28T11:27:48Z</time>
      </trkpt>
      <trkpt lat="47.58441" lon="-0.45251">
        <ele>47.72</ele>
        <time>2014-12-28T11:27:49Z</time>
      </trkpt>
      <trkpt lat="47.58437" lon="-0.45247">
        <ele>47.24</ele>
        <time>2014-12-28T11:27:50Z</time>
      </trkpt>
      <trkpt lat="47.58432" lon="-0.45245">
        <ele>47.24</ele>
        <time>2014-12-28T11:27:51Z</time>
      </trkpt>
      <trkpt lat="47.58427" lon="-0.45245">
        <ele>47.24</ele>
        <time>2014-12-28T11:27:52Z</time>
      </trkpt>
      <trkpt lat="47.58423" lon="-0.45247">
        <ele>47.24</ele>
        <time>2014-12-28T11:27:53Z</time>
      </trkpt>
      <trkpt lat="47.58418" lon="-0.45249">
        <ele>47.24</ele>
        <time>2014-12-28T11:27:54Z</time>
      </trkpt>
      <trkpt lat="47.58413" lon="-0.45251">
        <ele>47.72</ele>
        <time>2014-12-28T11:27:55Z</time>
      </trkpt>
      <trkpt lat="47.58409" lon="-0.45253">
        <ele>47.72</ele>
        <time>2014-12-28T11:27:56Z</time>
      </trkpt>
      <trkpt lat="47.58329" lon="-0.45289">
        <ele>47.24</ele>
        <time>2014-12-28T11:28:11Z</time>
      </trkpt>
      <trkpt lat="47.58292" lon="-0.45306">
        <ele>46.76</ele>
        <time>2014-12-28T11:28:17Z</time>
      </trkpt>
      <trkpt lat="47.58202" lon="-0.45345">
        <ele>44.84</ele>
        <time>2014-12-28T11:28:31Z</time>
      </trkpt>
      <trkpt lat="47.58106" lon="-0.45388">
        <ele>42.44</ele>
        <time>2014-12-28T11:28:46Z</time>
      </trkpt>
      <trkpt lat="47.58002" lon="-0.45434">
        <ele>42.92</ele>
        <time>2014-12-28T11:29:03Z</time>
      </trkpt>
      <trkpt lat="47.57918" lon="-0.45486">
        <ele>42.92</ele>
        <time>2014-12-28T11:29:19Z</time>
      </trkpt>
      <trkpt lat="47.57807" lon="-0.45531">
        <ele>40.51</ele>
        <time>2014-12-28T11:29:38Z</time>
      </trkpt>
      <trkpt lat="47.57801" lon="-0.45531">
        <ele>40.51</ele>
        <time>2014-12-28T11:29:39Z</time>
      </trkpt>
      <trkpt lat="47.57751" lon="-0.45537">
        <ele>37.63</ele>
        <time>2014-12-28T11:29:49Z</time>
      </trkpt>
      <trkpt lat="47.57657" lon="-0.45548">
        <ele>37.15</ele>
        <time>2014-12-28T11:30:05Z</time>
      </trkpt>
      <trkpt lat="47.57631" lon="-0.45553">
        <ele>38.11</ele>
        <time>2014-12-28T11:30:12Z</time>
      </trkpt>
      <trkpt lat="47.57627" lon="-0.45551">
        <ele>37.15</ele>
        <time>2014-12-28T11:30:13Z</time>
      </trkpt>
      <trkpt lat="47.5761" lon="-0.45544">
        <ele>37.63</ele>
        <time>2014-12-28T11:30:17Z</time>
      </trkpt>
      <trkpt lat="47.57599" lon="-0.4554">
        <ele>37.63</ele>
        <time>2014-12-28T11:30:20Z</time>
      </trkpt>
      <trkpt lat="47.57597" lon="-0.45544">
        <ele>37.15</ele>
        <time>2014-12-28T11:30:21Z</time>
      </trkpt>
      <trkpt lat="47.57597" lon="-0.45548">
        <ele>37.63</ele>
        <time>2014-12-28T11:30:22Z</time>
      </trkpt>
      <trkpt lat="47.57598" lon="-0.45553">
        <ele>37.63</ele>
        <time>2014-12-28T11:30:23Z</time>
      </trkpt>
      <trkpt lat="47.576" lon="-0.45558">
        <ele>38.59</ele>
        <time>2014-12-28T11:30:24Z</time>
      </trkpt>
      <trkpt lat="47.57601" lon="-0.45564">
        <ele>38.59</ele>
        <time>2014-12-28T11:30:25Z</time>
      </trkpt>
      <trkpt lat="47.57603" lon="-0.4557">
        <ele>38.59</ele>
        <time>2014-12-28T11:30:26Z</time>
      </trkpt>
      <trkpt lat="47.57605" lon="-0.45581">
        <ele>40.03</ele>
        <time>2014-12-28T11:30:28Z</time>
      </trkpt>
      <trkpt lat="47.57613" lon="-0.45665">
        <ele>40.51</ele>
        <time>2014-12-28T11:30:43Z</time>
      </trkpt>
      <trkpt lat="47.57611" lon="-0.45668">
        <ele>40.03</ele>
        <time>2014-12-28T11:30:44Z</time>
      </trkpt>
      <trkpt lat="47.57609" lon="-0.45669">
        <ele>39.55</ele>
        <time>2014-12-28T11:30:45Z</time>
      </trkpt>
      <trkpt lat="47.57606" lon="-0.45668">
        <ele>39.07</ele>
        <time>2014-12-28T11:30:46Z</time>
      </trkpt>
      <trkpt lat="47.57603" lon="-0.45667">
        <ele>38.59</ele>
        <time>2014-12-28T11:30:47Z</time>
      </trkpt>
      <trkpt lat="47.57581" lon="-0.45656">
        <ele>35.71</ele>
        <time>2014-12-28T11:30:52Z</time>
      </trkpt>
      <trkpt lat="47.57576" lon="-0.45649">
        <ele>34.74</ele>
        <time>2014-12-28T11:30:53Z</time>
      </trkpt>
      <trkpt lat="47.57562" lon="-0.4563">
        <ele>32.82</ele>
        <time>2014-12-28T11:30:56Z</time>
      </trkpt>
      <trkpt lat="47.57558" lon="-0.45626">
        <ele>33.3</ele>
        <time>2014-12-28T11:30:57Z</time>
      </trkpt>
      <trkpt lat="47.57553" lon="-0.45623">
        <ele>32.34</ele>
        <time>2014-12-28T11:30:58Z</time>
      </trkpt>
      <trkpt lat="47.57547" lon="-0.45621">
        <ele>31.86</ele>
        <time>2014-12-28T11:30:59Z</time>
      </trkpt>
      <trkpt lat="47.57541" lon="-0.45619">
        <ele>30.42</ele>
        <time>2014-12-28T11:31:00Z</time>
      </trkpt>
      <trkpt lat="47.57533" lon="-0.45618">
        <ele>28.5</ele>
        <time>2014-12-28T11:31:01Z</time>
      </trkpt>
      <trkpt lat="47.5751" lon="-0.45615">
        <ele>24.65</ele>
        <time>2014-12-28T11:31:04Z</time>
      </trkpt>
      <trkpt lat="47.57496" lon="-0.45614">
        <ele>21.29</ele>
        <time>2014-12-28T11:31:06Z</time>
      </trkpt>
      <trkpt lat="47.5748" lon="-0.45617">
        <ele>18.4</ele>
        <time>2014-12-28T11:31:09Z</time>
      </trkpt>
      <trkpt lat="47.57478" lon="-0.45622">
        <ele>17.92</ele>
        <time>2014-12-28T11:31:10Z</time>
      </trkpt>
      <trkpt lat="47.57478" lon="-0.45628">
        <ele>17.92</ele>
        <time>2014-12-28T11:31:11Z</time>
      </trkpt>
      <trkpt lat="47.57479" lon="-0.45635">
        <ele>17.44</ele>
        <time>2014-12-28T11:31:12Z</time>
      </trkpt>
      <trkpt lat="47.57482" lon="-0.45642">
        <ele>17.92</ele>
        <time>2014-12-28T11:31:13Z</time>
      </trkpt>
      <trkpt lat="47.57485" lon="-0.45649">
        <ele>17.44</ele>
        <time>2014-12-28T11:31:14Z</time>
      </trkpt>
      <trkpt lat="47.57496" lon="-0.45682">
        <ele>17.44</ele>
        <time>2014-12-28T11:31:19Z</time>
      </trkpt>
      <trkpt lat="47.57514" lon="-0.45791">
        <ele>17.92</ele>
        <time>2014-12-28T11:31:35Z</time>
      </trkpt>
      <trkpt lat="47.57519" lon="-0.45895">
        <ele>17.44</ele>
        <time>2014-12-28T11:31:51Z</time>
      </trkpt>
      <trkpt lat="47.57525" lon="-0.45952">
        <ele>17.44</ele>
        <time>2014-12-28T11:32:02Z</time>
      </trkpt>
      <trkpt lat="47.57532" lon="-0.46055">
        <ele>17.92</ele>
        <time>2014-12-28T11:32:17Z</time>
      </trkpt>
      <trkpt lat="47.57532" lon="-0.46069">
        <ele>17.92</ele>
        <time>2014-12-28T11:32:19Z</time>
      </trkpt>
      <trkpt lat="47.57533" lon="-0.4609">
        <ele>17.92</ele>
        <time>2014-12-28T11:32:22Z</time>
      </trkpt>
      <trkpt lat="47.57533" lon="-0.46134">
        <ele>17.92</ele>
        <time>2014-12-28T11:32:28Z</time>
      </trkpt>
      <trkpt lat="47.57535" lon="-0.46202">
        <ele>17.92</ele>
        <time>2014-12-28T11:32:38Z</time>
      </trkpt>
      <trkpt lat="47.57535" lon="-0.46259">
        <ele>17.92</ele>
        <time>2014-12-28T11:32:46Z</time>
      </trkpt>
      <trkpt lat="47.57534" lon="-0.46266">
        <ele>16.96</ele>
        <time>2014-12-28T11:32:47Z</time>
      </trkpt>
      <trkpt lat="47.57525" lon="-0.46341">
        <ele>17.44</ele>
        <time>2014-12-28T11:32:57Z</time>
      </trkpt>
      <trkpt lat="47.57524" lon="-0.46348">
        <ele>17.92</ele>
        <time>2014-12-28T11:32:58Z</time>
      </trkpt>
      <trkpt lat="47.57522" lon="-0.46355">
        <ele>17.92</ele>
        <time>2014-12-28T11:32:59Z</time>
      </trkpt>
      <trkpt lat="47.57521" lon="-0.46362">
        <ele>17.92</ele>
        <time>2014-12-28T11:33:00Z</time>
      </trkpt>
      <trkpt lat="47.5752" lon="-0.4637">
        <ele>18.4</ele>
        <time>2014-12-28T11:33:01Z</time>
      </trkpt>
      <trkpt lat="47.57508" lon="-0.46468">
        <ele>17.92</ele>
        <time>2014-12-28T11:33:15Z</time>
      </trkpt>
      <trkpt lat="47.57492" lon="-0.46572">
        <ele>18.4</ele>
        <time>2014-12-28T11:33:29Z</time>
      </trkpt>
      <trkpt lat="47.57472" lon="-0.46652">
        <ele>17.92</ele>
        <time>2014-12-28T11:33:40Z</time>
      </trkpt>
      <trkpt lat="47.5747" lon="-0.4666">
        <ele>16.96</ele>
        <time>2014-12-28T11:33:41Z</time>
      </trkpt>
      <trkpt lat="47.57439" lon="-0.46775">
        <ele>17.92</ele>
        <time>2014-12-28T11:33:57Z</time>
      </trkpt>
      <trkpt lat="47.57417" lon="-0.46898">
        <ele>17.44</ele>
        <time>2014-12-28T11:34:14Z</time>
      </trkpt>
      <trkpt lat="47.57404" lon="-0.46979">
        <ele>17.44</ele>
        <time>2014-12-28T11:34:26Z</time>
      </trkpt>
      <trkpt lat="47.57394" lon="-0.47023">
        <ele>18.4</ele>
        <time>2014-12-28T11:34:33Z</time>
      </trkpt>
      <trkpt lat="47.57365" lon="-0.47148">
        <ele>18.4</ele>
        <time>2014-12-28T11:34:50Z</time>
      </trkpt>
      <trkpt lat="47.57333" lon="-0.47291">
        <ele>18.4</ele>
        <time>2014-12-28T11:35:09Z</time>
      </trkpt>
      <trkpt lat="47.57309" lon="-0.47393">
        <ele>16.96</ele>
        <time>2014-12-28T11:35:23Z</time>
      </trkpt>
      <trkpt lat="47.57306" lon="-0.474">
        <ele>16.96</ele>
        <time>2014-12-28T11:35:24Z</time>
      </trkpt>
      <trkpt lat="47.57304" lon="-0.47406">
        <ele>17.44</ele>
        <time>2014-12-28T11:35:25Z</time>
      </trkpt>
      <trkpt lat="47.57301" lon="-0.47411">
        <ele>17.44</ele>
        <time>2014-12-28T11:35:26Z</time>
      </trkpt>
      <trkpt lat="47.57298" lon="-0.47417">
        <ele>16.96</ele>
        <time>2014-12-28T11:35:27Z</time>
      </trkpt>
      <trkpt lat="47.57295" lon="-0.47422">
        <ele>16.96</ele>
        <time>2014-12-28T11:35:28Z</time>
      </trkpt>
      <trkpt lat="47.57291" lon="-0.47427">
        <ele>16.96</ele>
        <time>2014-12-28T11:35:29Z</time>
      </trkpt>
      <trkpt lat="47.57287" lon="-0.47431">
        <ele>16.96</ele>
        <time>2014-12-28T11:35:30Z</time>
      </trkpt>
      <trkpt lat="47.57247" lon="-0.47486">
        <ele>16.48</ele>
        <time>2014-12-28T11:35:42Z</time>
      </trkpt>
      <trkpt lat="47.57244" lon="-0.47491">
        <ele>16.48</ele>
        <time>2014-12-28T11:35:43Z</time>
      </trkpt>
      <trkpt lat="47.57242" lon="-0.47497">
        <ele>16.96</ele>
        <time>2014-12-28T11:35:44Z</time>
      </trkpt>
      <trkpt lat="47.5724" lon="-0.47503">
        <ele>16</ele>
        <time>2014-12-28T11:35:45Z</time>
      </trkpt>
      <trkpt lat="47.57239" lon="-0.4751">
        <ele>16</ele>
        <time>2014-12-28T11:35:46Z</time>
      </trkpt>
      <trkpt lat="47.57238" lon="-0.47518">
        <ele>16</ele>
        <time>2014-12-28T11:35:47Z</time>
      </trkpt>
      <trkpt lat="47.57239" lon="-0.47525">
        <ele>16.48</ele>
        <time>2014-12-28T11:35:48Z</time>
      </trkpt>
      <trkpt lat="47.57239" lon="-0.47533">
        <ele>16.48</ele>
        <time>2014-12-28T11:35:49Z</time>
      </trkpt>
      <trkpt lat="47.5724" lon="-0.47541">
        <ele>16</ele>
        <time>2014-12-28T11:35:50Z</time>
      </trkpt>
      <trkpt lat="47.57241" lon="-0.47548">
        <ele>16</ele>
        <time>2014-12-28T11:35:51Z</time>
      </trkpt>
      <trkpt lat="47.57244" lon="-0.4757">
        <ele>15.52</ele>
        <time>2014-12-28T11:35:54Z</time>
      </trkpt>
      <trkpt lat="47.57245" lon="-0.47579">
        <ele>16</ele>
        <time>2014-12-28T11:35:55Z</time>
      </trkpt>
      <trkpt lat="47.57247" lon="-0.47705">
        <ele>16.48</ele>
        <time>2014-12-28T11:36:11Z</time>
      </trkpt>
      <trkpt lat="47.57246" lon="-0.47721">
        <ele>16.48</ele>
        <time>2014-12-28T11:36:13Z</time>
      </trkpt>
      <trkpt lat="47.57246" lon="-0.47728">
        <ele>16</ele>
        <time>2014-12-28T11:36:14Z</time>
      </trkpt>
      <trkpt lat="47.5724" lon="-0.47767">
        <ele>16</ele>
        <time>2014-12-28T11:36:19Z</time>
      </trkpt>
      <trkpt lat="47.57224" lon="-0.47895">
        <ele>16</ele>
        <time>2014-12-28T11:36:35Z</time>
      </trkpt>
      <trkpt lat="47.57221" lon="-0.48009">
        <ele>15.04</ele>
        <time>2014-12-28T11:36:49Z</time>
      </trkpt>
      <trkpt lat="47.57221" lon="-0.48017">
        <ele>16</ele>
        <time>2014-12-28T11:36:50Z</time>
      </trkpt>
      <trkpt lat="47.57225" lon="-0.48126">
        <ele>15.04</ele>
        <time>2014-12-28T11:37:04Z</time>
      </trkpt>
      <trkpt lat="47.5723" lon="-0.48229">
        <ele>14.56</ele>
        <time>2014-12-28T11:37:19Z</time>
      </trkpt>
      <trkpt lat="47.57231" lon="-0.48235">
        <ele>15.52</ele>
        <time>2014-12-28T11:37:20Z</time>
      </trkpt>
      <trkpt lat="47.57233" lon="-0.4824">
        <ele>15.52</ele>
        <time>2014-12-28T11:37:21Z</time>
      </trkpt>
      <trkpt lat="47.57235" lon="-0.48244">
        <ele>16.48</ele>
        <time>2014-12-28T11:37:22Z</time>
      </trkpt>
      <trkpt lat="47.57237" lon="-0.48246">
        <ele>16.96</ele>
        <time>2014-12-28T11:37:23Z</time>
      </trkpt>
      <trkpt lat="47.5724" lon="-0.48248">
        <ele>16.96</ele>
        <time>2014-12-28T11:37:24Z</time>
      </trkpt>
      <trkpt lat="47.57243" lon="-0.48249">
        <ele>17.92</ele>
        <time>2014-12-28T11:37:25Z</time>
      </trkpt>
      <trkpt lat="47.57246" lon="-0.4825">
        <ele>18.4</ele>
        <time>2014-12-28T11:37:26Z</time>
      </trkpt>
      <trkpt lat="47.57248" lon="-0.48251">
        <ele>18.4</ele>
        <time>2014-12-28T11:37:27Z</time>
      </trkpt>
      <trkpt lat="47.5725" lon="-0.48253">
        <ele>18.4</ele>
        <time>2014-12-28T11:37:28Z</time>
      </trkpt>
      <trkpt lat="47.57253" lon="-0.48254">
        <ele>18.88</ele>
        <time>2014-12-28T11:37:29Z</time>
      </trkpt>
      <trkpt lat="47.57254" lon="-0.48255">
        <ele>18.88</ele>
        <time>2014-12-28T11:37:30Z</time>
      </trkpt>
      <trkpt lat="47.57256" lon="-0.48257">
        <ele>19.36</ele>
        <time>2014-12-28T11:37:31Z</time>
      </trkpt>
      <trkpt lat="47.57274" lon="-0.48267">
        <ele>22.73</ele>
        <time>2014-12-28T11:37:41Z</time>
      </trkpt>
      <trkpt lat="47.57292" lon="-0.48272">
        <ele>25.61</ele>
        <time>2014-12-28T11:37:51Z</time>
      </trkpt>
      <trkpt lat="47.57313" lon="-0.48274">
        <ele>27.05</ele>
        <time>2014-12-28T11:38:03Z</time>
      </trkpt>
      <trkpt lat="47.5733" lon="-0.48277">
        <ele>28.98</ele>
        <time>2014-12-28T11:38:12Z</time>
      </trkpt>
      <trkpt lat="47.57339" lon="-0.48278">
        <ele>30.9</ele>
        <time>2014-12-28T11:38:17Z</time>
      </trkpt>
      <trkpt lat="47.57378" lon="-0.48279">
        <ele>32.82</ele>
        <time>2014-12-28T11:38:37Z</time>
      </trkpt>
      <trkpt lat="47.5743" lon="-0.48277">
        <ele>32.82</ele>
        <time>2014-12-28T11:38:55Z</time>
      </trkpt>
      <trkpt lat="47.57478" lon="-0.48273">
        <ele>34.74</ele>
        <time>2014-12-28T11:39:13Z</time>
      </trkpt>
      <trkpt lat="47.57498" lon="-0.4827">
        <ele>35.71</ele>
        <time>2014-12-28T11:39:21Z</time>
      </trkpt>
      <trkpt lat="47.5753" lon="-0.48264">
        <ele>38.59</ele>
        <time>2014-12-28T11:39:35Z</time>
      </trkpt>
      <trkpt lat="47.57569" lon="-0.48259">
        <ele>40.51</ele>
        <time>2014-12-28T11:39:53Z</time>
      </trkpt>
      <trkpt lat="47.57619" lon="-0.48257">
        <ele>41.95</ele>
        <time>2014-12-28T11:40:10Z</time>
      </trkpt>
      <trkpt lat="47.57676" lon="-0.48254">
        <ele>42.92</ele>
        <time>2014-12-28T11:40:26Z</time>
      </trkpt>
      <trkpt lat="47.57747" lon="-0.48256">
        <ele>40.51</ele>
        <time>2014-12-28T11:40:42Z</time>
      </trkpt>
      <trkpt lat="47.57785" lon="-0.48256">
        <ele>39.07</ele>
        <time>2014-12-28T11:40:49Z</time>
      </trkpt>
      <trkpt lat="47.57848" lon="-0.48245">
        <ele>38.11</ele>
        <time>2014-12-28T11:41:02Z</time>
      </trkpt>
      <trkpt lat="47.57872" lon="-0.48238">
        <ele>39.07</ele>
        <time>2014-12-28T11:41:08Z</time>
      </trkpt>
      <trkpt lat="47.579" lon="-0.48243">
        <ele>40.99</ele>
        <time>2014-12-28T11:41:18Z</time>
      </trkpt>
      <trkpt lat="47.57901" lon="-0.48247">
        <ele>40.51</ele>
        <time>2014-12-28T11:41:19Z</time>
      </trkpt>
      <trkpt lat="47.57902" lon="-0.4825">
        <ele>40.99</ele>
        <time>2014-12-28T11:41:20Z</time>
      </trkpt>
      <trkpt lat="47.57901" lon="-0.48253">
        <ele>41.47</ele>
        <time>2014-12-28T11:41:21Z</time>
      </trkpt>
      <trkpt lat="47.57901" lon="-0.48256">
        <ele>41.47</ele>
        <time>2014-12-28T11:41:22Z</time>
      </trkpt>
      <trkpt lat="47.57901" lon="-0.48259">
        <ele>41.95</ele>
        <time>2014-12-28T11:41:23Z</time>
      </trkpt>
      <trkpt lat="47.57901" lon="-0.48263">
        <ele>41.95</ele>
        <time>2014-12-28T11:41:24Z</time>
      </trkpt>
      <trkpt lat="47.57901" lon="-0.48296">
        <ele>42.92</ele>
        <time>2014-12-28T11:41:31Z</time>
      </trkpt>
      <trkpt lat="47.57899" lon="-0.48302">
        <ele>41.47</ele>
        <time>2014-12-28T11:41:32Z</time>
      </trkpt>
      <trkpt lat="47.57897" lon="-0.48308">
        <ele>41.95</ele>
        <time>2014-12-28T11:41:33Z</time>
      </trkpt>
      <trkpt lat="47.57892" lon="-0.4832">
        <ele>40.99</ele>
        <time>2014-12-28T11:41:35Z</time>
      </trkpt>
      <trkpt lat="47.57864" lon="-0.48372">
        <ele>40.51</ele>
        <time>2014-12-28T11:41:44Z</time>
      </trkpt>
      <trkpt lat="47.57861" lon="-0.48377">
        <ele>40.51</ele>
        <time>2014-12-28T11:41:45Z</time>
      </trkpt>
      <trkpt lat="47.57853" lon="-0.48392">
        <ele>40.51</ele>
        <time>2014-12-28T11:41:48Z</time>
      </trkpt>
      <trkpt lat="47.57851" lon="-0.48398">
        <ele>40.99</ele>
        <time>2014-12-28T11:41:49Z</time>
      </trkpt>
      <trkpt lat="47.5785" lon="-0.48403">
        <ele>40.99</ele>
        <time>2014-12-28T11:41:50Z</time>
      </trkpt>
      <trkpt lat="47.5785" lon="-0.48409">
        <ele>41.47</ele>
        <time>2014-12-28T11:41:51Z</time>
      </trkpt>
      <trkpt lat="47.5785" lon="-0.48415">
        <ele>41.47</ele>
        <time>2014-12-28T11:41:52Z</time>
      </trkpt>
      <trkpt lat="47.57862" lon="-0.48489">
        <ele>44.36</ele>
        <time>2014-12-28T11:42:07Z</time>
      </trkpt>
      <trkpt lat="47.57859" lon="-0.4851">
        <ele>44.36</ele>
        <time>2014-12-28T11:42:13Z</time>
      </trkpt>
      <trkpt lat="47.57859" lon="-0.48514">
        <ele>44.36</ele>
        <time>2014-12-28T11:42:14Z</time>
      </trkpt>
      <trkpt lat="47.57874" lon="-0.48572">
        <ele>46.76</ele>
        <time>2014-12-28T11:42:29Z</time>
      </trkpt>
      <trkpt lat="47.57892" lon="-0.48621">
        <ele>49.65</ele>
        <time>2014-12-28T11:42:43Z</time>
      </trkpt>
      <trkpt lat="47.57905" lon="-0.48656">
        <ele>52.53</ele>
        <time>2014-12-28T11:42:54Z</time>
      </trkpt>
      <trkpt lat="47.57924" lon="-0.48713">
        <ele>54.93</ele>
        <time>2014-12-28T11:43:10Z</time>
      </trkpt>
      <trkpt lat="47.57944" lon="-0.48777">
        <ele>57.82</ele>
        <time>2014-12-28T11:43:28Z</time>
      </trkpt>
      <trkpt lat="47.57968" lon="-0.48847">
        <ele>57.82</ele>
        <time>2014-12-28T11:43:46Z</time>
      </trkpt>
      <trkpt lat="47.5799" lon="-0.48914">
        <ele>58.3</ele>
        <time>2014-12-28T11:44:01Z</time>
      </trkpt>
      <trkpt lat="47.58002" lon="-0.4896">
        <ele>56.86</ele>
        <time>2014-12-28T11:44:11Z</time>
      </trkpt>
      <trkpt lat="47.58001" lon="-0.48965">
        <ele>56.86</ele>
        <time>2014-12-28T11:44:12Z</time>
      </trkpt>
      <trkpt lat="47.57999" lon="-0.48969">
        <ele>57.34</ele>
        <time>2014-12-28T11:44:13Z</time>
      </trkpt>
      <trkpt lat="47.57996" lon="-0.48973">
        <ele>57.34</ele>
        <time>2014-12-28T11:44:14Z</time>
      </trkpt>
      <trkpt lat="47.57993" lon="-0.48976">
        <ele>56.86</ele>
        <time>2014-12-28T11:44:15Z</time>
      </trkpt>
      <trkpt lat="47.5799" lon="-0.48979">
        <ele>56.86</ele>
        <time>2014-12-28T11:44:16Z</time>
      </trkpt>
      <trkpt lat="47.57987" lon="-0.48982">
        <ele>56.86</ele>
        <time>2014-12-28T11:44:17Z</time>
      </trkpt>
      <trkpt lat="47.57984" lon="-0.48986">
        <ele>56.37</ele>
        <time>2014-12-28T11:44:18Z</time>
      </trkpt>
      <trkpt lat="47.57921" lon="-0.49054">
        <ele>56.37</ele>
        <time>2014-12-28T11:44:35Z</time>
      </trkpt>
      <trkpt lat="47.57916" lon="-0.49056">
        <ele>55.89</ele>
        <time>2014-12-28T11:44:36Z</time>
      </trkpt>
      <trkpt lat="47.57912" lon="-0.49058">
        <ele>55.41</ele>
        <time>2014-12-28T11:44:37Z</time>
      </trkpt>
      <trkpt lat="47.57908" lon="-0.4906">
        <ele>55.41</ele>
        <time>2014-12-28T11:44:38Z</time>
      </trkpt>
      <trkpt lat="47.57904" lon="-0.49062">
        <ele>56.37</ele>
        <time>2014-12-28T11:44:39Z</time>
      </trkpt>
      <trkpt lat="47.579" lon="-0.49064">
        <ele>55.89</ele>
        <time>2014-12-28T11:44:40Z</time>
      </trkpt>
      <trkpt lat="47.57895" lon="-0.49065">
        <ele>55.41</ele>
        <time>2014-12-28T11:44:41Z</time>
      </trkpt>
      <trkpt lat="47.57881" lon="-0.49066">
        <ele>55.89</ele>
        <time>2014-12-28T11:44:44Z</time>
      </trkpt>
      <trkpt lat="47.57877" lon="-0.49066">
        <ele>55.89</ele>
        <time>2014-12-28T11:44:45Z</time>
      </trkpt>
      <trkpt lat="47.57864" lon="-0.49066">
        <ele>55.89</ele>
        <time>2014-12-28T11:44:48Z</time>
      </trkpt>
      <trkpt lat="47.57802" lon="-0.49083">
        <ele>57.34</ele>
        <time>2014-12-28T11:45:01Z</time>
      </trkpt>
      <trkpt lat="47.57738" lon="-0.49143">
        <ele>57.34</ele>
        <time>2014-12-28T11:45:16Z</time>
      </trkpt>
      <trkpt lat="47.57697" lon="-0.49184">
        <ele>55.41</ele>
        <time>2014-12-28T11:45:26Z</time>
      </trkpt>
      <trkpt lat="47.57684" lon="-0.49198">
        <ele>53.97</ele>
        <time>2014-12-28T11:45:29Z</time>
      </trkpt>
      <trkpt lat="47.57681" lon="-0.49205">
        <ele>53.49</ele>
        <time>2014-12-28T11:45:30Z</time>
      </trkpt>
      <trkpt lat="47.57682" lon="-0.49213">
        <ele>53.49</ele>
        <time>2014-12-28T11:45:31Z</time>
      </trkpt>
      <trkpt lat="47.57685" lon="-0.49218">
        <ele>53.01</ele>
        <time>2014-12-28T11:45:32Z</time>
      </trkpt>
      <trkpt lat="47.57688" lon="-0.49222">
        <ele>53.49</ele>
        <time>2014-12-28T11:45:33Z</time>
      </trkpt>
      <trkpt lat="47.57692" lon="-0.49225">
        <ele>54.45</ele>
        <time>2014-12-28T11:45:34Z</time>
      </trkpt>
      <trkpt lat="47.57695" lon="-0.49227">
        <ele>54.93</ele>
        <time>2014-12-28T11:45:35Z</time>
      </trkpt>
      <trkpt lat="47.57699" lon="-0.49229">
        <ele>53.97</ele>
        <time>2014-12-28T11:45:36Z</time>
      </trkpt>
      <trkpt lat="47.57758" lon="-0.49273">
        <ele>56.37</ele>
        <time>2014-12-28T11:45:52Z</time>
      </trkpt>
      <trkpt lat="47.57835" lon="-0.49313">
        <ele>54.45</ele>
        <time>2014-12-28T11:46:08Z</time>
      </trkpt>
      <trkpt lat="47.57844" lon="-0.49319">
        <ele>53.97</ele>
        <time>2014-12-28T11:46:10Z</time>
      </trkpt>
      <trkpt lat="47.57849" lon="-0.49324">
        <ele>53.49</ele>
        <time>2014-12-28T11:46:11Z</time>
      </trkpt>
      <trkpt lat="47.57852" lon="-0.4933">
        <ele>53.49</ele>
        <time>2014-12-28T11:46:12Z</time>
      </trkpt>
      <trkpt lat="47.57855" lon="-0.49337">
        <ele>53.49</ele>
        <time>2014-12-28T11:46:13Z</time>
      </trkpt>
      <trkpt lat="47.57857" lon="-0.49345">
        <ele>53.01</ele>
        <time>2014-12-28T11:46:14Z</time>
      </trkpt>
      <trkpt lat="47.5786" lon="-0.49353">
        <ele>53.01</ele>
        <time>2014-12-28T11:46:15Z</time>
      </trkpt>
      <trkpt lat="47.57862" lon="-0.49361">
        <ele>52.53</ele>
        <time>2014-12-28T11:46:16Z</time>
      </trkpt>
      <trkpt lat="47.5787" lon="-0.49403">
        <ele>51.57</ele>
        <time>2014-12-28T11:46:21Z</time>
      </trkpt>
      <trkpt lat="47.5787" lon="-0.49411">
        <ele>51.09</ele>
        <time>2014-12-28T11:46:22Z</time>
      </trkpt>
      <trkpt lat="47.57869" lon="-0.4942">
        <ele>51.57</ele>
        <time>2014-12-28T11:46:23Z</time>
      </trkpt>
      <trkpt lat="47.57867" lon="-0.49428">
        <ele>50.61</ele>
        <time>2014-12-28T11:46:24Z</time>
      </trkpt>
      <trkpt lat="47.57866" lon="-0.49436">
        <ele>50.61</ele>
        <time>2014-12-28T11:46:25Z</time>
      </trkpt>
      <trkpt lat="47.57864" lon="-0.49444">
        <ele>50.61</ele>
        <time>2014-12-28T11:46:26Z</time>
      </trkpt>
      <trkpt lat="47.57862" lon="-0.49452">
        <ele>50.61</ele>
        <time>2014-12-28T11:46:27Z</time>
      </trkpt>
      <trkpt lat="47.5786" lon="-0.49462">
        <ele>49.65</ele>
        <time>2014-12-28T11:46:28Z</time>
      </trkpt>
      <trkpt lat="47.5786" lon="-0.49471">
        <ele>49.65</ele>
        <time>2014-12-28T11:46:29Z</time>
      </trkpt>
      <trkpt lat="47.5786" lon="-0.49481">
        <ele>48.68</ele>
        <time>2014-12-28T11:46:30Z</time>
      </trkpt>
      <trkpt lat="47.5786" lon="-0.49491">
        <ele>49.65</ele>
        <time>2014-12-28T11:46:31Z</time>
      </trkpt>
      <trkpt lat="47.57861" lon="-0.49502">
        <ele>48.68</ele>
        <time>2014-12-28T11:46:32Z</time>
      </trkpt>
      <trkpt lat="47.5786" lon="-0.49512">
        <ele>48.68</ele>
        <time>2014-12-28T11:46:33Z</time>
      </trkpt>
      <trkpt lat="47.57858" lon="-0.49522">
        <ele>48.68</ele>
        <time>2014-12-28T11:46:34Z</time>
      </trkpt>
      <trkpt lat="47.57855" lon="-0.49532">
        <ele>48.2</ele>
        <time>2014-12-28T11:46:35Z</time>
      </trkpt>
      <trkpt lat="47.57851" lon="-0.49541">
        <ele>48.68</ele>
        <time>2014-12-28T11:46:36Z</time>
      </trkpt>
      <trkpt lat="47.57847" lon="-0.49549">
        <ele>48.68</ele>
        <time>2014-12-28T11:46:37Z</time>
      </trkpt>
      <trkpt lat="47.57842" lon="-0.49555">
        <ele>48.2</ele>
        <time>2014-12-28T11:46:38Z</time>
      </trkpt>
      <trkpt lat="47.57837" lon="-0.49561">
        <ele>48.68</ele>
        <time>2014-12-28T11:46:39Z</time>
      </trkpt>
      <trkpt lat="47.57819" lon="-0.49585">
        <ele>48.68</ele>
        <time>2014-12-28T11:46:43Z</time>
      </trkpt>
      <trkpt lat="47.57816" lon="-0.49592">
        <ele>48.2</ele>
        <time>2014-12-28T11:46:44Z</time>
      </trkpt>
      <trkpt lat="47.57815" lon="-0.496">
        <ele>48.2</ele>
        <time>2014-12-28T11:46:45Z</time>
      </trkpt>
      <trkpt lat="47.57814" lon="-0.49608">
        <ele>47.72</ele>
        <time>2014-12-28T11:46:46Z</time>
      </trkpt>
      <trkpt lat="47.57816" lon="-0.49616">
        <ele>48.2</ele>
        <time>2014-12-28T11:46:47Z</time>
      </trkpt>
      <trkpt lat="47.57818" lon="-0.49623">
        <ele>47.72</ele>
        <time>2014-12-28T11:46:48Z</time>
      </trkpt>
      <trkpt lat="47.57821" lon="-0.4963">
        <ele>47.72</ele>
        <time>2014-12-28T11:46:49Z</time>
      </trkpt>
      <trkpt lat="47.57824" lon="-0.49637">
        <ele>47.24</ele>
        <time>2014-12-28T11:46:50Z</time>
      </trkpt>
      <trkpt lat="47.57867" lon="-0.49722">
        <ele>43.88</ele>
        <time>2014-12-28T11:47:01Z</time>
      </trkpt>
      <trkpt lat="47.57885" lon="-0.4976">
        <ele>42.44</ele>
        <time>2014-12-28T11:47:08Z</time>
      </trkpt>
      <trkpt lat="47.57885" lon="-0.49763">
        <ele>42.44</ele>
        <time>2014-12-28T11:47:09Z</time>
      </trkpt>
      <trkpt lat="47.57884" lon="-0.49766">
        <ele>42.44</ele>
        <time>2014-12-28T11:47:10Z</time>
      </trkpt>
      <trkpt lat="47.57881" lon="-0.49769">
        <ele>42.44</ele>
        <time>2014-12-28T11:47:11Z</time>
      </trkpt>
      <trkpt lat="47.57879" lon="-0.49772">
        <ele>41.95</ele>
        <time>2014-12-28T11:47:12Z</time>
      </trkpt>
      <trkpt lat="47.57813" lon="-0.49811">
        <ele>43.88</ele>
        <time>2014-12-28T11:47:28Z</time>
      </trkpt>
      <trkpt lat="47.57809" lon="-0.49815">
        <ele>43.4</ele>
        <time>2014-12-28T11:47:29Z</time>
      </trkpt>
      <trkpt lat="47.57805" lon="-0.49819">
        <ele>43.88</ele>
        <time>2014-12-28T11:47:30Z</time>
      </trkpt>
      <trkpt lat="47.57753" lon="-0.49874">
        <ele>44.36</ele>
        <time>2014-12-28T11:47:43Z</time>
      </trkpt>
      <trkpt lat="47.57749" lon="-0.49877">
        <ele>44.36</ele>
        <time>2014-12-28T11:47:44Z</time>
      </trkpt>
      <trkpt lat="47.57745" lon="-0.4988">
        <ele>43.88</ele>
        <time>2014-12-28T11:47:45Z</time>
      </trkpt>
      <trkpt lat="47.57732" lon="-0.49885">
        <ele>44.36</ele>
        <time>2014-12-28T11:47:48Z</time>
      </trkpt>
      <trkpt lat="47.57728" lon="-0.49886">
        <ele>44.36</ele>
        <time>2014-12-28T11:47:49Z</time>
      </trkpt>
      <trkpt lat="47.57723" lon="-0.49885">
        <ele>45.32</ele>
        <time>2014-12-28T11:47:50Z</time>
      </trkpt>
      <trkpt lat="47.57719" lon="-0.49884">
        <ele>45.32</ele>
        <time>2014-12-28T11:47:51Z</time>
      </trkpt>
      <trkpt lat="47.57714" lon="-0.49884">
        <ele>45.32</ele>
        <time>2014-12-28T11:47:52Z</time>
      </trkpt>
      <trkpt lat="47.57702" lon="-0.4988">
        <ele>46.28</ele>
        <time>2014-12-28T11:47:55Z</time>
      </trkpt>
      <trkpt lat="47.57652" lon="-0.49866">
        <ele>49.16</ele>
        <time>2014-12-28T11:48:10Z</time>
      </trkpt>
      <trkpt lat="47.5761" lon="-0.49904">
        <ele>50.13</ele>
        <time>2014-12-28T11:48:25Z</time>
      </trkpt>
      <trkpt lat="47.57587" lon="-0.49936">
        <ele>49.65</ele>
        <time>2014-12-28T11:48:33Z</time>
      </trkpt>
      <trkpt lat="47.57583" lon="-0.49939">
        <ele>49.16</ele>
        <time>2014-12-28T11:48:34Z</time>
      </trkpt>
      <trkpt lat="47.5758" lon="-0.49943">
        <ele>49.65</ele>
        <time>2014-12-28T11:48:35Z</time>
      </trkpt>
      <trkpt lat="47.57511" lon="-0.50022">
        <ele>47.24</ele>
        <time>2014-12-28T11:48:52Z</time>
      </trkpt>
      <trkpt lat="47.5744" lon="-0.50095">
        <ele>44.36</ele>
        <time>2014-12-28T11:49:06Z</time>
      </trkpt>
      <trkpt lat="47.57424" lon="-0.50111">
        <ele>43.88</ele>
        <time>2014-12-28T11:49:09Z</time>
      </trkpt>
      <trkpt lat="47.57417" lon="-0.50115">
        <ele>43.4</ele>
        <time>2014-12-28T11:49:10Z</time>
      </trkpt>
      <trkpt lat="47.57411" lon="-0.50119">
        <ele>43.4</ele>
        <time>2014-12-28T11:49:11Z</time>
      </trkpt>
      <trkpt lat="47.57404" lon="-0.50123">
        <ele>42.92</ele>
        <time>2014-12-28T11:49:12Z</time>
      </trkpt>
      <trkpt lat="47.57398" lon="-0.50127">
        <ele>43.4</ele>
        <time>2014-12-28T11:49:13Z</time>
      </trkpt>
      <trkpt lat="47.57297" lon="-0.50174">
        <ele>40.03</ele>
        <time>2014-12-28T11:49:28Z</time>
      </trkpt>
      <trkpt lat="47.57226" lon="-0.50213">
        <ele>40.51</ele>
        <time>2014-12-28T11:49:40Z</time>
      </trkpt>
      <trkpt lat="47.57158" lon="-0.50279">
        <ele>40.51</ele>
        <time>2014-12-28T11:49:54Z</time>
      </trkpt>
      <trkpt lat="47.57145" lon="-0.50289">
        <ele>40.99</ele>
        <time>2014-12-28T11:49:57Z</time>
      </trkpt>
      <trkpt lat="47.57135" lon="-0.50294">
        <ele>40.51</ele>
        <time>2014-12-28T11:49:59Z</time>
      </trkpt>
      <trkpt lat="47.57131" lon="-0.50295">
        <ele>40.99</ele>
        <time>2014-12-28T11:50:00Z</time>
      </trkpt>
      <trkpt lat="47.57126" lon="-0.50295">
        <ele>41.47</ele>
        <time>2014-12-28T11:50:01Z</time>
      </trkpt>
      <trkpt lat="47.57121" lon="-0.50295">
        <ele>41.47</ele>
        <time>2014-12-28T11:50:02Z</time>
      </trkpt>
      <trkpt lat="47.57116" lon="-0.50293">
        <ele>40.99</ele>
        <time>2014-12-28T11:50:03Z</time>
      </trkpt>
      <trkpt lat="47.57111" lon="-0.50291">
        <ele>40.99</ele>
        <time>2014-12-28T11:50:04Z</time>
      </trkpt>
      <trkpt lat="47.57056" lon="-0.50263">
        <ele>38.59</ele>
        <time>2014-12-28T11:50:14Z</time>
      </trkpt>
      <trkpt lat="47.57044" lon="-0.50258">
        <ele>38.11</ele>
        <time>2014-12-28T11:50:16Z</time>
      </trkpt>
      <trkpt lat="47.57032" lon="-0.50255">
        <ele>36.67</ele>
        <time>2014-12-28T11:50:18Z</time>
      </trkpt>
      <trkpt lat="47.57025" lon="-0.50255">
        <ele>36.67</ele>
        <time>2014-12-28T11:50:19Z</time>
      </trkpt>
      <trkpt lat="47.5702" lon="-0.50257">
        <ele>36.67</ele>
        <time>2014-12-28T11:50:20Z</time>
      </trkpt>
      <trkpt lat="47.57015" lon="-0.5026">
        <ele>35.71</ele>
        <time>2014-12-28T11:50:21Z</time>
      </trkpt>
      <trkpt lat="47.57011" lon="-0.50263">
        <ele>34.74</ele>
        <time>2014-12-28T11:50:22Z</time>
      </trkpt>
      <trkpt lat="47.57008" lon="-0.50266">
        <ele>35.23</ele>
        <time>2014-12-28T11:50:23Z</time>
      </trkpt>
      <trkpt lat="47.57006" lon="-0.50269">
        <ele>34.74</ele>
        <time>2014-12-28T11:50:24Z</time>
      </trkpt>
      <trkpt lat="47.57003" lon="-0.50271">
        <ele>34.74</ele>
        <time>2014-12-28T11:50:25Z</time>
      </trkpt>
      <trkpt lat="47.57001" lon="-0.50271">
        <ele>34.74</ele>
        <time>2014-12-28T11:50:26Z</time>
      </trkpt>
      <trkpt lat="47.57" lon="-0.50269">
        <ele>35.23</ele>
        <time>2014-12-28T11:50:27Z</time>
      </trkpt>
      <trkpt lat="47.57" lon="-0.50266">
        <ele>34.74</ele>
        <time>2014-12-28T11:50:28Z</time>
      </trkpt>
      <trkpt lat="47.56998" lon="-0.50261">
        <ele>34.26</ele>
        <time>2014-12-28T11:50:38Z</time>
      </trkpt>
      <trkpt lat="47.56998" lon="-0.5026">
        <ele>34.26</ele>
        <time>2014-12-28T11:51:04Z</time>
      </trkpt>
      <trkpt lat="47.57" lon="-0.50254">
        <ele>33.78</ele>
        <time>2014-12-28T11:51:13Z</time>
      </trkpt>
      <trkpt lat="47.57001" lon="-0.50252">
        <ele>33.78</ele>
        <time>2014-12-28T11:51:14Z</time>
      </trkpt>
      <trkpt lat="47.57002" lon="-0.5025">
        <ele>33.78</ele>
        <time>2014-12-28T11:51:15Z</time>
      </trkpt>
      <trkpt lat="47.57004" lon="-0.50248">
        <ele>33.78</ele>
        <time>2014-12-28T11:51:16Z</time>
      </trkpt>
      <trkpt lat="47.57004" lon="-0.50246">
        <ele>33.78</ele>
        <time>2014-12-28T11:51:17Z</time>
      </trkpt>
      <trkpt lat="47.57005" lon="-0.50244">
        <ele>33.78</ele>
        <time>2014-12-28T11:51:18Z</time>
      </trkpt>
      <trkpt lat="47.57006" lon="-0.50242">
        <ele>33.78</ele>
        <time>2014-12-28T11:51:19Z</time>
      </trkpt>
      <trkpt lat="47.57008" lon="-0.5024">
        <ele>33.78</ele>
        <time>2014-12-28T11:51:30Z</time>
      </trkpt>
      <trkpt lat="47.57008" lon="-0.50241">
        <ele>28.5</ele>
        <time>2014-12-28T11:51:42Z</time>
      </trkpt>
      <trkpt lat="47.57008" lon="-0.50241">
        <ele>36.19</ele>
        <time>2014-12-28T11:51:43Z</time>
      </trkpt>
      <trkpt lat="47.57008" lon="-0.50241">
        <ele>35.71</ele>
        <time>2014-12-28T11:51:44Z</time>
      </trkpt>
      <trkpt lat="47.57007" lon="-0.50241">
        <ele>33.78</ele>
        <time>2014-12-28T11:51:47Z</time>
      </trkpt>
      <trkpt lat="47.57008" lon="-0.50242">
        <ele>33.3</ele>
        <time>2014-12-28T11:52:13Z</time>
      </trkpt>
    </trkseg>
  </trk>
</gpx>